     2              OBSERVATION DATA    GPS                 RINEX VERSION / TYPE
ASHTORIN MIT 28 - OCT - 96 11:21                            PGM / RUN BY / DATE
                                                            COMMENT
CHINA LAKE 1996 P-Code Ashtech data EXPT #2                 COMMENT
Original Marker Name: GS15                                  COMMENT
Campaign Name: China Lake Nov 1996                          COMMENT
4-Character Station Name: GS15                              COMMENT
6-Character Antenna Code: ASHP12                            COMMENT
Vertical Measurement Point: TGP                             COMMENT
Vertical Offset to Rinex Ref. Point: 0.0640                 COMMENT
Radial Measurement Point: RRP                               COMMENT
Radial Offset to Rinex Ref. Point: 0.0000                   COMMENT
Antenna Height from Field Measurement: 0.2450 m             COMMENT
Additional Antenna Identification Info.:                    COMMENT
Ashtech L1/L2 Revision B (700228DE)                         COMMENT
Original XYZ: -2455781.9300 -4602727.8900 3658823.2300      COMMENT
New XYZ position is based on association with SCEC monument COMMENT
E1F4A2V2+0011. Position of that monument is believed to be  COMMENT
valid to within 1 m horizontally; vertical accuracy         COMMENT
should be no worse than 3-times this value.                 COMMENT
                                                            COMMENT
Revised Rinex header created by UCSD GPS archive for        COMMENT
GSAC on 31-Jul-2000 (2000:213) 23:07:11 GMT                 COMMENT
For assistance contact dagnew@ucsd.edu                      COMMENT
or anderson@python.ucsd.edu                                 COMMENT
                                                            COMMENT
BLM CA 065-94-65 GO15                                       MARKER NAME
                                                            MARKER NUMBER
_BT US DEFENSE MAPPING AGENCY                               OBSERVER / AGENCY
456 ASHTECH Z-XII3 1G001C7                                  REC # / TYPE / VERS
443 ASHTECH GEODETIC P                                      ANT # / TYPE
 -2440033.1578 -4596562.2032  3677078.4527                  APPROX POSITION XYZ
        0.1810        0.0000        0.0000                  ANTENNA: DELTA H/E/N
     1     1     0                                          WAVELENGTH FACT L1/2
     7    L1    L2    C1    P1    P2    D1    D2            # / TYPES OF OBSERV
    30                                                      INTERVAL
  1996    10    16    15    26   30.000000                  TIME OF FIRST OBS
  1996    10    16    21    29   60.000000                  TIME OF LAST OBS
                                                            END OF HEADER
 96 10 16 15 26 30.0000000  0  7 21 17 28 26  6 23 22               -0.001785915
   -183371.855 9   -123923.52747  21851310.524           0.0005   21851319.0704
      4147.602        3231.898
    -80636.919 9    -54087.56348  18879011.961    18879011.8904   18879018.7504
      1808.454        1409.185
   -166062.557 9   -110686.49554  19747898.181           0.0005          0.0005
      3702.102        2884.755
    -49250.061 9    -32877.39348  20356004.538    20356005.3714   20356011.2624
      1090.608         849.824
     31206.479 9     19901.28648  19007494.734    19007494.7044   19007501.2654
      -591.100        -460.597
   -120091.301 9    -78534.64248  19206466.947    19206466.5104   19206473.4024
      2622.422        2043.446
    -41259.889 9    -25935.00146  21641234.014           0.0004          0.0004
      1259.213         981.205
 96 10 16 15 26 35.0000000  0  6 21 17 28 26  6 23                   0.000016040
   -204083.983 9   -140062.84047  23646124.606           0.0005   23646132.2894
      4147.050        3231.468
    -89667.016 9    -61123.99748  20676047.347    20676048.2564   20676055.1324
      1807.830        1408.699
   -184548.058 9   -125088.21814  21543135.396           0.0001          0.0001
      3700.858        2883.785
    -54690.308 9    -37116.53948  22153725.453    22153724.9254   22153730.7464
      1088.007         847.798
     34163.488 9     22205.44948  20806811.895    20806812.1584   20806818.7324
      -593.234        -462.260
   -133183.245 9    -88736.14848  21002730.055    21002729.9834   21002736.8604
      2620.587        2042.016
 96 10 16 15 26 40.0000000  0  6 21 17 28 26  6 23                   0.000012041
   -224820.200 9   -156220.94347  23642179.937           0.0005   23642186.4234
      4147.072        3231.485
    -98706.853 9    -68168.03848  20674328.063    20674328.0174   20674334.9094
      1807.779        1408.659
   -203051.395 9   -139503.39014  21539614.461           0.0001          0.0001
      3700.149        2883.233
    -60125.774 9    -41351.98148  22152690.483    22152690.5524   22152696.4184
      1085.888         846.146
     37132.758 9     24519.15148  20807377.891    20807377.1944   20807383.7744
      -594.812        -463.490
   -146284.055 9    -98944.58448  21000236.688    21000236.9834   21000243.8734
      2619.389        2041.082
 96 10 16 15 26 45.0000000  0  6 21 17 28 26  6 23                   0.000008020
   -245554.896 9   -172377.84747  23638230.896    23638233.2455   23638240.8194
      4146.477        3231.021
   -107745.061 9    -75210.80348  20672608.802    20672608.1014   20672615.0194
      1807.171        1408.185
   -221549.807 9   -153914.67914  21536094.091           0.0001          0.0001
      3698.876        2882.241
    -65549.398 9    -45578.18448  22151657.236    22151658.4354   22151664.3434
      1083.237         844.081
     40111.325 9     26840.10548  20807943.964    20807943.9994   20807950.5854
      -596.916        -465.129
   -159377.476 9   -109147.25448  20997745.835    20997745.3814   20997752.2984
      2617.653        2039.730
 96 10 16 15 26 50.0000000  0  6 21 17 28 26  6 23                   0.000004041
   -266284.823 9   -188531.03847  23634291.860    23634288.6794   23634296.0544
      4145.471        3230.237
   -116778.628 9    -82249.94448  20670889.357    20670889.1024   20670896.0074
      1806.167        1407.403
   -240040.190 9   -168319.78514  21532575.975           0.0001          0.0001
      3697.202        2880.937
    -70958.071 9    -49792.73448  22150628.928    22150629.1634   22150635.0894
      1080.176         841.696
     43102.123 9     29170.59448  20808513.566    20808513.1364   20808519.7264
      -599.449        -467.103
   -172460.196 9   -119341.58148  20995256.022    20995255.8324   20995262.7404
      2615.369        2037.950
 96 10 16 15 26 55.0000000  0  6 21 17 28 26  6 23                   0.000000017
   -287009.479 9   -204680.11647  23630342.840    23630344.7174   23630352.2584
      4145.183        3230.013
   -125806.753 9    -89284.83848  20669171.513    20669171.0904   20669178.0164
      1805.869        1407.171
   -258521.657 9   -182718.39214  21529058.495           0.0001          0.0001
      3696.191        2880.149
    -76350.976 9    -53994.99248  22149602.398    22149602.9124   22149608.8504
      1077.798         839.843
     46105.756 9     31511.09448  20809084.276    20809084.7254   20809091.3184
      -601.187        -468.457
   -185531.350 9   -129526.88648  20992768.427    20992768.4644   20992775.3894
      2613.872        2036.783
 96 10 16 15 27  0.0000000  0  6 21 17 28 26  6 23                  -0.000003976
   -307731.191 9   -220826.89647  23626402.296    23626401.5864   23626409.0894
      4143.821        3228.951
   -134831.598 9    -96317.18648  20667453.268    20667453.7144   20667460.6524
      1804.415        1406.038
   -276996.448 9   -197111.49114  21525542.920           0.0001          0.0001
      3694.080        2878.504
    -81730.173 9    -58186.57548  22148579.521    22148579.2644   22148585.2284
      1074.239         837.069
     49119.836 9     33859.72348  20809657.884    20809658.2854   20809664.9014
      -604.083        -470.714
   -198593.301 9   -139705.03148  20990283.008    20990282.8824   20990289.7834
      2611.267        2034.754
 96 10 16 15 27  4.9990000  3  2
GS15                                                        MARKER NAME
--> THIS IS THE START OF A NEW SITE <---                    COMMENT
 96 10 16 15 27  4.9990000  0  7 21 17 28 26  6 23 22               -0.000007928
   -328443.723 9   -236966.53547  23622458.003    23622460.2924   23622467.6694
      4143.290        3228.538
   -143849.307 9   -103343.97348  20665737.884    20665737.7064   20665744.6504
      1803.826        1405.579
   -295458.818 9   -211494.71214  21522028.831           0.0001          0.0001
      3692.792        2877.500
    -87092.584 9    -62365.07548  22147557.674    22147558.8304   22147564.7814
      1071.587         835.003
     52145.802 9     36217.61548  20810235.020    20810234.1214   20810240.7284
      -606.092        -472.279
   -211641.441 9   -149872.41548  20987800.210    20987799.9364   20987806.8204
      2609.463        2033.348
    -85066.126 9    -60069.72157  23431652.243           0.0004   23431658.4725
      1243.837         969.224
 96 10 16 15 27  9.9990000  0  7 21 17 28 26  6 23 22               -0.000011941
   -349155.837 9   -253105.85347  23618516.158    23618518.8304   23618526.2994
      4142.648        3228.037
   -152863.772 9   -110368.23148  20664022.733    20664022.3234   20664029.2594
      1803.072        1404.991
   -313916.457 9   -225873.99214  21518517.287           0.0001          0.0001
      3691.352        2876.378
    -92440.774 9    -66532.49648  22146540.530    22146541.1224   22146547.0634
      1068.791         832.824
     55184.499 9     38585.43048  20810813.024    20810812.3754   20810818.9634
      -608.262        -473.970
   -224681.449 9   -160033.45848  20985318.617    20985318.5264   20985325.3804
      2607.610        2031.904
    -91276.875 9    -64909.26747  23430467.308           0.0004   23430476.4534
      1241.554         967.445
 96 10 16 15 27 14.9990000  0  7 21 17 28 26  6 23 22               -0.000015939
   -369866.020 9   -269243.65647  23614578.034    23614577.7544   23614585.2744
      4141.678        3227.282
   -161875.683 9   -117390.50648  20662307.245    20662307.4254   20662314.3664
      1801.965        1404.129
   -332368.173 9   -240249.01814  21515005.819           0.0001          0.0001
      3689.557        2874.979
    -97776.098 9    -70689.89348  22145524.941    22145525.8444   22145531.7844
      1065.597         830.335
     58232.668 9     40960.61948  20811393.200    20811392.4384   20811399.0334
      -610.753        -475.911
   -237713.293 9   -170188.14348  20982838.178    20982838.6654   20982845.4994
      2605.384        2030.169
    -97477.320 9    -69740.78547  23429289.266           0.0005   23429296.5914
      1238.869         965.352
 96 10 16 15 27 19.9990000  0  7 21 17 28 26  6 23 22               -0.000019965
   -390569.954 9   -285376.58547  23610633.164    23610637.9284   23610645.4494
      4140.425        3226.305
   -170880.757 9   -124407.44348  20660593.992    20660593.8174   20660600.7704
      1800.613        1403.075
   -350809.709 9   -254616.56614  21511496.950           0.0001          0.0001
      3687.570        2873.431
   -103093.995 9    -74833.71048  22144514.052    22144513.8814   22144519.8424
      1062.116         827.623
     61294.416 9     43346.39658  20811974.096    20811975.0815   20811981.6615
      -613.406        -477.979
   -250732.821 9   -180333.22748  20980361.572    20980361.1534   20980367.9684
      2602.952        2028.274
   -103663.226 9    -74560.97547  23428112.439           0.0005   23428119.5404
      1236.018         963.131
 96 10 16 15 27 24.9990000  0  7 21 17 28 26  6 23 22               -0.000023993
   -411270.394 9   -301506.81057  23606707.825    23606698.7365   23606706.3005
      4139.546        3225.620
   -179881.740 9   -131421.20958  20658880.865    20658881.0055   20658887.9545
      1799.628        1402.308
   -369243.718 9   -268978.00914  21507988.292           0.0001          0.0001
      3685.880        2872.114
   -108397.064 9    -78965.98358  22143504.830    22143504.7495   22143510.6915
      1058.951         825.157
     64367.115 9     45740.69248  20812558.447    20812559.7904   20812566.3914
      -615.819        -479.859
   -263742.809 9   -190470.89458  20977886.491    20977885.4525   20977892.2355
      2600.869        2026.651
   -109837.302 9    -79371.94947  23426936.345    23426937.3165   23426944.7654
      1233.460         961.138
 96 10 16 15 27 29.9990000  0  7 21 17 28 26  6 23 22               -0.000027994
   -431966.246 9   -317633.44247  23602775.967    23602760.4974   23602767.9984
      4138.459        3224.773
   -188877.810 9   -138431.12848  20657169.115    20657169.1314   20657176.0664
      1798.456        1401.394
   -387669.277 9     -7993.61818  21504481.433           0.0001   21504486.9571
      3683.997        2870.647
   -113684.279 9    -83085.88548  22142499.040    22142498.6304   22142504.5844
      1055.622         822.562
     67451.841 9     48144.37748  20813145.327    20813146.7874   20813153.3914
      -618.402        -481.872
   -276742.321 9   -200600.37248  20975413.205    20975411.7364   20975418.5214
      2598.613        2024.893
   -115998.704 9    -84173.04847  23425766.652    23425764.7224   23425772.2984
      1230.740         959.018
 96 10 16 15 27 59.9990000  0  7 21 17 28 26  6 23 22               -0.000052003
   -555994.235 9   -414278.62747  23579173.159    23579158.8854   23579166.3084
      4130.528        3218.593
   -242696.473 9   -180367.75248  20646927.920    20646927.8444   20646934.7734
      1789.802        1394.651
   -497989.081 9    -93957.18219  21483488.511    21483489.5501   21483495.8591
      3671.017        2860.533
   -145021.370 9   -107504.40248  22136535.645    22136535.4214   22136541.3404
      1034.033         805.740
     86267.763 9     62806.11348  20816726.505    20816727.3734   20816733.9644
      -635.506        -495.199
   -354462.165 9   -261161.28548  20960623.345    20960622.2074   20960628.8924
      2583.156        2012.849
   -152655.625 9   -112736.89457  23418789.572    23418789.4775   23418796.6645
      1213.461         945.554
 96 10 16 15 28 29.9990000  0  7 21 17 28 26  6 23 22               -0.000076095
   -679853.032 9   -510791.96047  23555597.416    23555589.4624   23555596.8054
      4125.813        3214.919
   -296312.383 9   -222146.38648  20636725.173    20636725.0994   20636732.0014
      1783.763        1389.945
   -607976.084 9   -179661.344 9  21462559.251    21462559.674    21462566.070
      3660.558        2852.383
   -175776.912 9   -131469.76548  22130682.799    22130682.8904   22130688.7794
      1015.412         791.230
    105541.785 9     77824.80748  20820394.604    20820395.1134   20820401.7094
      -650.409        -506.812
   -431781.057 9   -321409.76848  20945909.655    20945908.9604   20945915.5814
      2570.625        2003.084
   -188853.366 9   -140942.94347  23411901.677    23411901.2004   23411908.4834
      1198.640         934.005
 96 10 16 15 28 59.9990000  0  7 21 17 28 26  6 23 22               -0.000100233
   -803593.982 9   -607213.48847  23532048.209    23532042.4444   23532049.7954
      4122.423        3212.278
   -349776.519 9   -263806.76148  20626551.250    20626551.2414   20626558.1354
      1779.358        1386.513
   -717675.664 9   -265141.544 9  21441684.235    21441684.543    21441690.966
      3651.658        2845.448
   -205999.277 9   -155019.67048  22124931.615    22124931.8044   22124937.6764
       998.277         777.878
    125225.351 9     93162.62148  20824140.355    20824140.7744   20824147.3594
      -662.753        -516.431
   -508760.172 9   -381393.49648  20931260.851    20931260.3144   20931266.9904
      2560.286        1995.028
   -224626.948 9   -168818.47747  23405094.223    23405093.6974   23405100.9574
      1185.113         923.465
 96 10 16 15 29 29.9990000  0  7 21 17 28 26  6 23 22               -0.000124423
   -927229.542 9   -703552.87347  23508519.973    23508515.4444   23508522.8704
      4118.880        3209.517
   -403101.959 9   -305359.05348  20616403.789    20616403.8234   20616410.6724
      1774.688        1382.874
   -827104.992 9   -350411.149 9  21420860.597    21420860.840    21420867.269
      3642.654        2838.432
   -235703.348 9   -178165.70148  22119279.071    22119279.3374   22119285.2074
       981.081         764.479
    145275.617 9    108786.18548  20827955.842    20827956.2474   20827962.8374
      -675.155        -526.095
   -585426.463 9   -441133.46148  20916671.507    20916671.2004   20916677.9574
      2549.771        1986.835
   -259988.121 9   -196372.65547  23398365.141    23398364.6964   23398371.9174
      1171.338         912.731
 96 10 16 15 29 59.9990000  0  7 21 17 28 26  6 23 22               -0.000148670
  -1050741.839 9   -799796.21847  23485015.441    23485011.8784   23485019.3374
      4114.901        3206.416
   -456279.894 9   -346796.41048  20606284.395    20606284.4684   20606291.2624
      1770.099        1379.298
   -936254.613 9   -435462.807 9  21400090.183    21400090.374    21400096.823
      3633.598        2831.375
   -264895.165 9   -200912.58048  22113724.080    22113724.3894   22113730.2334
       964.694         751.710
    165720.251 9    124717.04148  20831846.407    20831846.7754   20831853.3654
      -688.190        -536.252
   -661761.940 9   -500615.65348  20902145.292    20902145.0904   20902151.8654
      2538.876        1978.345
   -294926.007 9   -223597.00347  23391716.806    23391716.3254   23391723.4494
      1157.327         901.813
 96 10 16 15 30 29.9990000  0  7 21 17 28 26  6 23 22               -0.000172954
  -1174094.125 9   -895914.88047  23461541.624    23461538.7164   23461546.2454
      4108.496        3201.425
   -509282.898 9   -388097.46648  20596198.296    20596198.3434   20596205.1624
      1763.528        1374.178
  -1045092.422 9   -520271.497 9  21379379.065    21379379.227    21379385.695
      3622.282        2822.557
   -293561.340 9   -223249.86748  22108269.098    22108269.4134   22108275.2964
       946.293         737.371
    186599.975 9    140986.92748  20835819.840    20835820.1064   20835826.6944
      -703.715        -548.349
   -737734.784 9   -559815.27248  20887688.181    20887688.0154   20887694.7144
      2526.079        1968.373
   -329391.447 9   -250453.21447  23385157.865    23385157.7954   23385164.9134
      1140.395         888.619
 96 10 16 15 30 59.9990000  0  8 21 17 28 26  6 23 22  3            -0.000197239
  -1297246.407 9   -991877.69147  23438105.814    23438103.6174   23438111.2334
      4101.754        3196.172
   -562090.940 9   -429246.59348  20586149.205    20586149.3414   20586156.1284
      1757.111        1369.177
  -1153593.205 9   -604817.561 9  21358732.094    21358732.248    21358738.693
      3611.062        2813.814
   -321670.416 9   -245153.04548  22102920.099    22102920.4524   22102926.3444
       927.811         722.970
    207936.767 9    157612.97548  20839880.186    20839880.4054   20839886.9924
      -718.730        -560.049
   -813329.537 9   -618720.26748  20873303.026    20873302.8754   20873309.4944
      2513.539        1958.602
   -363354.936 9   -276918.28747  23378695.257    23378694.7844   23378701.8854
      1123.853         875.730
   -965447.72819   -734463.68955  25136806.735    25136806.8685   25136814.0715
      4855.463        3783.478
 96 10 16 15 31 29.9990000  0  8 21 17 28 26  6 23 22  3            -0.000221543
  -1420210.904 9  -1087694.17547  23414705.793    23414704.2084   23414711.8744
      4094.790        3190.745
   -614720.426 9   -470256.58848  20576134.208    20576134.3204   20576141.1114
      1750.457        1363.992
  -1261765.584 9   -689107.728 9  21338147.618    21338147.753    21338154.186
      3599.276        2804.631
   -349244.637 9   -266639.45548  22097672.870    22097673.2964   22097679.1864
       909.365         708.596
    229726.171 9    174591.71048  20844026.568    20844026.8314   20844033.3784
      -735.167        -572.857
   -888554.662 9   -677337.24548  20858988.067    20858988.0054   20858994.5964
      2500.284        1948.273
   -396834.205 9   -303006.04847  23372324.722    23372323.8764   23372331.0154
      1106.909         862.526
  -1111132.147 9   -847984.03545  25109084.060    25109084.2154   25109091.1414
      4855.467        3783.481
 96 10 16 15 31 59.9990000  0  8 21 17 28 26  6 23 22  3            -0.000245858
  -1542978.572 9  -1183357.28847  23391343.262    23391342.3044   23391349.9604
      4090.457        3187.369
   -667156.385 9   -511115.79248  20566155.882    20566156.1164   20566162.9194
      1745.969        1360.495
  -1369588.117 9   -773125.296 9  21317629.594    21317629.855    21317636.255
      3589.565        2797.064
   -376268.824 9   -287697.26948  22092530.210    22092530.8044   22092536.6884
       892.830         695.712
    252004.414 9    191951.34748  20848265.955    20848266.2884   20848272.8284
      -749.177        -583.774
   -963387.942 9   -735648.89948  20844747.573    20844747.7434   20844754.3594
      2489.349        1939.752
   -429805.181 9   -328697.73847  23366050.465    23366049.7184   23366056.9134
      1091.863         850.802
  -1256821.729 9   -961508.41245  25081360.027    25081360.5504   25081367.3924
      4857.731        3785.245
 96 10 16 15 32 29.9990000  0  8 21 17 28 26  6 23 22  3            -0.000270204
  -1665610.883 9  -1278914.91547  23368006.661    23368006.1134   23368013.7884
      4085.283        3183.337
   -719448.628 9   -551863.00048  20556204.866    20556205.2364   20556212.0784
      1740.527        1356.255
  -1477109.951 9   -856908.541 9  21297168.829    21297169.149    21297175.558
      3578.869        2788.729
   -402777.350 9   -308353.26948  22087485.720    22087486.4224   22087492.3504
       874.699         681.584
    274704.147 9    209639.43648  20852585.488    20852585.9564   20852592.5304
      -763.713        -595.101
  -1037892.755 9   -793704.59248  20830569.704    20830570.0084   20830576.6484
      2477.937        1930.860
   -462320.324 9   -354034.23547  23359862.854    23359862.3464   23359869.5344
      1076.195         838.594
  -1402561.522 9  -1075071.91145  25053626.471    25053627.0874   25053633.9784
      4858.408        3785.772
 96 10 16 15 32 59.9990000  0  8 21 17 28 26  6 23 22  3            -0.000294566
  -1788089.987 9  -1374353.17047  23344699.304    23344699.0844   23344706.7704
      4080.810        3179.852
   -771573.234 9   -592479.58348  20546285.847    20546286.2974   20546293.1204
      1735.186        1352.093
  -1584309.254 9   -940440.468 9  21276769.415    21276769.833    21276776.236
      3568.458        2780.617
   -428733.428 9   -328578.78748  22082546.375    22082547.1914   22082553.1414
       856.596         667.477
    297833.697 9    227662.43848  20856986.850    20856987.3964   20856994.0114
      -777.536        -605.872
  -1112052.179 9   -851491.15448  20816457.731    20816458.0454   20816464.6804
      2466.658        1922.071
   -494376.062 9   -379012.75347  23353762.876    23353762.4664   23353769.5704
      1061.587         827.211
  -1548310.978 9  -1188642.94146  25025891.352    25025891.8834   25025898.8594
      4858.792        3786.072
 96 10 16 15 33 29.9990000  0  8 21 17 28 26  6 23 22  3            -0.000318956
  -1910426.729 9  -1469680.49947  23321419.003    23321419.1464   23321426.7584
      4074.191        3174.694
   -823521.533 9   -632958.78048  20536400.425    20536400.9304   20536407.7214
      1727.401        1346.027
  -1691184.018 9  -1023719.505 9  21256431.757    21256432.284    21256438.670
      3555.815        2770.765
   -454135.565 9   -348372.66848  22077712.467    22077713.3614   22077719.3114
       836.125         651.526
    321389.264 9    246017.40748  20861469.325    20861469.9234   20861476.5644
      -793.404        -618.237
  -1185859.119 9   -909003.05248  20802412.762    20802413.1004   20802419.7174
      2453.084        1911.494
   -525980.262 9   -403639.42147  23347748.946    23347748.4544   23347755.5084
      1044.725         814.071
  -1694044.464 9  -1302201.51946  24998159.097    24998159.6634   24998166.7554
      4855.993        3783.891
 96 10 16 15 33 59.9990000  0  8 21 17 28 26  6 23 22  3            -0.000343345
  -2032583.156 9  -1564867.31547  23298173.150    23298173.5234   23298181.0534
      4068.628        3170.359
   -875265.799 9   -673278.99048  20526553.809    20526554.3644   20526561.1034
      1721.467        1341.403
  -1797701.362 9  -1106720.035 9  21236162.239    21236162.726    21236169.117
      3544.542        2761.981
   -478938.807 9   -367699.87548  22072992.550    22072993.4934   22072999.4554
       816.765         636.440
    345383.852 9    264714.46948  20866035.349    20866035.9834   20866042.6554
      -806.946        -628.789
  -1259284.380 9   -966217.54448  20788440.285    20788440.7174   20788447.3254
      2441.197        1902.231
   -557109.568 9   -427896.03947  23341825.241    23341824.7614   23341831.7964
      1029.837         802.470
  -1839713.498 9  -1415709.88446  24970438.818    24970439.7294   24970446.9164
      4854.420        3782.665
 96 10 16 15 34 29.9990000  0  8 21 17 28 26  6 23 22  3            -0.000367722
  -2154529.157 9  -1659890.15547  23274967.486    23274967.9814   23274975.3904
      4061.836        3165.067
   -926799.971 9   -713435.49548  20516747.227    20516747.7814   20516754.4884
      1714.852        1336.248
  -1903845.357 9  -1189429.643 9  21215963.688    21215964.219    21215970.605
      3532.449        2752.558
   -503134.536 9   -386553.69848  22068388.232    22068389.2354   22068395.2224
       797.130         621.140
    369815.249 9    283751.90148  20870684.527    20870685.1684   20870691.8484
      -820.980        -639.725
  -1332322.394 9  -1023130.28448  20774541.512    20774542.0484   20774548.6114
      2428.691        1892.486
   -587766.314 9   -451784.43347  23335991.199    23335990.9784   23335997.9834
      1014.697         790.673
  -1985297.205 9  -1529151.75046  24942735.154    24942736.0544   24942743.3314
      4851.943        3780.735
 96 10 16 15 34 59.9990000  0  8 21 17 28 26  6 23 22  3            -0.000392118
  -2276282.444 9  -1754762.83847  23251798.609    23251799.1434   23251806.4094
      4054.290        3159.187
   -978142.117 9   -753442.36648  20506977.175    20506977.7494   20506984.4424
      1707.129        1330.230
  -2009634.271 9  -1271862.570 9  21195832.683    21195833.272    21195839.672
      3519.256        2742.277
   -526759.245 9   -404962.57348  22063892.637    22063893.6574   22063899.6294
       777.171         605.588
    394654.611 9    303107.22748  20875411.339    20875412.0104   20875418.6974
      -835.925        -651.370
  -1404985.076 9  -1079750.55648  20760714.303    20760714.8434   20760721.3584
      2414.686        1881.574
   -617979.684 9   -475327.34547  23330241.361    23330241.5884   23330248.5634
       998.579         778.114
  -2130818.570 9  -1642545.03146  24915043.360    24915044.2304   24915051.6974
      4848.737        3778.237
 96 10 16 15 35 29.9990000  0  8 21 17 28 26  6 23 22  3            -0.000416534
  -2397837.170 9  -1849480.80447  23228667.510    23228668.0874   23228675.2364
      4047.561        3153.944
  -1029282.497 9   -793292.02248  20497245.504    20497246.0814   20497252.7644
      1700.578        1325.126
  -2115054.770 9  -1354008.420 9  21175771.865    21175772.448    21175778.836
      3507.041        2732.759
   -549820.773 9   -422932.61148  22059504.178    22059505.1944   22059511.1734
       758.632         591.142
    419912.171 9    322788.41648  20880217.720    20880218.4214   20880225.1114
      -849.657        -662.070
  -1477257.325 9  -1136066.59448  20746961.405    20746961.9634   20746968.4374
      2401.794        1871.528
   -647726.621 9   -498506.79347  23324580.943    23324580.9914   23324587.9074
       982.824         765.837
  -2276284.862 9  -1755895.40846  24887361.986    24887362.9694   24887370.3424
      4847.505        3777.277
 96 10 16 15 35 59.9990000  0  8 21 17 28 26  6 23 22  3            -0.000440948
  -2519156.172 9  -1944015.08647  23205581.339    23205581.9094   23205588.9644
      4039.425        3147.604
  -1080190.103 9   -832960.29348  20487558.110    20487558.6914   20487565.3714
      1692.160        1318.566
  -2220071.403 9  -1435839.569 9  21155787.880    21155788.481    21155794.863
      3493.089        2721.888
   -572293.801 9   -440444.06948  22055227.685    22055228.7604   22055234.7184
       738.627         575.553
    445621.897 9    342821.94348  20885110.175    20885110.8744   20885117.5374
      -865.358        -674.305
  -1549104.829 9  -1192051.66448  20733289.332    20733289.8704   20733296.3514
      2387.093        1860.072
   -676962.725 9   -521288.19147  23319017.735    23319017.6204   23319024.5074
       965.205         752.108
  -2421697.103 9  -1869203.65546  24859690.975    24859691.9834   24859699.3334
      4845.769        3775.924
 96 10 16 15 36 29.9990000  0  8 21 17 28 26  6 23 22  3            -0.000465357
  -2640233.917 9  -2038361.37747  23182541.253    23182541.6674   23182548.6214
      4032.107        3141.901
  -1130843.319 9   -872430.34248  20477919.101    20477919.6914   20477926.4034
      1684.355        1312.484
  -2324670.452 9  -1517345.326 9  21135883.399    21135883.984    21135890.361
      3479.783        2711.519
   -594167.127 9   -457488.23148  22051065.375    22051066.4394   22051072.3964
       719.109         560.345
    471805.928 9    363225.06448  20890092.841    20890093.5694   20890100.2144
      -880.656        -686.225
  -1620508.623 9  -1247690.98548  20719701.541    20719702.1474   20719708.6844
      2372.663        1848.828
   -705664.103 9   -543652.91747  23313555.806    23313555.9734   23313562.8864
       947.798         738.544
  -2567064.258 9  -1982476.77346  24832028.545    24832029.4634   24832036.9134
      4845.122        3775.420
 96 10 16 15 36 59.9990000  0  8 21 17 28 26  6 23 22  3            -0.000489756
  -2761080.200 9  -2132527.31147  23159545.033    23159545.4554   23159552.4214
      4023.040        3134.836
  -1181252.538 9   -911710.26548  20468326.554    20468327.1634   20468333.8604
      1675.054        1305.237
  -2428853.001 9  -1598526.539 9  21116058.160    21116058.747    21116065.100
      3464.537        2699.639
   -615428.345 9   -474055.42348  22047019.482    22047020.5734   22047026.5264
       697.110         543.202
    498469.354 9    384001.73148  20895166.752    20895167.4954   20895174.1124
      -898.226        -699.916
  -1691457.464 9  -1302975.79948  20706200.364    20706201.0254   20706207.5304
      2356.158        1835.967
   -733823.228 9   -565595.10847  23308197.460    23308197.4964   23308204.4434
       928.187         723.263
  -2712402.004 9  -2095726.96546  24804371.607    24804372.5864   24804380.0654
      4842.832        3773.635
 96 10 16 15 37 29.9990000  0  8 21 17 28 26  6 23 22  3            -0.000514109
  -2881655.530 9  -2226482.11447  23136600.471    23136600.7844   23136607.8024
      4014.509        3128.189
  -1231392.471 9   -950780.34648  20458785.241    20458785.8474   20458792.5824
      1666.896        1298.880
  -2532589.604 9  -1679360.262 9  21096317.793    21096318.353    21096324.676
      3450.452        2688.664
   -636036.519 9   -490113.74748  22043097.905    22043098.9774   22043104.9484
       676.022         526.770
    525652.485 9    405183.36748  20900339.600    20900340.3124   20900346.9234
      -914.758        -712.798
  -1761931.681 9  -1357890.77248  20692789.644    20692790.2634   20692796.7364
      2341.337        1824.418
   -761406.473 9   -587088.56447  23302948.671    23302948.6044   23302955.5794
       910.077         709.151
  -2857682.462 9  -2208932.53446  24776725.616    24776726.6374   24776734.1194
      4841.706        3772.758
 96 10 16 15 37 59.9990000  0  8 21 17 28 26  6 23 22  3            -0.000538401
  -3001923.762 9  -2320197.61947  23113714.305    23113714.5284   23113721.6844
      4004.604        3120.471
  -1281237.364 9   -989620.53448  20449300.110    20449300.6804   20449307.4134
      1657.371        1291.458
  -2635850.959 9  -1759823.660 9  21076667.809    21076668.394    21076674.701
      3434.924        2676.564
   -655964.196 9   -505641.81948  22039305.778    22039306.8414   22039312.8344
       653.807         509.460
    553390.907 9    426797.69348  20905618.036    20905618.7684   20905625.3564
      -933.080        -727.075
  -1831903.026 9  -1412413.89648  20679474.581    20679475.2044   20679481.6264
      2324.877        1811.592
   -788407.050 9   -608127.99247  23297810.688    23297810.6044   23297817.5834
       891.222         694.459
  -3002868.544 9  -2322064.55546  24749097.683    24749098.6464   24749106.0654
      4838.481        3770.245
 96 10 16 15 38 29.9990000  0  8 21 17 28 26  6 23 22  3            -0.000562630
  -3121868.717 9  -2413661.21447  23090889.498    23090889.7474   23090897.0584
      3993.623        3111.914
  -1330779.062 9  -1028224.46348  20439872.662    20439873.2274   20439879.9494
      1647.210        1283.540
  -2738625.239 9  -1839907.518 9  21057110.587    21057111.098    21057117.421
      3418.484        2663.754
   -675206.416 9   -520635.76948  22035644.149    22035645.2024   22035651.1864
       630.910         491.618
    581693.439 9    448851.58948  20911003.861    20911004.5914   20911011.1794
      -951.901        -741.741
  -1901365.387 9  -1466540.41148  20666256.330    20666256.9274   20666263.4044
      2307.862        1798.334
   -814824.473 9   -628713.01747  23292783.619    23292783.5704   23292790.5024
       871.827         679.346
  -3147923.681 9  -2435094.52946  24721494.721    24721495.6314   24721502.8854
      4833.706        3766.524
 96 10 16 15 38 59.9990000  0  8 21 17 28 26  6 23 22  3            -0.000586829
  -3241537.818 9  -2506909.86747  23068117.168    23068117.4244   23068124.9384
      3984.543        3104.839
  -1380060.538 9  -1066625.62148  20430494.731    20430495.3224   20430502.0174
      1638.548        1276.791
  -2840956.816 9  -1919646.414 9  21037637.449    21037638.064    21037644.363
      3403.939        2652.420
   -693820.973 9   -535140.63048  22032101.942    22032102.9814   22032108.9334
       610.571         475.770
    610505.892 9    471302.82548  20916486.624    20916487.3814   20916494.0324
      -968.552        -754.716
  -1970373.910 9  -1520313.28648  20653124.472    20653125.0344   20653131.5754
      2293.129        1786.854
   -840712.469 9   -648885.49147  23287857.255    23287857.2554   23287864.2244
       854.473         665.823
  -3292876.328 9  -2548044.64246  24693911.234    24693912.1164   24693919.2424
      4830.210        3763.800
 96 10 16 15 39 29.9990000  0  8 21 17 28 26  6 23 22  3            -0.000611016
  -3360937.778 9  -2599948.80347  23045395.850    23045396.3134   23045403.9804
      3977.658        3099.474
  -1429081.627 9  -1104823.88148  20421166.357    20421166.9054   20421173.6044
      1631.739        1271.485
  -2942850.903 9  -1999044.411 9  21018247.605    21018248.266    21018254.559
      3391.110        2642.423
   -711836.961 9   -549179.07748  22028673.555    22028674.6174   22028680.5934
       592.562         461.737
    639816.728 9    494142.41048  20922064.228    20922065.0694   20922071.7784
      -983.305        -766.212
  -2038944.055 9  -1573744.57348  20640076.030    20640076.5844   20640083.1164
      2280.275        1776.838
   -866084.492 9   -668655.92047  23283028.848    23283029.1314   23283036.1504
       839.237         653.951
  -3437724.277 9  -2660913.18646  24666347.578    24666348.4804   24666355.6264
      4828.652        3762.586
 96 10 16 15 39 59.9990000  0  8 21 17 28 26  6 23 22  3            -0.000635218
  -3480104.956 9  -2692806.34647  23022718.721    23022719.4674   23022727.2474
      3967.337        3091.431
  -1477873.267 9  -1142843.35248  20411881.512    20411882.1374   20411888.8504
      1621.734        1263.689
  -3044329.734 9  -2078118.827 9  20998936.881    20998937.509    20998943.791
      3374.790        2629.706
   -729284.048 9   -562774.22548  22025353.448    22025354.5604   22025360.4824
       571.059         444.981
    669595.583 9    517346.68748  20927730.990    20927731.8104   20927738.5734
     -1001.115        -780.090
  -2107095.287 9  -1626849.42848  20627107.278    20627107.8664   20627114.3494
      2264.011        1764.164
   -890973.110 9   -688049.66947  23278292.693    23278293.0334   23278300.0694
       820.560         639.397
  -3582494.580 9  -2773721.21246  24638798.788    24638799.6154   24638806.7694
      4823.453        3758.535
 96 10 16 15 40 29.9990000  0  8 21 17 28 26  6 23 22  3            -0.000659376
  -3598974.049 9  -2785431.61047  23000098.500    23000099.4044   23000107.1924
      3956.238        3082.783
  -1526381.284 9  -1180641.81348  20402650.746    20402651.3834   20402658.0714
      1611.066        1255.376
  -3145329.967 9  -2156820.311 9  20979717.222    20979717.811    20979724.101
      3357.566        2616.285
   -746089.993 9   -575869.77748  22022155.450    22022156.5264   22022162.4484
       548.338         427.276
    699886.035 9    540949.61348  20933495.032    20933495.8634   20933502.7214
     -1019.246        -794.218
  -2174782.959 9  -1679593.06348  20614226.753    20614227.3484   20614233.8204
      2247.440        1751.252
   -915313.743 9   -707016.41647  23273660.849    23273661.2094   23273668.2034
       801.200         624.312
  -3727124.638 9  -2886419.95346  24611276.621    24611277.3814   24611284.4694
      4817.574        3753.954
 96 10 16 15 40 59.9990000  0  8 21 17 28 26  6 23 22  3            -0.000683494
  -3717554.387 9  -2877831.87147  22977533.370    22977534.3084   22977542.0224
      3945.251        3074.222
  -1574617.817 9  -1218228.72948  20393471.654    20393472.2744   20393478.9354
      1600.872        1247.433
  -3245861.865 9  -2235156.859 9  20960586.555    20960587.264    20960593.536
      3340.752        2603.183
   -762262.850 9   -588472.02048  22019077.917    22019078.9804   22019084.8714
       526.032         409.895
    730672.519 9    564939.05448  20939353.498    20939354.3454   20939361.2444
     -1036.957        -808.018
  -2242020.906 9  -1731986.26748  20601431.734    20601432.3654   20601438.8774
      2231.265        1738.648
   -939123.500 9   -725569.49047  23269130.236    23269130.3904   23269137.3274
       782.457         609.707
  -3871626.684 9  -2999018.95346  24583778.685    24583779.5624   24583786.6764
      4812.119        3749.703
 96 10 16 15 41 29.9990000  0  8 21 17 28 26  6 23 22  3            -0.000707568
  -3835841.021 9  -2970003.27047  22955024.308    22955025.1754   22955032.7794
      3937.987        3068.561
  -1622582.670 9  -1255603.95248  20384344.218    20384344.8764   20384351.5224
      1594.212        1242.243
  -3345922.431 9  -2313126.135 9  20941545.711    20941546.410    20941552.662
      3327.462        2592.828
   -777794.021 9   -600574.24948  22016122.476    22016123.5854   22016129.4094
       506.803         394.911
    761958.341 9    589317.58848  20945306.997    20945307.8644   20945314.7684
     -1051.176        -819.098
  -2308811.748 9  -1784031.08748  20588721.784    20588722.4674   20588729.0624
      2218.946        1729.049
   -962410.013 9   -743714.84347  23264698.845    23264699.1824   23264706.0534
       767.429         597.997
  -4016003.249 9  -3111520.17646  24556304.747    24556305.5894   24556312.7934
      4810.324        3748.304
 96 10 16 15 41 59.9990000  0  8 21 17 28 26  6 23 22  3            -0.000731570
  -3953797.433 9  -3061917.34447  22932578.267    22932578.9124   22932586.3354
      3926.744        3059.801
  -1670239.364 9  -1292739.05048  20375275.479    20375276.1314   20375282.7914
      1583.837        1234.159
  -3445479.293 9  -2390702.913 9  20922600.737    20922601.402    20922607.639
      3310.639        2579.719
   -792643.326 9   -612145.15248  22013296.750    22013297.8684   22013303.6904
       484.165         377.271
    793764.127 9    614101.28748  20951359.505    20951360.3584   20951367.2344
     -1068.201        -832.364
  -2375129.647 9  -1835707.37348  20576101.912    20576102.6084   20576109.2214
      2203.272        1716.835
   -985140.137 9   -761426.65247  23260373.228    23260373.8044   23260380.6854
       748.823         583.498
  -4160210.195 9  -3223889.22346  24528863.128    24528863.8934   24528871.1604
      4804.374        3743.668
 96 10 16 15 42 29.9990000  0  8 21 17 28 26  6 23 22  3            -0.000755531
  -4071478.862 9  -3153617.15247  22910184.489    22910184.9784   22910192.2184
      3918.883        3053.675
  -1717637.171 9  -1329672.41848  20366255.982    20366256.6584   20366263.3184
      1576.105        1228.134
  -3544589.428 9  -2467931.590 9  20903740.761    20903741.416    20903747.620
      3296.812        2568.944
   -806872.034 9   -623232.47348  22010589.154    22010590.2754   22010596.0834
       464.625         362.045
    826021.823 9    639237.12648  20957498.052    20957498.8654   20957505.7014
     -1082.297        -843.348
  -2441039.533 9  -1887065.72448  20563559.743    20563560.4064   20563567.0064
      2190.671        1707.016
  -1007366.267 9   -778745.73647  23256144.023    23256144.2834   23256151.1884
       732.986         571.158
  -4304293.414 9  -3336161.86546  24501445.051    24501445.8084   24501453.1304
      4801.285        3741.261
 96 10 16 15 42 59.9990000  0  8 21 17 28 26  6 23 22  3            -0.000779467
  -4188907.719 9  -3245120.14247  22887838.832    22887839.0684   22887846.1734
      3909.280        3046.192
  -1764784.925 9  -1366410.93748  20357284.114    20357284.7794   20357291.4074
      1566.597        1220.725
  -3643260.663 9  -2544818.268 9  20884964.302    20884964.937    20884971.123
      3280.745        2556.425
   -820492.855 9   -633846.11548  22007997.255    22007998.3724   22008004.1754
       443.030         345.218
    858728.885 9    664723.11848  20963722.078    20963722.8964   20963729.7054
     -1098.724        -856.149
  -2506541.594 9  -1938106.29248  20551095.159    20551095.7554   20551102.3494
      2175.592        1695.266
  -1029091.883 9   -795674.81347  23252010.119    23252010.0384   23252017.0084
       714.907         557.070
  -4448260.497 9  -3448344.01146  24474049.005    24474049.8274   24474057.0994
      4796.132        3737.246
 96 10 16 15 43 29.9990000  0  8 21 17 28 26  6 23 22  3            -0.000803353
  -4306051.331 9  -3336400.87147  22865547.296    22865547.3784   22865554.4674
      3900.073        3039.018
  -1811652.962 9  -1402931.49048  20348365.452    20348366.1364   20348372.7204
      1557.782        1213.856
  -3741449.388 9  -2621328.965 9  20866279.645    20866280.280    20866286.432
      3264.943        2544.111
   -833466.133 9   -643955.17748  22005528.610    22005529.6754   22005535.4574
       421.817         328.689
    891927.194 9    690591.89648  20970039.604    20970040.4104   20970047.1754
     -1114.634        -868.546
  -2571590.454 9  -1988793.71948  20538716.740    20538717.3594   20538723.9794
      2160.745        1683.697
  -1050271.840 9   -812178.69147  23247979.486    23247979.6504   23247986.6104
       696.843         542.995
  -4592073.724 9  -3560406.26446  24446682.276    24446683.0724   24446690.3494
      4791.231        3733.427
 96 10 16 15 43 59.9990000  0  8 21 17 28 26  6 23 22  3            -0.000827199
  -4422912.081 9  -3427461.18247  22843309.359    22843309.4334   22843316.6444
      3890.674        3031.694
  -1858255.366 9  -1439245.05948  20339497.344    20339498.0234   20339504.5884
      1549.091        1207.084
  -3839160.835 9  -2697467.759 9  20847685.797    20847686.427    20847692.571
      3249.117        2531.779
   -845812.387 9   -653575.64648  22003179.152    22003180.2464   22003186.0564
       401.266         312.675
    925597.027 9    716828.09348  20976446.856    20976447.6554   20976454.3934
     -1130.212        -880.685
  -2636192.057 9  -2039132.63448  20526423.414    20526424.1024   20526430.7464
      2145.909        1672.137
  -1070911.445 9   -828261.51447  23244052.207    23244052.1514   23244059.0714
       679.091         529.162
  -4735742.654 9  -3672356.08046  24419343.018    24419343.8404   24419351.1344
      4786.744        3729.930
 96 10 16 15 44 29.9990000  0  8 21 17 28 26  6 23 22  3            -0.000851093
  -4539494.413 9  -3518304.55647  22821124.168    22821124.4304   22821131.8154
      3881.400        3024.468
  -1904595.905 9  -1475354.58048  20330679.044    20330679.7294   20330686.3094
      1540.207        1200.161
  -3936390.893 9  -2773231.446 9  20829183.491    20829184.187    20829190.315
      3232.747        2519.024
   -857535.010 9   -662710.17448  22000948.425    22000949.5204   22000955.3434
       380.112         296.191
    959752.051 9    743442.36448  20982946.397    20982947.1794   20982953.8954
     -1146.971        -893.744
  -2700338.850 9  -2089117.15048  20514216.721    20514217.4214   20514224.0954
      2130.363        1660.023
  -1091011.173 9   -843923.66347  23240227.406    23240227.3584   23240234.2614
       660.876         514.968
  -4879271.502 9  -3784196.73146  24392030.348    24392031.2534   24392038.5064
      4781.854        3726.120
 96 10 16 15 44 59.9990000  0  8 21 17 28 26  6 23 22  3            -0.000874882
  -4655797.471 9  -3608930.31547  22798991.954    22798992.5964   22799000.1444
      3872.282        3017.363
  -1950666.978 9  -1511254.12948  20321912.066    20321912.7194   20321919.3094
      1531.367        1193.273
  -4033126.570 9  -2848609.899 9  20810775.341    20810776.023    20810782.135
      3216.526        2506.384
   -868620.372 9   -671348.13248  21998838.960    21998840.0584   21998845.8914
       359.287         279.964
    994416.926 9    770453.91948  20989542.963    20989543.7544   20989550.4604
     -1163.689        -906.771
  -2764009.220 9  -2138730.42848  20502100.744    20502101.3884   20502108.0794
      2114.629        1647.763
  -1110568.936 9   -859163.50047  23236505.430    23236505.6944   23236512.5004
       643.259         501.241
  -5022654.574 9  -3895923.80446  24364745.438    24364746.3844   24364753.6144
      4777.228        3722.515
 96 10 16 15 45 29.9990000  0  8 21 17 28 26  6 23 22  3            -0.000898649
  -4771829.126 9  -3699344.58347  22776911.596    22776912.4384   22776920.1114
      3861.957        3009.317
  -1996470.837 9  -1546945.45448  20313195.919    20313196.5654   20313203.1324
      1520.937        1185.146
  -4129384.061 9  -2923615.742 9  20792458.143    20792458.861    20792464.960
      3199.339        2492.991
   -879090.111 9   -679506.38548  21996846.680    21996847.7724   21996853.6094
       337.494         262.982
   1029569.698 9    797845.65648  20996232.370    20996233.1374   20996239.8284
     -1181.120        -920.353
  -2827216.488 9  -2187982.84648  20490072.780    20490073.4324   20490080.1114
      2097.943        1634.761
  -1129605.486 9   -873997.18647  23232882.870    23232883.1514   23232890.0094
       624.658         486.746
  -5165901.343 9  -4007544.64946  24337486.517    24337487.4574   24337494.6394
      4771.359        3717.942
 96 10 16 15 45 59.9990000  0  8 21 17 28 26  6 23 22  3            -0.000922388
  -4887574.278 9  -3789535.61047  22754885.969    22754886.9104   22754894.5954
      3854.147        3003.231
  -2041970.016 9  -1582399.37048  20304537.727    20304538.3934   20304544.9084
      1512.080        1178.244
  -4225139.149 9  -2998230.103 9  20774236.569    20774237.294    20774243.382
      3184.031        2481.063
   -888919.059 9   -687165.31848  21994976.256    21994977.3884   21994983.2034
       317.327         247.268
   1065233.429 9    825635.53948  21003018.963    21003019.7664   21003026.4194
     -1196.839        -932.602
  -2889934.851 9  -2236854.30048  20478137.833    20478138.5224   20478145.1564
      2083.007        1623.122
  -1148106.729 9   -888413.76547  23229362.056    23229362.4364   23229369.3604
       608.387         474.068
  -5308989.233 9  -4119041.70846  24310257.921    24310258.7394   24310265.9364
      4767.427        3714.878
 96 10 16 15 46 29.9990000  0  8 21 17 28 26  6 23 22  3            -0.000946109
  -5003072.417 9  -3879534.15047  22732907.649    22732908.4404   22732915.9894
      3846.289        2997.108
  -2087188.035 9  -1617634.19748  20295933.062    20295933.7104   20295940.2174
      1503.082        1171.233
  -4320415.782 9  -3072471.640 9  20756106.070    20756106.759    20756112.865
      3168.362        2468.854
   -898111.665 9   -694328.39748  21993226.920    21993228.0694   21993233.8684
       296.097         230.725
   1101390.873 9    853810.13748  21009899.568    21009900.3404   21009906.9654
     -1212.857        -945.083
  -2952183.403 9  -2285359.66448  20466292.332    20466293.0544   20466299.6324
      2067.691        1611.188
  -1166098.454 9   -902433.30447  23225938.291    23225938.7204   23225945.7164
       591.752         461.105
  -5451939.844 9  -4230431.78146  24283055.499    24283056.1464   24283063.3664
      4763.248        3711.622
 96 10 16 15 46 59.9990000  0  8 21 17 28 26  6 23 22  3            -0.000969813
  -5118319.714 9  -3969337.23247  22710977.156    22710977.7514   22710985.0854
      3837.859        2990.539
  -2132125.681 9  -1652650.55648  20287381.700    20287382.3854   20287388.9044
      1493.977        1164.138
  -4415215.527 9  -3146341.579 9  20738066.291    20738066.989    20738073.097
      3152.763        2456.698
   -906662.239 9   -700991.19348  21991599.790    21991600.9554   21991606.7714
       275.288         214.510
   1138025.347 9    882356.44348  21016870.882    21016871.6604   21016878.2894
     -1228.088        -956.952
  -3013974.271 9  -2333508.39948  20454533.964    20454534.6404   20454541.2594
      2052.842        1599.617
  -1183588.608 9   -916062.01547  23222609.917    23222610.4774   23222617.5284
       575.373         448.343
  -5594766.918 9  -4341725.60146  24255876.368    24255877.0644   24255884.2324
      4759.587        3708.769
 96 10 16 15 47 29.9990000  0  8 21 17 28 26  6 23 22  3            -0.000993527
  -5233339.878 9  -4058963.31247  22689089.880    22689090.2424   22689097.3904
      3828.627        2983.346
  -2176825.325 9  -1687481.45448  20278875.663    20278876.3254   20278882.8724
      1484.551        1156.793
  -4509578.303 9  -3219871.018 9  20720109.690    20720110.376    20720116.483
      3136.524        2444.045
   -914620.179 9   -707192.19548  21990085.447    21990086.6514   21990092.4684
       253.843         197.800
   1175078.823 9    911229.24848  21023921.909    21023922.6994   21023929.3624
     -1243.736        -969.145
  -3075349.695 9  -2381333.40548  20442854.566    20442855.2494   20442861.9604
      2037.395        1587.581
  -1200615.683 9   -929329.88547  23219369.802    23219370.3134   23219377.3854
       558.402         435.118
  -5737517.498 9  -4452959.82446  24228711.906    24228712.5944   24228719.6934
      4755.698        3705.739
 96 10 16 15 47 59.9990000  0  8 21 17 28 26  6 23 22  3            -0.001017206
  -5348056.621 9  -4148352.97147  22667260.208    22667260.4484   22667267.4194
      3818.802        2975.690
  -2221230.376 9  -1722082.80748  20270425.656    20270426.3474   20270432.8904
      1475.605        1149.822
  -4603433.240 9  -3293004.743 9  20702249.699    20702250.397    20702256.498
      3120.164        2431.297
   -921923.458 9   -712883.07648  21988695.737    21988696.9334   21988702.7564
       232.763         181.374
   1212621.322 9    940483.11548  21031065.964    21031066.8084   21031073.5064
     -1259.328        -981.295
  -3136249.725 9  -2428787.98248  20431265.645    20431266.3584   20431273.1044
      2022.464        1575.946
  -1217118.937 9   -942189.58647  23216229.450    23216229.8594   23216236.9424
       541.528         421.970
  -5880135.400 9  -4564090.64946  24201572.455    24201573.3034   24201580.4604
      4751.720        3702.639
 96 10 16 15 48 29.9980000  0  8 21 17 28 26  6 23 22  3            -0.001040853
  -5462474.158 9  -4237509.49247  22645487.282    22645487.4764   22645494.3974
      3809.316        2968.298
  -2265379.709 9  -1756484.90048  20262024.343    20262025.0304   20262031.5294
      1467.832        1143.765
  -4696801.742 9  -3365759.428 9  20684482.299    20684482.990    20684489.085
      3104.689        2419.238
   -928610.377 9   -718093.67448  21987423.236    21987424.4174   21987430.2904
       213.353         166.249
   1250626.410 9    970097.43248  21038298.072    21038298.9484   21038305.7154
     -1274.335        -992.988
  -3196714.985 9  -2475903.77148  20419759.499    20419760.2604   20419766.8904
      2008.763        1565.270
  -1233118.671 9   -954656.93047  23213185.140    23213185.2574   23213192.3014
       525.334         409.351
  -6022631.867 9  -4675126.86746  24174456.302    24174457.1824   24174464.3134
      4748.388        3700.043
 96 10 16 15 48 59.9980000  0  8 21 17 28 26  6 23 22  3            -0.001064465
  -5576572.302 9  -4326417.12847  22623774.935    22623775.2524   22623782.1964
      3797.882        2959.389
  -2309267.408 9  -1790683.11348  20253672.806    20253673.5174   20253679.9704
      1458.554        1136.535
  -4789677.641 9  -3438130.262 9  20666808.608    20666809.316    20666815.406
      3087.581        2405.907
   -934701.770 9   -722840.22448  21986264.063    21986265.2574   21986271.1894
       193.397         150.699
   1289119.785 9   1000092.23848  21045623.152    21045624.0334   21045630.8264
     -1291.278       -1006.191
  -3256740.783 9  -2522677.11648  20408337.060    20408337.7854   20408344.3594
      1993.494        1553.372
  -1248601.933 9   -966721.83647  23210238.527    23210238.9574   23210246.0064
       507.419         395.391
  -6164994.929 9  -4786059.11546  24147365.531    24147366.3334   24147373.5414
      4742.892        3695.760
 96 10 16 15 49 29.9980000  0  8 21 17 28 26  6 23 22  3            -0.001088048
  -5690366.619 9  -4415088.02047  22602120.248    22602120.8284   22602127.8354
      3788.039        2951.719
  -2352913.873 9  -1824693.35748  20245367.157    20245367.9044   20245374.3434
      1450.663        1130.387
  -4882072.882 9  -3510126.557 9  20649226.396    20649227.121    20649233.186
      3071.557        2393.421
   -940230.150 9   -727148.06448  21985212.050    21985213.2534   21985219.2114
       174.647         136.089
   1328093.455 9   1030461.29948  21053039.652    21053040.4854   21053047.3174
     -1307.493       -1018.826
  -3316345.987 9  -2569122.73448  20396994.553    20396995.2504   20397001.8744
      1979.891        1542.772
  -1263586.038 9   -978397.78447  23207387.235    23207387.6114   23207394.6564
       491.015         382.609
  -6307218.430 9  -4896882.62146  24120301.220    24120302.0904   24120309.3264
      4738.094        3692.021
 96 10 16 15 49 59.9980000  0  8 21 17 28 26  6 23 22  3            -0.001111577
  -5803855.476 9  -4503520.89647  22580523.755    22580524.5934   22580531.6664
      3777.517        2943.520
  -2396303.234 9  -1858503.25848  20237110.435    20237111.1544   20237117.6354
      1441.344        1123.125
  -4973969.181 9  -3581734.067 9  20631739.123    20631739.862    20631745.911
      3054.282        2379.960
   -945180.723 9   -731005.66248  21984269.937    21984271.1974   21984277.1724
       154.737         120.574
   1367569.392 9   1061221.73748  21060551.690    21060552.5384   21060559.3754
     -1324.745       -1032.269
  -3375539.838 9  -2615247.81848  20385730.229    20385731.0344   20385737.7024
      1965.797        1531.790
  -1278058.750 9   -989675.24847  23204633.182    23204633.5104   23204640.6284
       473.217         368.740
  -6449265.615 9  -5007568.73246  24093270.569    24093271.4004   24093278.6794
      4731.096        3686.568
 96 10 16 15 50 29.9980000  0  8 21 17 28 26  6 23 22  3            -0.001135067
  -5917079.067 9  -4591747.06947  22558978.009    22558978.8954   22558986.0304
      3768.854        2936.769
  -2439442.322 9  -1892118.14048  20228901.340    20228902.0614   20228908.5484
      1432.633        1116.337
  -5065385.620 9  -3652967.660 9  20614343.202    20614343.912    20614349.960
      3038.233        2367.454
   -949566.108 9   -734422.85548  21983435.407    21983436.6884   21983442.6784
       135.668         105.715
   1407521.917 9   1092353.53848  21068154.409    21068155.2934   21068162.1254
     -1340.474       -1044.525
  -3434346.669 9  -2661071.32548  20374539.689    20374540.5234   20374547.1534
      1952.597        1521.504
  -1292031.378 9  -1000563.02847  23201974.387    23201974.5604   23201981.7284
       456.486         355.703
  -6591140.046 9  -5118120.23446  24066272.541    24066273.5564   24066280.9054
      4725.454        3682.172
 96 10 16 15 50 59.9980000  0  8 21 17 28 26  6 23 22  3            -0.001158508
  -6030017.372 9  -4679750.93847  22537486.773    22537487.5094   22537494.6934
      3761.060        2930.696
  -2482280.296 9  -1925498.38748  20220749.580    20220750.2854   20220756.7374
      1423.862        1109.503
  -5156287.115 9  -3723799.999 9  20597045.208    20597045.954    20597052.021
      3022.486        2355.184
   -953336.814 9   -737361.07948  21982717.922    21982719.1424   21982725.1164
       116.284          90.611
   1447960.681 9   1123864.22548  21075849.682    21075850.5684   21075857.4104
     -1354.618       -1055.546
  -3492724.038 9  -2706560.18348  20363430.938    20363431.6934   20363438.2894
      1939.872        1511.589
  -1305477.270 9  -1011040.37147  23199415.516    23199415.8944   23199423.0764
       440.644         343.359
  -6732821.651 9  -5228521.47646  24039311.244    24039312.4294   24039319.7724
      4720.553        3678.353
 96 10 16 15 51 29.9980000  0  8 21 17 28 26  6 23 22  3            -0.001181927
  -6142712.589 9  -4767565.39348  22516041.822    22516042.4044   22516049.6204
      3753.119        2924.508
  -2524836.491 9  -1958659.06748  20212651.448    20212652.1414   20212658.5624
      1414.361        1102.099
  -5246701.946 9  -3794253.120 9  20579839.848    20579840.602    20579846.674
      3006.287        2342.561
   -956501.803 9   -739827.31948  21982115.653    21982116.8884   21982122.8424
        95.833          74.675
   1488824.953 9   1155706.48148  21083625.898    21083626.7894   21083633.6584
     -1368.529       -1066.386
  -3550702.172 9  -2751737.95348  20352398.044    20352398.7954   20352405.3704
      1926.334        1501.039
  -1318443.434 9  -1021143.90547  23196948.388    23196948.6204   23196955.7584
       424.901         331.092
  -6874345.136 9  -5338799.52646  24012380.354    24012381.4094   24012388.7624
      4715.473        3674.395
 96 10 16 15 51 59.9980000  0  8 21 17 28 26  6 23 22  3            -0.001205337
  -6255166.461 9  -4855191.78547  22494642.732    22494643.1824   22494650.4304
      3744.708        2917.954
  -2567098.965 9  -1991590.87048  20204609.172    20204609.8824   20204616.3184
      1404.323        1094.278
  -5336625.688 9  -3864323.570 9  20562727.936    20562728.694    20562734.771
      2989.632        2329.583
   -959046.211 9   -741809.98848  21981631.504    21981632.7344   21981638.6884
        74.784          58.273
   1530100.590 9   1187869.28248  21091480.349    21091481.2844   21091488.1784
     -1382.235       -1077.066
  -3608257.320 9  -2796586.12048  20341445.600    20341446.3924   20341453.0264
      1911.534        1489.507
  -1330934.194 9  -1030876.98847  23194571.323    23194571.7034   23194578.8834
       408.859         318.591
  -7015716.259 9  -5448958.82946  23985478.409    23985479.3704   23985486.6714
      4710.328        3670.385
 96 10 16 15 52 29.9980000  0  8 21 17 28 26  6 23 22  3            -0.001228743
  -6367358.253 9  -4942613.96247  22473293.268    22473293.7544   22473301.0824
      3734.954        2910.354
  -2609063.683 9  -2024290.66048  20196623.527    20196624.2754   20196630.7244
      1393.960        1086.203
  -5426045.683 9  -3934001.492 9  20545711.849    20545712.624    20545718.721
      2972.130        2315.945
   -960956.941 9   -743298.88348  21981267.854    21981269.1404   21981275.0644
        53.176          41.436
   1571786.950 9   1220352.12548  21099412.929    21099413.9424   21099420.8734
     -1396.438       -1088.134
  -3665356.592 9  -2841079.06248  20330580.033    20330580.8134   20330587.4044
      1895.461        1476.983
  -1342942.531 9  -1040234.16047  23192286.366    23192286.6254   23192293.8034
       392.241         305.642
  -7156939.065 9  -5559002.57146  23958604.584    23958605.5394   23958612.8764
      4705.119        3666.326
 96 10 16 15 52 59.9980000  0  8 21 17 28 26  6 23 22  3            -0.001252161
  -6479276.435 9  -5029822.93147  22451995.645    22451996.3664   22452003.7494
      3727.618        2904.637
  -2650749.216 9  -2056772.90548  20188691.088    20188691.8254   20188698.2604
      1386.641        1080.499
  -5514963.497 9  -4003288.104 9  20528791.325    20528792.127    20528798.248
      2957.106        2304.238
   -962251.992 9   -744308.03248  21981021.495    21981022.7494   21981028.6634
        34.830          27.140
   1613875.422 9   1253148.30448  21107422.070    21107423.1084   21107430.0924
     -1408.258       -1097.344
  -3721991.681 9  -2885210.30148  20319802.814    20319803.5194   20319810.1034
      1881.846        1466.374
  -1354483.938 9  -1049227.48847  23190089.904    23190090.3754   23190097.5814
       378.531         294.959
  -7298028.451 9  -5668942.34646  23931756.122    23931757.1134   23931764.5114
      4702.023        3663.914
 96 10 16 15 53 29.9980000  0  8 21 17 28 26  6 23 22  3            -0.001275625
  -6590987.197 9  -5116870.28547  22430737.503    22430738.4594   22430745.8274
      3720.363        2898.984
  -2692241.402 9  -2089104.47948  20180795.404    20180796.1264   20180802.5714
      1380.244        1075.515
  -5603444.560 9  -4072234.390 9  20511953.910    20511954.734    20511960.866
      2942.216        2292.636
   -963026.363 9   -744911.45648  21980874.153    21980875.4574   21980881.3064
        17.436          13.586
   1656316.504 9   1286219.24248  21115498.374    21115499.3964   21115506.4314
     -1420.676       -1107.020
  -3778239.210 9  -2929039.54948  20309099.252    20309099.9814   20309106.5394
      1868.662        1456.100
  -1365627.387 9  -1057910.73047  23187969.402    23187969.8254   23187977.0754
       364.795         284.256
  -7439032.616 9  -5778815.71146  23904923.920    23904924.9564   23904932.3574
      4698.943        3661.514
 96 10 16 15 53 59.9980000  0  8 21 17 28 26  6 23 22  3            -0.001299098
  -6702442.020 9  -5203718.20248  22409528.246    22409529.3064   22409536.5714
      3711.053        2891.730
  -2733513.400 9  -2121264.48348  20172941.588    20172942.2954   20172948.7764
      1372.410        1069.410
  -5691440.515 9  -4140802.668 9  20495208.782    20495209.649    20495215.807
      2925.338        2279.484
   -963248.084 9   -745084.24548  21980832.060    21980833.3184   21980839.1224
        -1.464          -1.141
   1699170.704 9   1319612.09648  21123653.288    21123654.3204   21123661.3904
     -1435.169       -1118.313
  -3834065.686 9  -2972540.70048  20298475.828    20298476.5764   20298483.1194
      1854.420        1445.003
  -1376318.255 9  -1066241.30047  23185935.214    23185935.4384   23185942.7344
       349.018         271.962
  -7579908.410 9  -5888589.05446  23878116.185    23878117.2094   23878124.5504
      4693.880        3657.569
 96 10 16 15 54 29.9980000  0  8 21 17 28 26  6 23 22  3            -0.001322552
  -6813618.583 9  -5290349.29248  22388372.149    22388373.1574   22388380.2724
      3700.123        2883.213
  -2774555.652 9  -2153245.45848  20165131.504    20165132.2104   20165138.7154
      1362.890        1061.992
  -5778932.580 9  -4208978.304 9  20478559.671    20478560.452    20478566.616
      2906.792        2265.033
   -962902.339 9   -744814.84348  21980897.919    21980899.1414   21980904.9144
       -22.190         -17.291
   1742465.136 9   1353347.98448  21131892.012    21131892.9934   21131900.0854
     -1451.774       -1131.252
  -3889479.766 9  -3015720.50448  20287930.937    20287931.6874   20287938.1954
      1839.119        1433.080
  -1386531.009 9  -1074199.31647  23183991.671    23183992.1094   23183999.3464
       331.225         258.097
  -7720634.964 8  -5998246.10146  23851336.772    23851337.7164   23851345.1954
      4687.317        3652.455
 96 10 16 15 54 59.9980000  0  8 21 17 28 26  6 23 22  3            -0.001345982
  -6924528.382 9  -5376772.51448  22367266.981    22367267.8444   22367274.7914
      3693.033        2877.688
  -2815359.919 9  -2185041.00048  20157366.699    20157367.4344   20157373.9614
      1356.525        1057.032
  -5865922.025 9  -4276762.292 9  20462006.102    20462006.898    20462013.070
      2891.722        2253.290
   -961987.934 9   -744102.33948  21981071.859    21981073.1404   21981078.9384
       -39.635         -30.884
   1786209.687 9   1387434.61348  21140216.405    21140217.3844   21140224.4724
     -1465.281       -1141.777
  -3944488.739 9  -3058584.64148  20277463.167    20277463.8524   20277470.3664
      1827.557        1424.070
  -1396269.719 9  -1081787.94847  23182138.374    23182138.9294   23182146.1054
       317.218         247.183
  -7861209.605 9  -6107784.77646  23824586.236    23824587.2324   23824594.6494
      4683.518        3649.495
 96 10 16 15 55 29.9980000  0  8 21 17 28 26  6 23 22  3            -0.001369358
  -7035149.214 9  -5462970.56148  22346216.752    22346217.5134   22346224.3624
      3682.432        2869.428
  -2855899.214 9  -2216630.06248  20149652.316    20149653.0564   20149659.6304
      1346.757        1049.421
  -5952385.689 9  -4344136.573 9  20445552.604    20445553.404    20445559.598
      2873.283        2238.922
   -960468.220 9   -742918.15948  21981361.046    21981362.3104   21981368.0864
       -61.210         -47.696
   1830429.608 9   1421891.66748  21148631.270    21148632.2334   21148639.3234
     -1481.918       -1154.741
  -3999086.706 9  -3101128.51348  20267073.468    20267074.2264   20267080.7354
      1812.925        1412.669
  -1405511.816 9  -1088989.60347  23180379.878    23180380.2094   23180387.3954
       299.741         233.564
  -8001601.130 9  -6217180.76146  23797870.525    23797871.6034   23797879.0484
      4676.875        3644.318
 96 10 16 15 55 59.9980000  0  8 21 17 28 26  6 23 22  3            -0.001392687
  -7145490.286 9  -5548950.62148  22325219.754    22325220.3484   22325227.2104
      3673.187        2862.224
  -2896172.681 9  -2248011.99848  20141988.525    20141989.2584   20141995.8714
      1337.581        1042.271
  -6038335.772 9  -4411110.669 9  20429196.807    20429197.642    20429203.825
      2856.331        2225.712
   -958322.709 9   -741246.35248  21981769.336    21981770.5984   21981776.3774
       -82.108         -63.980
   1875102.200 9   1456701.44148  21157132.215    21157133.2074   21157140.2714
     -1496.651       -1166.222
  -4053277.325 9  -3143354.97548  20256761.285    20256762.0874   20256768.5774
      1799.335        1402.079
  -1414274.874 9  -1095817.99047  23178712.205    23178712.7244   23178719.9374
       284.041         221.331
  -8141826.694 9  -6326447.42246  23771186.376    23771187.5574   23771194.9344
      4671.141        3639.850
 96 10 16 15 56 29.9980000  0  8 21 17 28 26  6 23 22  3            -0.001415974
  -7255552.690 9  -5634713.53148  22304275.553    22304276.1274   22304283.0884
      3663.600        2854.753
  -2936163.182 9  -2279173.43748  20134378.522    20134379.3114   20134385.9304
      1327.751        1034.611
  -6123776.889 9  -4477688.166 9  20412937.914    20412938.737    20412944.932
      2839.039        2212.238
   -955552.380 9   -739087.66748  21982296.487    21982297.7574   21982303.5494
      -103.038         -80.289
   1920215.495 9   1491854.62248  21165717.051    21165718.0134   21165725.0624
     -1511.488       -1177.783
  -4107054.163 9  -3185259.00748  20246527.927    20246528.7444   20246535.1534
      1785.036        1390.937
  -1422564.213 9  -1102277.24347  23177134.970    23177135.4144   23177142.5394
       268.127         208.930
  -8281875.641 8  -6435576.45846  23744535.677    23744537.1594   23744544.5074
      4664.777        3634.891
 96 10 16 15 56 59.9980000  0  8 21 17 28 26  6 23 22  3            -0.001439249
  -7365357.541 9  -5720275.75848  22283380.140    22283380.8934   22283387.9784
      3655.676        2848.579
  -2975887.345 9  -2310127.33348  20126819.304    20126820.0944   20126826.6804
      1319.594        1028.255
  -6208726.687 9  -4543882.818 9  20396772.453    20396773.338    20396779.506
      2823.122        2199.835
   -952197.642 9   -736473.60048  21982934.886    21982936.1434   21982941.9644
      -121.665         -94.804
   1965737.478 9   1527326.26848  21174379.655    21174380.6134   21174387.6304
     -1524.340       -1187.797
  -4160427.068 9  -3226848.28548  20236371.493    20236372.2354   20236378.6194
      1772.232        1380.960
  -1430419.109 9  -1108397.96547  23175640.229    23175640.7734   23175647.8524
       254.445         198.269
  -8421753.638 8  -6544572.28646  23717917.857    23717919.3644   23717926.6794
      4659.210        3630.553
 96 10 16 15 57 29.9980000  0  8 21 17 28 26  6 23 22  3            -0.001462489
  -7474870.690 9  -5805610.68648  22262540.352    22262541.2034   22262548.3634
      3645.194        2840.411
  -3015313.948 9  -2340849.37448  20119316.713    20119317.4864   20119324.0534
      1308.797        1019.842
  -6293141.462 9  -4609660.571 9  20380708.867    20380709.736    20380715.907
      2804.398        2185.245
   -948227.076 9   -733379.67248  21983690.416    21983691.6974   21983697.5544
      -143.013        -111.439
   2011696.884 9   1563138.75848  21183125.445    21183126.4004   21183133.4594
     -1539.625       -1199.708
  -4213360.644 9  -3268095.23548  20226298.482    20226299.2774   20226305.7234
      1756.424        1368.642
  -1437810.322 9  -1114157.37347  23174233.966    23174234.3304   23174241.3584
       238.210         185.618
  -8561410.287 8  -6653395.63446  23691342.655    23691343.6064   23691350.8334
      4651.178        3624.294
 96 10 16 15 57 59.9980000  0  8 21 17 28 26  6 23 22  3            -0.001485721
  -7584104.990 9  -5890728.32148  22241753.745    22241754.6094   22241761.7474
      3635.878        2833.152
  -3054446.745 9  -2371342.46748  20111869.980    20111870.7674   20111877.3614
      1298.964        1012.180
  -6377025.635 9  -4675024.865 9  20364746.300    20364747.120    20364753.274
      2786.662        2171.425
   -943663.352 9   -729823.53748  21984558.769    21984560.1424   21984566.0164
      -162.197        -126.387
   2058069.456 9   1599273.20048  21191949.839    21191950.8324   21191957.9094
     -1553.068       -1210.183
  -4265850.449 9  -3308996.38848  20216309.942    20216310.7704   20216317.2374
      1741.841        1357.279
  -1444748.559 9  -1119563.81547  23172913.374    23172914.0254   23172921.1164
       223.048         173.804
  -8700855.700 8  -6762054.37046  23664807.251    23664808.0614   23664815.1944
      4644.020        3618.717
 96 10 16 15 58 29.9980000  0  8 21 17 28 26  6 23 22  3            -0.001508938
  -7693045.469 9  -5975617.00548  22221023.209    22221023.9904   22221031.0064
      3628.278        2827.230
  -3093283.179 9  -2401604.63648  20104479.702    20104480.4844   20104487.0864
      1291.734        1006.546
  -6460362.544 9  -4739962.723 9  20348887.862    20348888.666    20348894.803
      2770.555        2158.874
   -938521.213 9   -725816.69848  21985537.278    21985538.6874   21985544.5664
      -179.167        -139.611
   2104857.130 9   1635731.09248  21200853.259    21200854.2484   21200861.3344
     -1564.660       -1219.216
  -4317895.323 9  -3349550.83548  20206406.151    20206406.9894   20206413.4334
      1729.270        1347.483
  -1451210.582 9  -1124599.18547  23171683.735    23171684.3284   23171691.4264
       209.348         163.128
  -8840081.591 8  -6870542.07546  23638313.214    23638314.2214   23638321.3574
      4639.070        3614.860
 96 10 16 15 58 59.9980000  0  8 21 17 28 26  6 23 22  3            -0.001532168
  -7801736.950 9  -6060311.67248  22200340.062    22200340.7334   22200347.6224
      3618.017        2819.234
  -3131880.986 9  -2431680.85948  20097134.784    20097135.5834   20097142.1824
      1281.583         998.636
  -6543187.882 9  -4804501.954 9  20333126.746    20333127.558    20333133.678
      2751.328        2143.892
   -932838.679 9   -721388.77548  21986618.646    21986620.0724   21986625.9444
      -199.674        -155.590
   2152015.476 9   1672477.81948  21209827.203    21209828.2254   21209835.3204
     -1579.047       -1230.426
  -4369534.166 9  -3389788.89448  20196579.624    20196580.4624   20196586.8964
      1713.596        1335.270
  -1457238.914 9  -1129296.60847  23170536.777    23170537.1354   23170544.2944
       192.543         150.034
  -8979131.394 8  -6978892.55546  23611852.707    23611853.8694   23611861.0064
      4631.159        3608.695
 96 10 16 15 59 29.9980000  0  8 21 17 28 26  6 23 22  3            -0.001555402
  -7910177.198 9  -6144810.56648  22179704.685    22179705.2654   22179712.0884
      3611.613        2814.244
  -3170240.644 9  -2461571.51148  20089835.201    20089835.9814   20089842.5664
      1276.073         994.343
  -6625505.394 9  -4868645.478 9  20317462.272    20317463.085    20317469.185
      2736.878        2132.632
   -926599.041 9   -716526.73348  21987806.007    21987807.4404   21987813.3164
      -215.865        -168.206
   2199537.854 9   1709508.21148  21218870.421    21218871.4514   21218878.5724
     -1588.769       -1238.002
  -4420769.901 9  -3429712.84948  20186829.805    20186830.6334   20186837.1074
      1702.530        1326.647
  -1462820.832 9  -1133646.18547  23169474.595    23169474.9294   23169482.0844
       179.810         140.112
  -9118018.866 8  -7087116.54746  23585423.042    23585424.4584   23585431.6864
      4628.322        3606.485
 96 10 16 15 59 59.9980000  0  8 21 17 28 26  6 23 22  3            -0.001578649
  -8018378.834 9  -6229123.52848  22159114.570    22159115.1854   22159121.9924
      3601.599        2806.441
  -3208399.166 9  -2491305.43048  20082573.877    20082574.6654   20082581.2374
      1267.548         987.700
  -6707352.127 9  -4932422.156 9  20301887.371    20301888.203    20301894.287
      2719.287        2118.925
   -919841.209 9   -711260.91248  21989092.013    21989093.4254   21989099.2704
      -234.904        -183.042
   2247394.714 9   1746799.23748  21227977.313    21227978.3424   21227985.4444
     -1602.263       -1248.517
  -4471647.639 9  -3469357.84248  20177148.055    20177148.9164   20177155.4214
      1689.064        1316.154
  -1467978.816 9  -1137665.42147  23168492.986    23168493.4324   23168500.5814
       163.837         127.665
  -9256778.758 9  -7195241.13246  23559017.971    23559019.1944   23559026.5244
      4622.014        3601.569
 96 10 16 16  0 29.9980000  0  8 21 17 28 26  6 23 22  3            -0.001601878
  -8126309.927 9  -6313225.67748  22138575.827    22138576.5464   22138583.4044
      3592.850        2799.623
  -3246340.728 9  -2520870.28948  20075353.848    20075354.6674   20075361.2134
      1260.931         982.544
  -6788700.088 9  -4995810.184 9  20286407.426    20286408.230    20286414.290
      2703.009        2106.241
   -912538.186 9   -705570.26248  21990481.712    21990483.1384   21990488.9744
      -252.844        -197.021
   2295648.756 9   1784399.74248  21237159.756    21237160.7984   21237167.9014
     -1615.609       -1258.916
  -4522147.896 9  -3508708.69448  20167538.145    20167539.0624   20167545.5274
      1676.699        1306.519
  -1472695.732 9  -1141340.96547  23167595.187    23167595.8364   23167603.0504
       149.934         116.832
  -9395375.532 9  -7303238.60946  23532643.960    23532645.1364   23532652.3644
      4616.804        3597.510
 96 10 16 16  0 59.9980000  0  8 21 17 28 26  6 23 22  3            -0.001625073
  -8233944.332 9  -6397096.64748  22118093.464    22118094.3594   22118101.3094
      3581.957        2791.135
  -3284044.116 9  -2550249.56148  20068179.154    20068179.9634   20068186.5334
      1251.707         975.356
  -6869530.164 9  -5058794.662 9  20271026.002    20271026.802    20271032.840
      2684.809        2092.059
   -904669.574 9   -699438.89248  21991979.121    21991980.5234   21991986.3674
      -272.496        -212.335
   2344336.512 9   1822338.21748  21246424.702    21246425.8014   21246432.8964
     -1631.109       -1270.994
  -4572249.983 9  -3547749.27948  20158004.094    20158004.9694   20158011.4274
      1662.760        1295.657
  -1476976.456 9  -1144676.61647  23166780.447    23166781.2514   23166788.4954
       134.452         104.768
  -9533784.096 9  -7411089.42946  23506305.758    23506306.8714   23506314.1914
      4609.702        3591.976
 96 10 16 16  1 29.9980000  0  8 21 17 28 26  6 23 22  3            -0.001648221
  -8341261.355 9  -6480720.31048  22097671.601    22097672.5674   22097679.6174
      3573.526        2784.566
  -3321488.422 9  -2579426.95048  20061053.798    20061054.5914   20061061.1624
      1245.503         970.522
  -6949827.026 9  -5121363.650 9  20255746.004    20255746.845    20255752.857
      2669.168        2079.871
   -896234.000 9   -692865.74048  21993584.431    21993585.8104   21993591.6354
      -288.837        -225.068
   2393485.596 9   1860636.16148  21255777.487    21255778.6004   21255785.6704
     -1644.609       -1281.514
  -4621956.795 9  -3586481.86248  20148545.176    20148546.0884   20148552.5364
      1651.920        1287.210
  -1480803.539 9  -1147658.79147  23166052.374    23166052.9904   23166060.2064
       121.619          94.768
  -9672001.684 9  -7518791.44646  23480003.809    23480004.8914   23480012.1664
      4605.517        3588.715
 96 10 16 16  1 59.9980000  0  8 21 17 28 26  6 23 22  3            -0.001671350
  -8448309.071 9  -6564134.11348  22077301.183    22077302.0894   22077309.1414
      3563.349        2776.636
  -3358713.386 9  -2608433.42348  20053970.104    20053970.9304   20053977.5004
      1236.341         963.383
  -7029622.277 9  -5183541.773 9  20240561.444    20240562.335    20240568.333
      2650.838        2065.588
   -887285.907 9   -685893.21348  21995287.230    21995288.6264   21995294.4424
      -307.456        -239.576
   2443066.544 9   1899270.62348  21265212.525    21265213.5754   21265220.6324
     -1660.332       -1293.765
  -4671311.238 9  -3624939.86848  20139153.329    20139154.2584   20139160.7234
      1638.585        1276.819
  -1484220.880 9  -1150321.68847  23165402.364    23165402.6544   23165409.9444
       106.626          83.085
  -9810062.620 9  -7626371.38946  23453731.565    23453732.6944   23453739.9564
      4598.930        3583.582
 96 10 16 16  2 29.9980000  0  8 21 17 28 26  6 23 22  3            -0.001694477
  -8555098.455 9  -6647346.62148  22056980.046    22056980.7554   22056987.8214
      3554.009        2769.358
  -3395699.322 9  -2637253.63748  20046931.920    20046932.7424   20046939.2894
      1227.373         956.394
  -7108909.598 9  -5245324.102 9  20225473.632    20225474.462    20225480.474
      2633.039        2051.719
   -877820.005 9   -678517.19948  21997088.542    21997089.9684   21997095.7784
      -325.612        -253.724
   2493063.320 9   1938229.11148  21274726.664    21274727.6824   21274734.7624
     -1674.363       -1304.698
  -4720299.111 9  -3663112.23748  20129831.245    20129832.1834   20129838.6304
      1625.256        1266.433
  -1487231.306 9  -1152667.50047  23164829.448    23164829.8164   23164837.1424
        91.944          71.645
  -9947975.264 9  -7733835.77746  23427487.562    23427488.7574   23427496.0784
      4593.187        3579.107
 96 10 16 16  2 59.9980000  0  8 21 17 28 26  6 23 22  3            -0.001717595
  -8661612.713 9  -6730344.74148  22036711.086    22036711.8154   22036718.8164
      3547.349        2764.168
  -3432398.845 9  -2665850.66948  20039948.263    20039949.0874   20039955.5904
      1219.594         950.333
  -7187657.600 9  -5306686.188 9  20210488.396    20210489.216    20210495.221
      2617.103        2039.301
   -867806.424 9   -670714.42248  21998994.038    21998995.4924   21999001.3194
      -341.621        -266.198
   2543465.206 9   1977503.26648  21284317.832    21284318.8734   21284325.9634
     -1685.340       -1313.252
  -4768885.912 9  -3700972.08448  20120585.543    20120586.4054   20120592.8704
      1614.193        1257.813
  -1489785.610 9  -1154657.89347  23164343.486    23164343.7974   23164351.1444
        78.655          61.290
 -10085713.770 9  -7841164.48846  23401276.744    23401278.0014   23401285.2834
      4589.632        3576.337
 96 10 16 16  3 29.9980000  0  8 21 17 28 26  6 23 22  3            -0.001740735
  -8767907.750 9  -6813172.03948  22016483.834    22016484.5574   22016491.4924
      3539.412        2757.983
  -3468842.706 9  -2694248.48548  20033013.212    20033014.0374   20033020.5764
      1210.476         943.228
  -7265905.319 9  -5367658.438 9  20195598.335    20195599.182    20195605.206
      2599.788        2025.809
   -857285.328 9   -662516.17948  22000996.191    22000997.6234   22001003.4534
      -359.475        -280.110
   2594215.391 9   2017048.82348  21293975.345    21293976.3704   21293983.4724
     -1697.481       -1322.712
  -4817115.221 9  -3738553.36348  20111407.793    20111408.6734   20111415.1474
      1601.331        1247.790
  -1491922.768 9  -1156323.23547  23163936.572    23163937.1754   23163944.5484
        64.436          50.210
 -10223312.136 9  -7948383.98046  23375092.728    23375093.9054   23375101.1174
      4583.866        3571.844
 96 10 16 16  3 59.9980000  0  8 21 17 28 26  6 23 22  3            -0.001763891
  -8873968.615 9  -6895816.87048  21996301.068    21996301.8034   21996308.7264
      3530.469        2751.015
  -3505007.119 9  -2722428.55648  20026131.342    20026132.1674   20026138.7734
      1199.809         934.916
  -7343631.913 9  -5428224.620 9  20180807.404    20180808.300    20180814.336
      2581.240        2011.356
   -846223.472 9   -653896.56848  22003101.202    22003102.6324   22003108.4974
      -378.796        -295.166
   2645316.743 9   2056868.01348  21303699.614    21303700.6774   21303707.7874
     -1710.026       -1332.488
  -4864953.634 9  -3775830.05048  20102304.494    20102305.3654   20102311.8244
      1587.063        1236.672
  -1493641.981 9  -1157662.90647  23163609.659    23163610.0724   23163617.4294
        49.429          38.516
 -10360734.397 9  -8055466.25246  23348942.047    23348943.3024   23348950.4644
      4576.829        3566.360
 96 10 16 16  4 29.9980000  0  8 21 17 28 26  6 23 22  3            -0.001787025
  -8979735.920 9  -6978232.95148  21976174.011    21976174.9234   21976181.8694
      3520.464        2743.219
  -3540842.314 9  -2750352.08748  20019312.105    20019312.9184   20019319.6004
      1189.061         926.541
  -7420781.313 9  -5488341.038 9  20166126.361    20166127.267    20166133.305
      2561.705        1996.134
   -834562.424 9   -644810.05148  22005320.220    22005321.6584   22005327.5564
      -398.898        -310.830
   2696814.774 9   2096996.30848  21313499.367    21313500.4534   21313507.5824
     -1723.453       -1342.950
  -4912342.734 9  -3812756.62348  20093286.635    20093287.5314   20093293.9944
      1571.876        1224.838
  -1494890.908 9  -1158636.12347  23163371.932    23163372.4404   23163379.7894
        33.460          26.073
 -10497917.062 9  -8162361.82546  23322837.199    23322838.3684   23322845.5204
      4567.975        3559.461
 96 10 16 16  4 59.9980000  0  8 21 17 28 26  6 23 22  3            -0.001810126
  -9085202.982 9  -7060415.07248  21956104.309    21956105.1614   21956112.2074
      3511.646        2736.348
  -3576355.837 9  -2778024.96848  20012554.052    20012554.9024   20012561.5974
      1179.628         919.191
  -7497340.572 9  -5547997.607 9  20151557.606    20151558.526    20151564.554
      2543.341        1981.824
   -822299.235 9   -635254.33248  22007653.822    22007655.2884   22007661.2214
      -417.490        -325.317
   2748718.263 9   2137440.54148  21323376.329    21323377.4084   21323384.5134
     -1735.796       -1352.568
  -4959282.749 9  -3849333.25948  20084354.231    20084355.1384   20084361.6094
      1558.682        1214.557
  -1495670.268 9  -1159243.44247  23163223.850    23163224.2004   23163231.4634
        19.710          15.358
 -10634828.502 9  -8269046.05646  23296783.988    23296784.9974   23296792.1174
      4560.387        3553.548
 96 10 16 16  5 29.9980000  0  8 21 17 28 26  6 23 22  3            -0.001833234
  -9190431.741 9  -7142411.50948  21936079.891    21936080.8124   21936087.9194
      3503.984        2730.377
  -3611629.171 9  -2805510.69148  20005841.718    20005842.6074   20005849.2944
      1172.447         913.595
  -7573384.370 9  -5607252.515 9  20137086.967    20137087.885    20137093.906
      2526.684        1968.845
   -809511.150 9   -625289.60348  22010087.286    22010088.7414   22010094.7244
      -434.561        -338.619
   2800961.065 9   2178149.17748  21333317.883    21333318.9394   21333326.0004
     -1746.598       -1360.985
  -5005861.446 9  -3885628.34848  20075490.633    20075491.4934   20075497.9814
      1546.847        1205.335
  -1496070.525 9  -1159555.36747  23163147.570    23163148.1044   23163155.2814
         7.217           5.624
 -10771541.600 9  -8375575.72946  23270768.322    23270769.3904   23270776.4274
      4554.291        3548.798
 96 10 16 16  5 59.9980000  0  8 21 17 28 26  6 23 22  3            -0.001856358
  -9295428.568 9  -7224227.22148  21916099.772    21916100.6124   21916107.7634
      3495.662        2723.892
  -3646691.108 9  -2832831.69148  19999169.669    19999170.5774   19999177.2444
      1164.888         907.705
  -7648925.332 9  -5666115.606 9  20122712.089    20122712.921    20122718.944
      2509.417        1955.390
   -796214.818 9   -614928.85048  22012617.442    22012618.9574   22012624.9634
      -451.750        -352.013
   2853525.251 9   2219108.24048  21343320.596    21343321.6254   21343328.6484
     -1757.681       -1369.621
  -5052080.029 9  -3921642.82948  20066695.488    20066696.3964   20066702.8804
      1534.449        1195.675
  -1496085.681 9  -1159567.20947  23163144.864    23163145.3074   23163152.3794
        -6.270          -4.886
 -10908077.009 9  -8481966.94546  23244786.257    23244787.4924   23244794.6954
      4548.132        3543.999
 96 10 16 16  6 29.9980000  0  8 21 17 28 26  6 23 22  3            -0.001879464
  -9400129.772 9  -7305812.57248  21896175.816    21896176.6834   21896183.8334
      3485.432        2715.921
  -3681485.590 9  -2859944.28348  19992548.535    19992549.4284   19992556.1174
      1155.676         900.527
  -7723907.916 9  -5724543.596 9  20108443.332    20108444.216    20108450.220
      2490.485        1940.638
   -782365.144 9   -604136.90948  22015252.897    22015254.4574   22015260.5054
      -470.523        -366.641
   2906463.421 9   2260358.72048  21353394.351    21353395.4494   21353402.4444
     -1770.549       -1379.649
  -5097885.771 9  -3957335.61448  20057979.020    20057979.8954   20057986.3484
      1520.409        1184.734
  -1495659.329 9  -1159235.01647  23163225.967    23163226.3834   23163233.5394
       -21.036         -16.392
 -11044378.927 9  -8588176.22146  23218848.867    23218850.1734   23218857.2844
      4539.773        3537.485
 96 10 16 16  6 59.9980000  0  8 21 17 28 26  6 23 22  3            -0.001902549
  -9504534.701 9  -7387167.06248  21876308.238    21876309.1254   21876316.2444
      3476.152        2708.690
  -3716008.865 9  -2886845.54748  19985979.011    19985979.9134   19985986.6124
      1147.220         893.938
  -7798336.320 9  -5782539.764 9  20094280.034    20094280.972    20094286.958
      2472.728        1926.801
   -767959.281 9   -592911.58148  22017994.242    22017995.8174   22018001.8544
      -488.650        -380.766
   2959785.237 9   2301908.14548  21363541.202    21363542.2934   21363549.2604
     -1783.146       -1389.464
  -5143289.191 9  -3992714.89948  20049338.996    20049339.9324   20049346.3984
      1507.769        1174.885
  -1494812.222 9  -1158574.97247  23163386.973    23163387.5814   23163394.8014
       -34.258         -26.695
 -11180456.641 9  -8694210.79446  23192954.275    23192955.4994   23192962.6084
      4533.491        3532.590
 96 10 16 16  7 29.9980000  0  8 21 17 28 26  6 23 22  3            -0.001925623
  -9608668.989 9  -7468310.66448  21856492.173    21856493.0354   21856500.1314
      3466.057        2700.824
  -3750293.493 9  -2913560.85248  19979454.873    19979455.7724   19979462.5024
      1138.358         887.032
  -7872243.984 9  -5840130.156 9  20080215.857    20080216.814    20080222.782
      2454.275        1912.422
   -753015.600 9   -581267.17948  22020838.013    22020839.5354   22020845.5574
      -507.811        -395.697
   3013484.841 9   2343751.94548  21373759.841    21373760.9824   21373767.9884
     -1796.969       -1400.236
  -5188313.991 9  -4027799.15648  20040771.011    20040771.9604   20040778.4594
      1493.745        1163.957
  -1493567.350 9  -1157604.97047  23163623.931    23163624.4604   23163631.7624
       -48.816         -38.038
 -11316352.269 9  -8800103.47746  23167094.315    23167095.4384   23167102.4724
      4526.232        3526.934
 96 10 16 16  7 59.9980000  0  8 21 17 28 26  6 23 22  3            -0.001948678
  -9712523.738 9  -7549236.44848  21836729.291    21836730.1594   21836737.1834
      3457.366        2694.051
  -3784335.163 9  -2940086.83948  19972976.930    19972977.8834   19972984.5834
      1130.786         881.132
  -7945619.383 9  -5897305.800 9  20066252.938    20066253.953    20066259.910
      2437.142        1899.072
   -737516.686 9   -569190.12048  22023787.405    22023788.8954   22023794.8834
      -525.643        -409.592
   3067578.353 9   2385902.69348  21384053.482    21384054.6784   21384061.7164
     -1809.505       -1410.004
  -5232948.382 9  -4062579.20348  20032277.339    20032278.3244   20032284.8114
      1481.747        1154.608
  -1491929.122 9  -1156328.46447  23163935.899    23163936.2224   23163943.5684
       -60.469         -47.119
 -11452054.096 9  -8905845.15846  23141271.115    23141272.1794   23141279.2494
      4520.213        3522.244
 96 10 16 16  8 29.9980000  0  8 21 17 28 26  6 23 22  3            -0.001971698
  -9816080.599 9  -7629930.10648  21817023.068    21817023.9444   21817030.9334
      3446.695        2685.736
  -3818111.938 9  -2966406.41448  19966549.421    19966550.3684   19966557.0624
      1121.300         873.740
  -8018440.719 9  -5954049.707 9  20052395.533    20052396.523    20052402.466
      2417.779        1883.984
   -721444.323 9   -556666.22248  22026845.910    22026847.3964   22026853.3714
      -545.630        -425.166
   3122091.276 9   2428380.24748  21394426.958    21394428.1384   21394435.2504
     -1824.427       -1421.631
  -5277185.368 9  -4097049.58348  20023859.311    20023860.3534   20023866.7984
      1467.701        1143.663
  -1489906.757 9  -1154752.63547  23164320.668    23164321.1234   23164328.5004
       -74.227         -57.839
 -11587526.717 9  -9011408.22546  23115491.542    23115492.5904   23115499.6354
      4511.555        3515.497
 96 10 16 16  8 59.9980000  0  8 21 17 28 26  6 23 22  3            -0.001994679
  -9919348.736 9  -7710398.78848  21797371.825    21797372.7044   21797379.6694
      3437.819        2678.820
  -3851636.285 9  -2992529.29148  19960170.013    19960170.9184   19960177.6034
      1113.582         867.726
  -8090706.884 9  -6010361.015 9  20038643.703    20038644.745    20038650.683
      2399.867        1870.026
   -704800.534 9   -543697.06448  22030013.179    22030014.6504   22030020.5994
      -563.841        -439.357
   3177019.024 9   2471181.04748  21404879.292    21404880.5404   21404887.7614
     -1837.302       -1431.664
  -5321033.806 9  -4131217.19648  20015515.238    20015516.2844   20015522.6944
      1455.312        1134.009
  -1487489.499 9  -1152869.08947  23164780.776    23164781.1554   23164788.6054
       -87.118         -67.884
 -11722767.025 9  -9116790.26946  23089756.154    23089757.2994   23089764.3024
      4504.378        3509.905
 96 10 16 16  9 29.9980000  0  8 21 17 28 26  6 23 22  3            -0.002017658
 -10022369.856 9  -7790674.98648  21777767.652    21777768.4584   21777775.4064
      3429.371        2672.237
  -3884938.027 9  -3018478.71648  19953832.933    19953833.8344   19953840.4984
      1105.506         861.433
  -8162449.304 9  -6066264.207 9  20024991.628    20024992.641    20024998.574
      2381.980        1856.088
   -687641.445 9   -530326.36348  22033278.347    22033279.9344   22033285.8494
      -581.040        -452.758
   3232296.444 9   2514254.32248  21415398.240    21415399.5014   21415406.8044
     -1848.558       -1440.435
  -5364518.691 9  -4165101.52248  20007240.357    20007241.3774   20007247.8114
      1442.866        1124.311
  -1484698.066 9  -1150693.97947  23165311.902    23165312.3804   23165319.8514
       -99.761         -77.736
 -11857803.716 9  -9222013.65746  23064059.376    23064060.6924   23064067.6764
      4497.079        3504.217
 96 10 16 16  9 59.9970000  0  8 21 17 28 26  6 23 22  3            -0.002040630
 -10125107.953 9  -7870730.64548  21758217.226    21758218.0754   21758225.0544
      3420.149        2665.051
  -3917966.209 9  -3044214.97648  19947547.907    19947548.8164   19947555.4644
      1096.493         854.410
  -8233623.806 9  -6121724.867 9  20011447.604    20011448.618    20011454.538
      2363.234        1841.481
   -669945.831 9   -516537.59548  22036645.820    22036647.3244   22036653.2184
      -598.494        -466.359
   3287922.982 9   2557599.62948  21425983.626    21425984.9214   21425992.2694
     -1859.897       -1449.270
  -5407602.783 9  -4198673.54648  19999041.712    19999042.7544   19999049.1814
      1429.602        1113.976
  -1481509.255 9  -1148209.22447  23165918.741    23165919.2084   23165926.6414
      -112.833         -87.922
 -11992585.660 9  -9327038.53446  23038411.114    23038412.5604   23038419.5394
      4488.708        3497.695
 96 10 16 16 10 29.9970000  0  8 21 17 28 26  6 23 22  3            -0.002063600
 -10227571.626 9  -7950572.46948  21738719.030    21738719.8954   21738726.9224
      3412.079        2658.763
  -3950713.122 9  -3069732.06648  19941316.393    19941317.3314   19941323.9414
      1087.959         847.760
  -8304232.116 9  -6176744.339 9  19998011.361    19998012.321    19998018.248
      2345.282        1827.492
   -651725.779 9   -502340.17848  22040112.988    22040114.4994   22040120.3904
      -614.838        -479.095
   3343895.906 9   2601214.84548  21436634.937    21436636.2814   21436643.6254
     -1870.281       -1457.362
  -5450285.339 9  -4231932.67948  19990919.515    19990920.5534   19990926.9584
      1417.333        1104.415
  -1477910.330 9  -1145404.89647  23166603.962    23166604.0844   23166611.4684
      -125.813         -98.036
 -12127122.140 9  -9431872.14846  23012809.634    23012811.1594   23012818.1334
      4481.714        3492.245
 96 10 16 16 10 59.9970000  0  8 21 17 28 26  6 23 22  3            -0.002086592
 -10329795.236 9  -8030227.22248  21719266.480    21719267.3614   21719274.4384
      3402.126        2651.007
  -3983201.201 9  -3095047.46248  19935134.197    19935135.1104   19935141.6574
      1077.092         839.292
  -8374304.879 9  -6231346.497 9  19984676.990    19984677.931    19984683.866
      2325.509        1812.085
   -633022.576 9   -487766.26948  22043672.075    22043673.6054   22043679.4604
      -632.739        -493.043
   3400177.010 9   2645070.20847  21447344.920    21447346.2524   21447353.5804
     -1882.610       -1466.969
  -5492609.474 9  -4264912.52448  19982865.465    19982866.5554   19982872.9614
      1403.432        1093.583
  -1473930.939 9  -1142304.10147  23167360.768    23167361.3974   23167368.7604
      -140.087        -109.159
 -12261454.799 9  -9536546.92946  22987247.061    22987248.4834   22987255.4754
      4473.057        3485.499
 96 10 16 16 11 29.9970000  0  8 21 17 28 26  6 23 22  3            -0.002109580
 -10431733.918 9  -8109659.96148  21699868.098    21699869.0964   21699876.1414
      3393.451        2644.247
  -4015368.532 9  -3120112.92848  19929012.947    19929013.8794   19929020.4244
      1067.290         831.654
  -8443799.431 9  -6285498.104 9  19971452.612    19971453.575    19971459.518
      2307.138        1797.770
   -613789.983 9   -472779.85548  22047331.915    22047333.4214   22047339.2474
      -649.862        -506.386
   3456819.914 9   2689207.48847  21458123.815    21458125.0954   21458132.3654
     -1894.053       -1475.885
  -5534532.846 9  -4297580.08848  19974887.817    19974888.8234   19974895.2274
      1391.246        1084.088
  -1469548.812 9  -1138889.49547  23168194.560    23168195.3414   23168202.6464
      -152.256        -118.641
 -12395543.125 9  -9641031.32546  22961731.030    22961732.3434   22961739.3014
      4465.761        3479.814
 96 10 16 16 11 59.9970000  0  9 21 17  1 28 26  6 23 22  3         -0.002132544
 -10533377.735 9  -8188862.93248  21680525.945    21680526.9374   21680533.9284
      3383.836        2636.755
  -4047225.442 9  -3144936.50448  19922950.803    19922951.7284   19922958.2824
      1057.548         824.063
  -1172944.45018   -895384.41655  24523755.281    24523756.5225   24523764.5955
      4871.556        3796.018
  -8512714.084 9  -6339197.838 9  19958338.597    19958339.556    19958345.524
      2288.209        1783.020
   -594013.035 9   -457369.26848  22051095.288    22051096.8344   22051102.6554
      -667.532        -520.155
   3513848.436 9   2733645.25347  21468976.065    21468977.3374   21468984.5664
     -1906.881       -1485.881
  -5576066.925 9  -4329944.31048  19966984.140    19966985.1604   19966991.5604
      1378.784        1074.377
  -1464775.829 9  -1135170.31847  23169102.802    23169103.6654   23169110.9084
      -164.935        -128.521
 -12529381.151 9  -9745320.68446  22936262.538    22936263.8174   22936270.7314
      4457.667        3473.507
 96 10 16 16 12 29.9970000  0  9 21 17  1 28 26  6 23 22  3         -0.002155483
 -10634736.842 9  -8267844.04948  21661238.031    21661238.9954   21661245.8994
      3373.614        2628.790
  -4078787.711 9  -3169530.48548  19916944.671    19916945.6154   19916952.1864
      1046.948         815.804
  -1319109.338 8  -1009279.10445  24495940.835    24495942.0874   24495950.5694
      4873.094        3797.216
  -8581064.450 9  -6392457.866 9  19945331.883    19945332.924    19945338.905
      2268.719        1767.833
   -573711.776 9   -441550.13048  22054958.420    22054960.0214   22054965.8344
      -685.608        -534.240
   3571257.306 9   2778379.39347  21479900.605    21479901.9304   21479909.1344
     -1919.984       -1496.091
  -5617239.265 9  -4362026.65248  19959149.265    19959150.3384   19959156.7394
      1366.160        1064.540
  -1459619.863 9  -1131152.71147  23170084.313    23170084.7464   23170092.0444
      -178.565        -139.142
 -12662980.056 9  -9849423.71646  22910839.451    22910840.7824   22910847.6904
      4448.967        3466.727
 96 10 16 16 12 59.9970000  0  9 21 17  1 28 26  6 23 22  3         -0.002178391
 -10735797.547 9  -8346592.64148  21642006.894    21642007.8224   21642014.6674
      3363.752        2621.105
  -4110052.870 9  -3193892.95648  19910995.073    19910996.0324   19911002.6284
      1037.251         808.248
  -1465333.508 8  -1123219.99745  24468115.425    24468116.4884   24468124.9934
      4874.912        3798.633
  -8648844.237 9  -6445273.286 9  19932433.833    19932434.880    19932440.865
      2249.802        1753.092
   -552879.446 9   -425317.16648  22058922.751    22058924.3134   22058930.0934
      -703.325        -548.045
   3629040.818 9   2823405.46847  21490896.486    21490897.8164   21490904.9894
     -1932.245       -1505.645
  -5658039.504 9  -4393819.04848  19951385.260    19951386.3244   19951392.7134
      1353.550        1054.714
  -1454070.594 9  -1126828.63847  23171140.356    23171140.7884   23171148.0614
      -191.629        -149.321
 -12796317.764 9  -9953323.20847  22885466.084    22885467.4374   22885474.4144
      4440.145        3459.853
 96 10 16 16 13 29.9970000  0  9 21 17  1 28 26  6 23 22  3         -0.002201267
 -10836556.643 9  -8425106.21448  21622833.066    21622834.0024   21622840.8654
      3353.547        2613.154
  -4141023.622 9  -3218026.02148  19905101.535    19905102.5234   19905109.0864
      1027.709         800.812
  -1611595.767 8  -1237190.58345  24440282.575    24440283.7954   24440292.1504
      4875.988        3799.471
  -8716047.798 9  -6497639.700 9  19919645.465    19919646.490    19919652.467
      2230.384        1737.962
   -531505.137 9   -408661.88548  22062990.195    22062991.7824   22062997.5674
      -721.527        -562.229
   3687191.342 9   2868717.51447  21501962.135    21501963.5354   21501970.7174
     -1944.369       -1515.093
  -5698446.832 9  -4425305.27848  19943696.017    19943697.0634   19943703.4774
      1340.377        1044.450
  -1448109.759 9  -1122183.86047  23172274.457    23172275.1044   23172282.4354
      -205.884        -160.429
 -12929385.514 9 -10057012.35847  22860144.194    22860145.5224   22860152.4524
      4430.959        3452.695
 96 10 16 16 13 59.9970000  0  9 21 17  1 28 26  6 23 22  3         -0.002224107
 -10937010.124 9  -8503381.64848  21603717.339    21603718.3154   21603725.2754
      3343.479        2605.308
  -4171721.248 9  -3241946.25648  19899259.997    19899260.9734   19899267.5194
      1018.788         793.861
  -1757878.621 8  -1351177.19945  24412446.038    24412447.0564   24412455.5934
      4876.204        3799.639
  -8782667.844 9  -6549551.428 9  19906968.135    19906969.146    19906975.112
      2211.042        1722.890
   -509596.183 9   -391590.00248  22067159.394    22067161.0154   22067166.7724
      -738.982        -575.830
   3745694.394 9   2914304.26647  21513094.968    21513096.3314   21513103.5404
     -1955.672       -1523.900
  -5738462.121 9  -4456486.02448  19936081.350    19936082.4374   19936088.8514
      1327.404        1034.341
  -1441711.734 9  -1117198.41447  23173492.259    23173492.6424   23173499.9814
      -220.553        -171.859
 -13062174.644 9 -10160484.39147  22834875.398    22834876.5864   22834883.5414
      4421.762        3445.529
 96 10 16 16 14 29.9970000  0  9 21 17  1 28 26  6 23 22  3         -0.002246915
 -11037159.992 9  -8581420.50048  21584659.429    21584660.4234   21584667.4384
      3333.899        2597.843
  -4202142.322 9  -3265650.99548  19893471.099    19893472.0564   19893478.5984
      1010.107         787.096
  -1904154.129 8  -1465158.10345  24384610.965    24384611.7174   24384620.1744
      4876.422        3799.809
  -8848698.077 9  -6601003.561 9  19894403.049    19894404.055    19894409.983
      2191.724        1707.837
   -487149.330 9   -374098.96648  22071430.938    22071432.5444   22071438.3204
      -756.683        -589.623
   3804538.261 9   2960156.59147  21524292.652    21524294.0044   21524301.2524
     -1966.578       -1532.398
  -5778074.669 9  -4487352.94748  19928543.308    19928544.4184   19928550.8584
      1314.076        1023.955
  -1434862.575 9  -1111861.43247  23174795.376    23174796.0424   23174803.4264
      -235.137        -183.224
 -13194686.393 9 -10263740.29247  22809659.171    22809660.4234   22809667.3404
      4413.068        3438.754
 96 10 16 16 14 59.9970000  0  9 21 17  1 28 26  6 23 22  3         -0.002269692
 -11137011.143 9  -8659226.58148  21565658.399    21565659.3954   21565666.4424
      3324.367        2590.416
  -4232299.655 9  -3289150.21848  19887732.344    19887733.3284   19887739.8674
      1001.681         780.531
  -2050430.454 8  -1579139.65045  24356775.404    24356776.4094   24356784.8604
      4876.723        3800.044
  -8914135.114 9  -6651993.464 9  19881950.816    19881951.845    19881957.737
      2172.200        1692.623
   -464154.835 9   -356181.19748  22075806.658    22075808.2934   22075814.0914
      -774.725        -603.682
   3863728.935 9   3006279.15247  21535556.308    21535557.6774   21535564.9564
     -1978.043       -1541.332
  -5817276.317 9  -4517899.68548  19921083.532    19921084.6084   19921091.0554
      1300.920        1013.704
  -1427576.528 9  -1106184.02947  23176182.043    23176182.5584   23176189.9494
      -249.012        -194.035
 -13326920.690 9 -10366779.98247  22784495.843    22784497.0454   22784503.9744
      4404.174        3431.824
 96 10 16 16 15 29.9970000  0  9 21 17  1 28 26  6 23 22  3         -0.002292452
 -11236587.147 9  -8736818.27048  21546709.842    21546710.7674   21546717.7744
      3314.286        2582.561
  -4262214.384 9  -3312460.40548  19882039.767    19882040.7444   19882047.3164
       993.072         773.822
  -2196725.626 8  -1693135.89445  24328936.138    24328937.3804   24328945.7274
      4876.720        3800.042
  -8978998.473 9  -6702536.350 9  19869607.755    19869608.793    19869614.657
      2152.438        1677.224
   -440639.869 9   -337857.87148  22080281.466    22080283.0354   22080288.8774
      -792.524        -617.551
   3923251.496 9   3052660.32347  21546883.086    21546884.4214   21546891.7744
     -1989.772       -1550.472
  -5856106.617 9  -4548157.06548  19913694.352    19913695.4344   19913701.8924
      1288.278        1003.853
  -1419895.599 9  -1100198.91847  23177643.191    23177644.2104   23177651.6454
      -262.399        -204.467
 -13458906.905 9 -10469626.37547  22759379.753    22759380.8514   22759387.8224
      4395.162        3424.802
 96 10 16 16 15 59.9970000  0  9 21 17  1 28 26  6 23 22  3         -0.002315171
 -11335836.146 9  -8814155.14648  21527823.434    21527824.3174   21527831.3084
      3302.280        2573.205
  -4291847.441 9  -3335551.10348  19876400.731    19876401.7324   19876408.3634
       982.246         765.386
  -2343009.726 8  -1807123.49645  24301099.383    24301100.4354   24301108.7864
      4875.602        3799.170
  -9043249.781 9  -6752602.312 9  19857381.159    19857382.201    19857388.042
      2131.023        1660.537
   -416571.084 9   -319102.99348  22084861.667    22084863.2164   22084869.0674
      -811.918        -632.663
   3983147.788 9   3099332.71747  21558280.948    21558282.3274   21558289.7314
     -2003.316       -1561.025
  -5894539.609 9  -4578104.84748  19906380.777    19906381.8734   19906388.3474
      1273.886         992.638
  -1411816.914 9  -1093903.86347  23179180.493    23179181.4844   23179188.9624
      -275.987        -215.055
 -13590597.122 9 -10572242.11447  22734319.936    22734320.9884   22734327.9724
      4384.120        3416.197
 96 10 16 16 16 29.9970000  0  9 21 17  1 28 26  6 23 22  3         -0.002337869
 -11434775.952 9  -8891251.09148  21508995.664    21508996.6844   21509003.6604
      3293.393        2566.280
  -4321191.571 9  -3358416.66348  19870816.741    19870817.7464   19870824.3864
       973.648         758.687
  -2489320.815 8  -1921132.15345  24273257.479    24273258.4214   24273266.7074
      4878.363        3801.322
  -9106908.792 9  -6802206.747 9  19845267.223    19845268.312    19845274.152
      2112.588        1646.172
   -391976.452 9   -299938.36948  22089541.911    22089543.4664   22089549.3284
      -827.870        -645.094
   4043407.257 9   3146288.09647  21569748.002    21569749.3624   21569756.8034
     -2014.262       -1569.555
  -5932588.414 9  -4607753.27048  19899140.352    19899141.4604   19899147.8914
      1262.411         983.697
  -1403392.407 9  -1087339.33647  23180783.718    23180784.5764   23180792.1144
      -286.104        -222.938
 -13722004.170 9 -10674637.20947  22709313.953    22709315.0684   22709322.0334
      4375.834        3409.741
 96 10 16 16 16 59.9970000  0  9 21 17  1 28 26  6 23 22  3         -0.002360552
 -11533415.520 9  -8968113.08648  21490225.174    21490226.2014   21490233.1664
      3282.012        2557.412
  -4350238.245 9  -3381050.43848  19865289.371    19865290.3774   19865297.0184
       962.127         749.709
  -2635688.135 8  -2035184.61045  24245404.678    24245405.6144   24245413.9844
      4878.751        3801.624
  -9169985.128 9  -6851357.145 9  19833264.163    19833265.289    19833271.120
      2091.836        1630.002
   -366883.343 9   -280385.31947  22094316.956    22094318.5464   22094324.4314
      -845.584        -658.897
   4104019.727 9   3193518.54747  21581282.208    21581283.5724   21581291.0124
     -2027.096       -1579.555
  -5970270.866 9  -4637116.21748  19891969.614    19891970.7464   19891977.1814
      1249.107         973.330
  -1394635.151 9  -1080515.53247  23182450.429    23182451.0324   23182458.6044
      -298.545        -232.632
 -13853122.671 9 -10776807.47047  22684362.895    22684364.0554   22684371.0504
      4364.840        3401.174
 96 10 16 16 17 29.9970000  0  9 21 17  1 28 26  6 23 22  3         -0.002383201
 -11631711.716 9  -9044707.52048  21471520.010    21471521.0604   21471528.0424
      3270.935        2548.781
  -4378935.254 9  -3403411.74948  19859828.581    19859829.5434   19859836.2144
       950.931         740.985
  -2782054.578 8  -2149236.38545  24217552.094    24217553.0954   24217561.1594
      4878.708        3801.591
  -9232434.772 9  -6900019.217 9  19821380.374    19821381.498    19821387.346
      2071.144        1613.878
   -341258.789 9   -260418.15847  22099193.157    22099194.7404   22099200.6974
      -862.992        -672.461
   4165012.005 9   3241044.94647  21592888.705    21592890.0834   21592897.4924
     -2039.283       -1589.052
  -6007542.255 9  -4666158.86048  19884877.111    19884878.2114   19884884.6954
      1235.169         962.469
  -1385496.029 9  -1073394.16347  23184189.634    23184190.2074   23184197.7204
      -311.059        -242.384
 -13983910.127 9 -10878719.75947  22659474.822    22659476.0844   22659483.1004
      4353.860        3392.618
 96 10 16 16 17 59.9970000  0  9 21 17  1 28 26  6 23 22  3         -0.002405830
 -11729687.314 9  -9121052.13648  21452875.849    21452876.9524   21452883.9564
      3261.795        2541.658
  -4407299.624 9  -3425513.86748  19854431.033    19854432.0014   19854438.6724
       940.995         733.243
  -2928420.027 8  -2263287.38545  24189699.703    24189700.6264   24189708.6144
      4879.908        3802.526
  -9294261.397 9  -6948195.815 9  19809615.176    19809616.279    19809622.145
      2051.585        1598.638
   -315115.081 9   -240046.45947  22104168.217    22104169.7454   22104175.7364
      -878.895        -684.853
   4226366.436 9   3288853.54147  21604564.099    21604565.4974   21604572.8914
     -2049.987       -1597.392
  -6044383.734 9  -4694866.50748  19877866.394    19877867.4834   19877874.0034
      1221.978         952.191
  -1375973.366 9  -1065973.92847  23186001.994    23186002.2944   23186009.8784
      -323.021        -251.705
 -14114364.608 9 -10980372.59547  22634650.193    22634651.4304   22634658.4324
      4344.069        3384.989
 96 10 16 16 18 29.9970000  0  9 21 17  1 28 26  6 23 22  3         -0.002428456
 -11827384.979 9  -9197180.17848  21434284.626    21434285.7214   21434292.7504
      3252.360        2534.306
  -4435356.143 9  -3447376.09848  19849092.068    19849093.0684   19849099.7044
       930.586         725.132
  -3074803.573 8  -2377352.47345  24161843.730    24161844.7364   24161853.0064
      4879.945        3802.555
  -9355487.973 9  -6995904.844 9  19797964.126    19797965.240    19797971.117
      2031.163        1582.724
   -288486.607 9   -219297.03047  22109235.447    22109236.9914   22109242.9704
      -895.421        -697.731
   4288051.600 9   3336919.84647  21616302.553    21616303.8874   21616311.2294
     -2061.371       -1606.263
  -6080821.793 9  -4723259.80048  19870932.418    19870933.5604   19870940.0774
      1208.249         941.493
  -1366065.759 9  -1058253.74247  23187887.255    23187887.7024   23187895.3114
      -336.530        -262.231
 -14244515.908 9 -11081789.18747  22609883.265    22609884.4854   22609891.4834
      4333.796        3376.984
 96 10 16 16 18 59.9970000  0  9 21 17  1 28 26  6 23 22  3         -0.002451065
 -11924784.625 9  -9273075.99948  21415750.084    21415751.1944   21415758.2734
      3240.121        2524.770
  -4463100.281 9  -3468994.91348  19843812.572    19843813.5754   19843820.1724
       918.205         715.484
  -3221170.841 8  -2491404.87645  24133990.778    24133991.7504   24134000.2894
      4877.018        3800.274
  -9416089.967 9  -7043127.183 9  19786431.957    19786433.048    19786438.943
      2008.123        1564.771
   -261345.726 9   -198148.31247  22114400.248    22114401.7704   22114407.7504
      -914.820        -712.847
   4350084.823 9   3385257.37447  21628107.261    21628108.5214   21628115.8284
     -2075.079       -1616.945
  -6116840.077 9  -4751325.99448  19864078.394    19864079.5034   19864086.0174
      1192.128         928.931
  -1355752.129 9  -1050217.16947  23189849.740    23189850.3094   23189857.9404
      -351.787        -274.120
 -14374358.340 9 -11182965.09947  22585175.106    22585176.2714   22585183.3054
      4321.711        3367.567
 96 10 16 16 19 29.9970000  0  9 21 17  1 28 26  6 23 22  3         -0.002473654
 -12021874.135 9  -9348730.15948  21397274.551    21397275.6834   21397282.7794
      3231.744        2518.242
  -4490534.101 9  -3490371.93048  19838592.060    19838593.1144   19838599.6954
       909.888         709.004
  -3367503.376 8  -2605430.20945  24106144.587    24106145.5464   24106154.1364
      4877.997        3801.037
  -9476055.609 9  -7089853.666 9  19775020.905    19775021.982    19775027.855
      1988.887        1549.782
   -233673.481 9   -176585.55247  22119666.158    22119667.6664   22119673.6464
      -930.652        -725.183
   4412480.842 9   3433877.58947  21639980.868    21639982.1604   21639989.4544
     -2085.476       -1625.046
  -6152426.981 9  -4779056.05448  19857306.383    19857307.5264   19857314.0554
      1179.717         919.260
  -1345035.107 9  -1041866.27047  23191888.875    23191889.6794   23191897.4064
      -363.304        -283.094
 -14503899.746 9 -11283906.44947  22560524.241    22560525.3614   22560532.4474
      4313.651        3361.286
 96 10 16 16 19 59.9970000  0  9 21 17  1 28 26  6 23 22  3         -0.002496203
 -12118636.887 9  -9424129.69848  21378861.198    21378862.3384   21378869.4224
      3219.730        2508.881
  -4517633.730 9  -3511488.53048  19833435.201    19833436.2184   19833442.8284
       897.463         699.322
  -3513802.004 8  -2719429.11845  24078304.890    24078305.7374   24078314.4214
      4876.107        3799.564
  -9535375.437 9  -7136076.913 9  19763732.721    19763733.805    19763739.659
      1966.563        1532.387
   -205457.622 9   -154599.19347  22125035.455    22125036.9984   22125042.9554
      -949.570        -739.925
   4475268.397 9   3482802.90847  21651928.979    21651930.2764   21651937.5774
     -2099.658       -1636.097
  -6187589.644 9  -4806455.53248  19850615.121    19850616.2974   19850622.8074
      1165.507         908.187
  -1333901.160 9  -1033190.49147  23194007.750    23194008.4564   23194016.1674
      -378.120        -294.639
 -14633136.103 9 -11384610.09547  22535931.312    22535932.5354   22535939.6294
      4302.979        3352.971
 96 10 16 16 20 29.9970000  0  9 21 17  1 28 26  6 23 22  3         -0.002518715
 -12215090.557 9  -9499288.39348  21360506.746    21360507.8274   21360514.9054
      3209.582        2500.973
  -4544409.263 9  -3532352.59248  19828339.995    19828341.0164   19828347.6474
       886.745         690.970
  -3660095.349 8  -2833423.91645  24050465.850    24050467.0164   24050475.7474
      4875.866        3799.376
  -9594081.269 9  -7181821.723 9  19752561.400    19752562.471    19752568.317
      1946.255        1516.562
   -176726.679 9   -132211.46747  22130502.830    22130504.3534   22130510.3244
      -966.728        -753.295
   4538434.913 9   3532023.51747  21663949.215    21663950.5264   21663957.8414
     -2112.367       -1646.000
  -6222391.749 9  -4833574.05648  19843992.495    19843993.6544   19844000.1544
      1153.659         898.955
  -1322380.917 9  -1024213.71847  23196199.941    23196200.7554   23196208.3614
      -390.735        -304.469
 -14762112.867 9 -11485111.46347  22511387.770    22511389.0654   22511396.1764
      4294.524        3346.382
 96 10 16 16 20 59.9970000  0  9 21 17  1 28 26  6 23 22  3         -0.002541187
 -12311235.824 9  -9574206.77648  21342210.982    21342211.9914   21342219.0704
      3200.181        2493.648
  -4570868.865 9  -3552970.47948  19823304.920    19823305.9144   19823312.5654
       877.125         683.474
  -3806384.285 8  -2947415.27445  24022627.888    24022629.2544   24022637.8324
      4876.571        3799.925
  -9652178.467 9  -7227092.275 9  19741505.837    19741506.963    19741512.777
      1926.791        1501.396
   -147476.809 9   -109419.38947  22136068.875    22136070.4474   22136076.4114
      -983.342        -766.240
   4601978.113 9   3581537.65247  21676041.073    21676042.4124   21676049.7954
     -2123.789       -1654.901
  -6256840.043 9  -4860416.88648  19837437.148    19837438.3464   19837444.8664
      1142.761         890.463
  -1310480.860 9  -1014940.97547  23198464.539    23198465.3494   23198472.9104
      -402.906        -313.953
 -14890831.895 9 -11585411.99747  22486893.361    22486894.6874   22486901.7714
      4286.340        3340.005
 96 10 16 16 21 29.9970000  0  9 21 17  1 28 26  6 23 22  3         -0.002563595
 -12407066.685 9  -9648880.16548  21323974.965    21323975.9644   21323983.0854
      3188.785        2484.767
  -4596997.026 9  -3573330.10148  19818332.922    19818333.9014   19818340.5584
       865.018         674.040
  -3952638.678 8  -3061379.71845  23994796.537    23994797.9024   23994806.6524
      4873.956        3797.888
  -9709651.975 9  -7271876.834 9  19730569.024    19730570.122    19730575.947
      1904.960        1484.384
   -117684.011 9    -86204.24747  22141738.299    22141739.8434   22141745.7984
     -1002.508        -781.175
   4665899.904 9   3631346.79447  21688204.967    21688206.3184   21688213.8064
     -2137.361       -1665.476
  -6290919.027 9  -4886971.94448  19830952.149    19830953.3534   19830959.8554
      1129.334         880.000
  -1298162.988 9  -1005342.66447  23200808.860    23200809.4534   23200816.8964
      -418.020        -325.730
 -15019245.346 9 -11685474.41247  22462457.161    22462458.4364   22462465.4804
      4274.628        3330.879
 96 10 16 16 21 59.9970000  0  9 21 17  1 28 26  6 23 22  3         -0.002585922
 -12502561.129 9  -9723291.41248  21305802.881    21305803.9514   21305811.0904
      3178.265        2476.570
  -4622766.484 9  -3593410.20648  19813429.124    19813430.1224   19813436.7854
       853.959         665.423
  -4098815.316 8  -3175283.59345  23966980.174    23966981.4104   23966990.2284
      4871.973        3796.343
  -9766471.263 9  -7316151.612 9  19719756.673    19719757.791    19719763.581
      1883.804        1467.899
    -87321.765 9    -62545.37847  22147516.036    22147517.6174   22147523.5564
     -1020.740        -795.382
   4730212.974 9   3681460.82447  21700443.329    21700444.7394   21700452.2674
     -2149.238       -1674.731
  -6324600.062 9  -4913216.91248  19824542.929    19824544.0794   19824550.5724
      1116.778         870.217
  -1285398.110 9   -995396.04047  23203238.158    23203238.5884   23203246.0614
      -432.049        -336.661
 -15147303.044 9 -11785259.62447  22438088.624    22438089.8894   22438096.9174
      4263.279        3322.035
 96 10 16 16 22 29.9970000  0  9 21 17  1 28 26  6 23 22  3         -0.002608186
 -12597734.594 9  -9797452.54748  21287691.891    21287693.0144   21287700.1844
      3166.927        2467.735
  -4648211.150 9  -3613237.22648  19808587.138    19808588.1774   19808594.8104
       842.765         656.700
  -4244914.895 9  -3289127.41945  23939178.368    23939179.6044   23939188.3464
      4868.539        3793.667
  -9822645.711 9  -7359923.917 9  19709067.003    19709068.165    19709073.961
      1861.555        1450.562
    -56401.655 9    -38451.81047  22153399.868    22153401.5234   22153407.4504
     -1040.297        -810.621
   4794880.844 9   3731851.32047  21712749.302    21712750.6514   21712758.2294
     -2161.283       -1684.117
  -6357877.205 9  -4939147.16048  19818210.503    19818211.6554   19818218.1664
      1101.949         858.662
  -1272215.105 9   -985123.60646  23205746.540    23205747.2234   23205754.7714
      -446.405        -347.848
 -15274992.617 9 -11884757.97447  22413790.148    22413791.3844   22413798.3844
      4249.694        3311.450
 96 10 16 16 22 59.9970000  0  9 21 17  1 28 26  6 23 22  3         -0.002630402
 -12692587.569 9  -9871363.94948  21269641.982    21269643.0984   21269650.2434
      3157.062        2460.048
  -4673352.509 9  -3632827.90548  19803802.954    19803803.9754   19803810.5524
       833.682         649.622
  -4390953.011 8  -3402923.36445  23911388.573    23911389.4694   23911398.1154
      4867.738        3793.043
  -9878183.620 9  -7403200.216 9  19698498.519    19698499.687    19698505.454
      1841.414        1434.868
    -24918.557 9    -13919.54947  22159390.892    22159392.5704   22159398.5034
     -1057.987        -824.405
   4859861.526 9   3782485.56147  21725114.783    21725116.1094   21725123.6834
     -2170.346       -1691.179
  -6390729.827 9  -4964746.61348  19811958.893    19811960.0224   19811966.5434
      1088.660         848.306
  -1258641.656 9   -974546.92246  23208329.616    23208330.1384   23208337.7654
      -457.909        -356.812
 -15402300.121 9 -11983958.61847  22389564.298    22389565.5674   22389572.5634
      4237.890        3302.252
 96 10 16 16 23 29.9970000  0  9 21 17  1 28 26  6 23 22  3         -0.002652599
 -12787131.463 9  -9945034.50948  21251650.915    21251651.9954   21251659.1334
      3146.001        2451.429
  -4698210.201 9  -3652197.54248  19799072.728    19799073.7504   19799080.3244
       823.743         641.878
  -4536955.477 9  -3516691.52045  23883605.266    23883606.1714   23883614.6874
      4866.318        3791.936
  -9933109.422 9  -7445999.553 9  19688046.485    19688047.681    19688053.443
      1820.584        1418.637
      7090.258 9     11022.35947  22165482.034    22165483.6674   22165489.6194
     -1075.491        -838.045
   4925126.097 9   3833341.01647  21737534.276    21737535.6124   21737543.1774
     -2180.346       -1698.971
  -6423171.538 9  -4990025.87448  19805785.396    19805786.5684   19805793.1014
      1074.511         837.281
  -1244731.464 9   -963707.84546  23210976.682    23210977.1574   23210984.8514
      -469.069        -365.508
 -15529249.791 9 -12082880.42947  22365406.564    22365407.8734   22365414.7944
      4225.901        3292.910
 96 10 16 16 23 59.9970000  0  9 21 17  1 28 26  6 23 22  3         -0.002674781
 -12881328.741 9 -10018434.98048  21233725.744    21233726.8164   21233733.9694
      3133.365        2441.583
  -4722765.493 9  -3671331.54348  19794400.015    19794401.0514   19794407.6264
       812.834         633.377
  -4682923.209 8  -3630432.61945  23855828.458    23855829.4324   23855838.0654
      4864.447        3790.478
  -9987407.368 9  -7488309.651 9  19677713.966    19677715.151    19677720.913
      1798.837        1401.691
     39616.949 9     36367.81347  22171671.603    22171673.3174   22171679.2514
     -1093.316        -851.935
   4990696.026 9   3884434.41347  21750011.785    21750013.1704   21750020.7564
     -2191.453       -1707.626
  -6455187.950 9  -5014973.73248  19799692.857    19799694.0614   19799700.5804
      1059.565         825.635
  -1230486.147 9   -952607.63546  23213687.465    23213687.9454   23213695.6564
      -481.076        -374.864
 -15655847.458 9 -12181527.94347  22341315.909    22341317.1684   22341324.0464
      4213.497        3283.244
 96 10 16 16 24 29.9970000  0  9 21 17  1 28 26  6 23 22  3         -0.002696957
 -12975174.925 9 -10091561.87548  21215867.318    21215868.4394   21215875.6454
      3121.745        2432.528
  -4747019.707 9  -3690230.94148  19789784.582    19789785.6434   19789792.2144
       802.746         625.516
  -4828869.236 9  -3744156.80345  23828055.865    23828056.7824   23828065.3394
      4864.013        3790.140
 -10041081.969 9  -7530134.025 9  19667500.026    19667501.242    19667507.017
      1778.206        1385.615
     72646.030 9     62104.73447  22177956.907    22177958.5704   22177964.5224
     -1109.842        -864.812
   5056573.150 9   3935767.19147  21762547.865    21762549.2144   21762556.7724
     -2201.567       -1715.507
  -6486780.718 9  -5039591.48148  19793680.967    19793682.1494   19793688.6814
      1045.575         814.734
  -1215911.744 9   -941250.99046  23216460.869    23216461.3704   23216469.0864
      -491.978        -383.359
 -15782097.179 9 -12279904.33447  22317291.412    22317292.6204   22317299.5194
      4202.112        3274.373
 96 10 16 16 24 59.9970000  0  9 21 17  1 28 26  6 23 22  3         -0.002719082
 -13068637.942 9 -10164390.20048  21198081.787    21198082.9904   21198090.2134
      3109.667        2423.117
  -4770928.128 9  -3708860.88548  19785235.033    19785236.0514   19785242.6194
       791.555         616.796
  -4974762.720 9  -3857840.04445  23800293.313    23800294.2114   23800302.7234
      4862.304        3788.808
 -10094100.057 9  -7571446.830 9  19657411.054    19657412.258    19657418.048
      1756.649        1368.817
    106195.378 9     88247.06047  22184341.217    22184342.8114   22184348.7484
     -1126.231        -877.583
   5122797.945 9   3987370.87147  21775150.006    21775151.4154   21775158.9634
     -2213.184       -1724.559
  -6517936.801 9  -5063868.95148  19787752.065    19787753.3564   19787759.8534
      1032.024         804.175
  -1200968.848 9   -929607.20446  23219304.374    23219304.9774   23219312.5674
      -503.973        -392.706
 -15907981.853 9 -12377996.27447  22293336.401    22293337.5954   22293344.4834
      4190.500        3265.325
 96 10 16 16 25 29.9970000  0  9 21 17  1 28 26  6 23 22  3         -0.002741183
 -13161759.096 9 -10236952.13548  21180361.407    21180362.6304   21180369.8274
      3097.699        2413.791
  -4794510.173 9  -3727236.51448  19780747.501    19780748.5514   19780755.1034
       779.701         607.559
  -5120614.911 8  -3971491.10446  23772538.485    23772539.5034   23772547.9174
      4860.171        3787.146
 -10146481.139 9  -7612263.267 9  19647443.254    19647444.473    19647450.299
      1734.554        1351.601
    140213.835 9    114754.92247  22190814.711    22190816.3734   22190822.2884
     -1142.676        -890.397
   5189359.154 9   4039236.69547  21787816.182    21787817.6134   21787825.1464
     -2225.244       -1733.956
  -6548704.159 9  -5087843.51448  19781897.251    19781898.5164   19781905.0154
      1018.365         793.531
  -1185664.174 9   -917681.53246  23222216.687    23222217.4364   23222224.9314
      -517.216        -403.025
 -16033521.836 9 -12475819.62647  22269446.889    22269448.1024   22269454.9954
      4177.848        3255.466
 96 10 16 16 25 59.9970000  0  9 21 17  1 28 26  6 23 22  3         -0.002763231
 -13254538.601 9 -10309247.84648  21162706.179    21162707.3034   21162714.4504
      3088.137        2406.341
  -4817734.821 9  -3745333.64648  19776327.971    19776329.0434   19776335.5934
       768.973         599.200
  -5266396.512 9  -4085087.16146  23744796.939    23744798.1854   23744806.5054
      4858.972        3786.212
 -10198197.893 9  -7652562.044 9  19637601.892    19637603.113    19637608.956
      1713.714        1335.361
    174735.375 9    141654.79347  22197383.938    22197385.6464   22197391.5854
     -1158.324        -902.590
   5256282.715 9   4091384.86747  21800551.327    21800552.7794   21800560.3294
     -2235.884       -1742.247
  -6579071.475 9  -5111506.36248  19776118.558    19776119.8094   19776126.3234
      1006.634         784.390
  -1169959.501 9   -905444.16446  23225205.529    23225205.9354   23225213.5044
      -529.212        -412.373
 -16158675.838 9 -12573342.20747  22245630.874    22245632.0854   22245638.9494
      4166.160        3246.358
 96 10 16 16 26 29.9970000  0  9 21 17  1 28 26  6 23 22  3         -0.002785236
 -13347028.639 9 -10381318.00048  21145105.931    21145107.0444   21145114.1704
      3077.665        2398.180
  -4840622.432 9  -3763168.15648  19771972.608    19771973.6904   19771980.2424
       756.757         589.681
  -5412131.824 9  -4198647.15146  23717064.421    23717065.6054   23717073.9564
      4856.497        3784.283
 -10249279.197 9  -7692365.665 9  19627881.420    19627882.665    19627888.529
      1691.558        1318.097
    209744.731 9    168934.78047  22204045.926    22204047.7214   22204053.6954
     -1175.660        -916.099
   5323534.571 9   4143788.85347  21813349.040    21813350.4304   21813357.9914
     -2247.762       -1751.503
  -6609084.156 9  -5134892.86548  19770407.295    19770408.5914   19770415.0964
       994.070         774.600
  -1153892.129 9   -892924.16946  23228262.723    23228263.5584   23228271.0164
      -542.145        -422.451
 -16283468.525 9 -12670583.25047  22221883.637    22221884.7904   22221891.6444
      4153.336        3236.366
 96 10 16 16 26 59.9970000  0  9 21 17  1 28 26  6 23 22  3         -0.002807193
 -13439232.998 9 -10453165.55048  21127559.926    21127561.1064   21127568.2804
      3068.492        2391.033
  -4863164.446 9  -3780733.36948  19767683.030    19767684.1264   19767690.6494
       745.366         580.805
  -5557808.339 9  -4312161.32046  23689343.133    23689344.2944   23689352.4944
      4854.538        3782.757
 -10299718.849 9  -7731669.298 9  19618283.102    19618284.319    19618290.190
      1670.340        1301.564
    245249.628 9    196600.90447  22210802.312    22210804.0814   22210810.0794
     -1192.072        -928.887
   5391122.051 9   4196454.36147  21826210.639    21826211.9674   21826219.5484
     -2258.827       -1760.125
  -6638748.840 9  -5158008.20248  19764762.266    19764763.5704   19764770.0844
       982.707         765.746
  -1137460.200 9   -880120.10546  23231389.346    23231390.4544   23231398.0784
      -553.930        -431.634
 -16407901.596 9 -12767544.07547  22198204.829    22198205.9644   22198212.8104
      4141.423        3227.083
 96 10 16 16 27 29.9970000  0  9 21 17  1 28 26  6 23 22  3         -0.002829087
 -13531128.246 9 -10524772.23248  21110072.796    21110073.9854   21110081.1924
      3058.531        2383.271
  -4885338.818 9  -3798012.11348  19763463.423    19763464.5144   19763471.0294
       733.724         571.733
  -5703402.738 9  -4425611.49846  23661637.267    23661638.5504   23661646.8794
      4852.536        3781.197
 -10349496.027 9  -7770456.717 9  19608810.822    19608812.033    19608817.921
      1648.909        1284.864
    281276.650 9    224673.87047  22217658.032    22217659.8384   22217665.7934
     -1209.085        -942.144
   5459064.482 9   4249396.45747  21839139.667    21839141.0544   21839148.6754
     -2269.900       -1768.753
  -6668036.101 9  -5180829.44248  19759189.097    19759190.3774   19759196.9304
       970.575         756.292
  -1120651.035 9   -867022.09946  23234588.252    23234589.1954   23234596.7884
      -565.656        -440.771
 -16531949.150 9 -12864204.49547  22174599.268    22174600.5064   22174607.3304
      4129.280        3217.621
 96 10 16 16 27 59.9970000  0  9 21 17  1 28 26  6 23 22  3         -0.002850944
 -13622726.112 9 -10596147.18848  21092642.295    21092643.4894   21092650.7144
      3048.871        2375.744
  -4907176.684 9  -3815028.64148  19759307.850    19759308.9364   19759315.4524
       723.407         563.694
  -5848946.237 9  -4539022.02446  23633941.189    23633942.5904   23633950.8944
      4851.346        3780.270
 -10398637.529 9  -7808748.804 9  19599459.493    19599460.713    19599466.605
      1628.327        1268.826
    317802.590 9    253135.61047  22224608.618    22224610.4814   22224616.4664
     -1224.652        -954.274
   5527334.047 9   4302593.45747  21852130.942    21852132.3684   21852140.0484
     -2280.168       -1776.754
  -6696970.629 9  -5203375.82348  19753683.050    19753684.3164   19753690.9134
       959.514         747.673
  -1103509.627 9   -853665.20446  23237850.032    23237851.0714   23237858.6874
      -576.070        -448.886
 -16655654.337 9 -12960598.13647  22151058.905    22151060.1964   22151066.9904
      4118.819        3209.469
 96 10 16 16 28 29.9970000  0  9 21 17  1 28 26  6 23 22  3         -0.002872770
 -13713997.207 9 -10667267.51448  21075274.076    21075275.1914   21075282.3794
      3037.043        2366.527
  -4928696.226 9  -3831797.12948  19755212.816    19755213.8934   19755220.4174
       712.540         555.226
  -5994435.547 8  -4652390.30646  23606255.549    23606256.9454   23606265.1454
      4849.200        3778.597
 -10447140.646 9  -7846543.450 9  19590229.667    19590230.899    19590236.774
      1606.386        1251.729
    354808.369 9    281971.24047  22231650.627    22231652.4234   22231658.4144
     -1241.168        -967.144
   5595929.681 9   4356044.54847  21865184.158    21865185.7234   21865193.4614
     -2291.609       -1785.669
  -6725545.782 9  -5225642.17348  19748245.408    19748246.6484   19748253.2764
       946.517         737.546
  -1086033.165 9   -840047.23346  23241175.631    23241176.7644   23241184.3574
      -587.823        -458.044
 -16779014.718 9 -13056723.09347  22127584.188    22127585.4654   22127592.2674
      4106.357        3199.759
 96 10 16 16 28 59.9970000  0  9 21 17  1 28 26  6 23 22  3         -0.002894591
 -13804966.352 9 -10738152.55448  21057963.214    21057964.3284   21057971.5024
      3025.984        2357.910
  -4949950.128 9  -3848358.62148  19751168.351    19751169.4324   19751175.9464
       702.802         547.638
  -6139910.268 8  -4765747.22846  23578572.869    23578574.0204   23578582.2484
      4847.597        3777.348
 -10495035.840 9  -7883864.388 9  19581115.522    19581116.753    19581122.624
      1585.088        1235.134
    392255.173 9    311150.53447  22238776.564    22238778.3164   22238784.3294
     -1256.905        -979.406
   5664809.168 9   4409716.81247  21878291.590    21878293.1264   21878300.8984
     -2301.778       -1793.593
  -6753774.606 9  -5247638.66148  19742873.675    19742874.8784   19742881.5024
       933.780         727.621
  -1068258.507 9   -826196.89546  23244558.032    23244559.0914   23244566.7754
      -598.664        -466.491
 -16902052.263 9 -13152596.49647  22104170.909    22104172.1814   22104178.9754
      4094.525        3190.539
 96 10 16 16 29 29.9970000  0  9 21 17  1 28 26  6 23 22  3         -0.002916358
 -13895537.286 9 -10808727.30048  21040728.053    21040729.2144   21040736.4364
      3013.577        2348.242
  -4970861.480 9  -3864653.19248  19747189.093    19747190.1754   19747196.6644
       692.566         539.662
  -6285282.027 9  -4879023.91946  23550909.605    23550910.6874   23550918.8194
      4845.148        3775.440
 -10542231.660 9  -7920640.359 9  19572134.504    19572135.694    19572141.552
      1562.663        1217.659
    430227.748 9    340739.52147  22246002.478    22246004.2834   22246010.3194
     -1273.278        -992.165
   5734047.138 9   4463668.42447  21891467.198    21891468.7224   21891476.5724
     -2312.632       -1802.051
  -6781555.730 9  -5269286.28948  19737587.120    19737588.2824   19737594.9214
       919.683         716.636
  -1050099.021 9   -812046.68846  23248013.941    23248014.6434   23248022.4814
      -610.679        -475.854
 -17024670.784 9 -13248143.38347  22080837.471    22080838.6954   22080845.4174
      4081.377        3180.294
 96 10 16 16 29 59.9970000  0  9 21 17  1 28 26  6 23 22  3         -0.002938108
 -13985770.338 9 -10879038.76648  21023557.168    21023558.4164   21023565.6894
      3002.960        2339.969
  -4991491.841 9  -3880728.80948  19743263.294    19743264.3944   19743270.8664
       683.494         532.593
  -6430602.049 9  -4992260.28346  23523256.165    23523257.1864   23523265.3694
      4843.712        3774.321
 -10588783.357 9  -7956914.420 9  19563276.012    19563277.228    19563283.068
      1541.676        1201.306
    468665.764 9    370691.18247  22253317.071    22253318.8694   22253324.9254
     -1288.379       -1003.932
   5803578.056 9   4517848.30047  21904698.681    21904700.0504   21904707.9564
     -2321.727       -1809.138
  -6808940.547 9  -5290625.11448  19732375.919    19732377.1204   19732383.7584
       906.784         706.585
  -1031603.390 9   -797634.54846  23251533.466    23251534.2004   23251542.1054
      -621.600        -484.364
 -17146919.303 9 -13343401.96547  22057574.388    22057575.5784   22057582.2704
      4069.259        3170.851
 96 10 16 16 30 29.9970000  0  9 21 17  1 28 26  6 23 22  3         -0.002959849
 -14075706.481 9 -10949118.87148  21006442.974    21006444.1344   21006451.4234
      2993.855        2332.874
  -5011846.315 9  -3896589.44748  19739390.000    19739391.1024   19739397.5644
       674.172         525.329
  -6575894.569 8  -5105475.22346  23495607.725    23495608.9074   23495617.1464
      4843.323        3774.018
 -10634713.679 9  -7992704.286 9  19554535.771    19554536.992    19554542.825
      1521.206        1185.355
    507557.833 9    400996.65347  22260718.157    22260719.8524   22260725.9134
     -1303.629       -1015.815
   5873368.220 9   4572230.18147  21917979.360    21917980.7794   21917988.6624
     -2330.000       -1815.584
  -6835942.499 9  -5311665.60048  19727237.634    19727238.8574   19727245.4544
       894.287         696.847
  -1012790.338 9   -782975.06346  23255113.633    23255114.1884   23255122.1764
      -631.713        -492.244
 -17268805.718 9 -13438378.38347  22034380.142    22034381.3864   22034388.0074
      4057.688        3161.835
 96 10 16 16 30 59.9970000  0  9 21 17  1 28 26  6 23 22  3         -0.002981603
 -14165395.768 9 -11019006.61848  20989375.652    20989376.8644   20989384.1084
      2985.341        2326.240
  -5031924.094 9  -3912234.48248  19735569.320    19735570.4474   19735576.8864
       664.212         517.568
  -6721180.261 9  -5218684.83246  23467960.688    23467961.9124   23467970.2204
      4842.195        3773.139
 -10680049.594 9  -8028030.982 9  19545908.602    19545909.855    19545915.711
      1501.152        1169.729
    546887.713 9    431643.27947  22268202.433    22268204.1144   22268210.1644
     -1318.281       -1027.232
   5943379.872 9   4626784.65247  21931302.215    21931303.6214   21931311.4754
     -2337.638       -1821.536
  -6862598.274 9  -5332436.34148  19722165.272    19722166.4754   19722173.0304
       882.936         688.002
   -993693.071 9   -768094.12746  23258747.836    23258748.4394   23258756.2964
      -641.583        -499.935
 -17390385.231 9 -13533115.65847  22011244.273    22011245.5784   22011252.1724
      4047.405        3153.822
 96 10 16 16 31 29.9970000  0  9 21 17  1 28 26  6 23 22  3         -0.003003331
 -14254797.577 9 -11088670.36348  20972363.049    20972364.2554   20972371.4684
      2975.363        2318.465
  -5051661.542 9  -3927614.32248  19731813.409    19731814.5344   19731820.9624
       652.109         508.137
  -6866395.040 8  -5331839.18146  23440327.124    23440328.3574   23440336.7754
      4839.514        3771.050
 -10724751.535 9  -8062863.673 9  19537402.124    19537403.368    19537409.246
      1479.532        1152.882
    586681.895 9    462651.69847  22275775.060    22275776.7284   22275782.7954
     -1334.190       -1039.629
   6013668.020 9   4681554.57547  21944677.809    21944679.0884   21944686.9564
     -2347.742       -1829.409
  -6888893.210 9  -5352925.90748  19717161.495    19717162.7134   19717169.2674
       870.780         678.530
   -974258.411 9   -752950.27146  23262446.448    23262446.8784   23262454.6584
      -653.461        -509.190
 -17511609.534 9 -13627576.14747  21988176.053    21988177.3594   21988183.9324
      4034.748        3143.959
 96 10 16 16 31 59.9960000  0  9 21 17  1 28 26  6 23 22  3         -0.003025013
 -14343908.849 9 -11158107.71248  20955405.711    20955406.9284   20955414.1264
      2965.797        2311.011
  -5071028.975 9  -3942705.84248  19728127.918    19728129.0284   19728135.4554
       639.422         498.251
  -7011531.330 9  -5444932.37546  23412708.576    23412709.9154   23412718.2494
      4836.991        3769.084
 -10768813.985 9  -8097198.056 9  19529017.319    19529018.571    19529024.464
      1458.266        1136.311
    626954.797 9    494033.14447  22283438.852    22283440.4714   22283446.5204
     -1350.425       -1052.279
   6084249.310 9   4736552.91847  21958108.977    21958110.3194   21958118.1554
     -2357.762       -1837.217
  -6914843.575 9  -5373146.98048  19712223.297    19712224.5344   19712231.0734
       859.547         669.777
   -954484.661 9   -737542.20846  23266209.620    23266209.8334   23266217.5334
      -664.535        -517.819
 -17632457.835 9 -13721743.64147  21965179.427    21965180.6904   21965187.2344
      4022.145        3134.139
 96 10 16 16 32 29.9960000  0  9 21 17  1 28 26  6 23 22  3         -0.003046637
 -14432722.636 9 -11227313.25448  20938504.999    20938506.2154   20938513.4224
      2955.614        2303.076
  -5090013.684 9  -3957499.13248  19724515.297    19724516.3564   19724522.7814
       627.117         488.663
  -7156581.987 9  -5557958.82646  23385106.316    23385107.7284   23385116.1184
      4833.699        3766.519
 -10812227.999 9  -8131027.169 9  19520755.818    19520757.162    19520763.073
      1436.677        1119.489
    667724.189 9    525801.46847  22291196.962    22291198.6874   22291204.7264
     -1366.707       -1064.966
   6155151.498 9   4791801.30947  21971601.296    21971602.5584   21971610.4534
     -2368.463       -1845.556
  -6940460.505 9  -5393108.23048  19707348.588    19707349.8174   19707356.3284
       848.932         661.505
   -934371.048 9   -721869.31046  23270036.600    23270037.4254   23270044.9924
      -675.576        -526.423
 -17752919.558 9 -13815609.90947  21942256.363    21942257.5644   21942264.1244
      4009.274        3124.110
 96 10 16 16 32 59.9960000  0  9 21 17  1 28 26  6 23 22  3         -0.003068197
 -14521217.469 9 -11296270.26148  20921665.018    20921666.2274   20921673.4574
      2943.836        2293.898
  -5108640.765 9  -3972013.75448  19720970.616    19720971.7364   19720978.2024
       614.838         479.095
  -7301529.170 9  -5670904.66946  23357523.918    23357525.2214   23357533.5744
      4829.459        3763.215
 -10854996.549 9  -8164353.323 9  19512617.277    19512618.572    19512624.506
      1414.500        1102.208
    708967.757 9    557939.29047  22299045.435    22299047.0934   22299053.1434
     -1382.899       -1077.584
   6226378.530 9   4847302.83547  21985155.318    21985156.6564   21985164.5414
     -2380.128       -1854.645
  -6965764.228 9  -5412825.42348  19702533.448    19702534.6774   19702541.2044
       837.862         652.879
   -913932.327 9   -705943.07646  23273926.047    23273926.8274   23273934.4484
      -687.108        -535.409
 -17872985.817 9 -13909168.02047  21919408.523    21919409.6824   21919416.3004
      3994.693        3112.748
 96 10 16 16 33 29.9960000  0  9 21 17  1 28 26  6 23 22  3         -0.003089699
 -14609387.186 9 -11364973.93248  20904886.953    20904888.1284   20904895.3484
      2933.195        2285.606
  -5126939.144 9  -3986272.24648  19717488.525    19717489.6544   19717496.1754
       604.213         470.815
  -7446389.711 9  -5783782.99046  23329957.886    23329959.1754   23329967.5634
      4827.186        3761.444
 -10897131.439 9  -8197185.715 9  19504599.287    19504600.559    19504606.515
      1393.574        1085.902
    750662.546 9    590428.69547  22306979.781    22306981.3814   22306987.4274
     -1397.784       -1089.182
   6297922.601 9   4903051.39647  21998769.692    21998771.0974   21998778.9984
     -2390.091       -1862.409
  -6990759.599 9  -5432302.34348  19697777.015    19697778.1984   19697784.7454
       827.323         644.667
   -893186.218 9   -689777.30946  23277874.132    23277874.6514   23277882.3174
      -696.723        -542.901
 -17992631.257 9 -14002398.22447  21896640.635    21896641.8864   21896648.5134
      3981.022        3102.095
 96 10 16 16 33 59.9960000  0  9 21 17  1 28 26  6 23 22  3         -0.003111160
 -14697220.450 9 -11433415.42748  20888172.926    20888174.0424   20888181.2364
      2922.003        2276.885
  -5144913.432 9  -4000278.20048  19714068.135    19714069.2684   19714075.8214
       593.789         462.693
  -7591165.340 8  -5896595.16946  23302408.056    23302409.3294   23302417.6014
      4824.024        3758.980
 -10938623.643 9  -8229517.315 9  19496703.587    19496704.850    19496710.827
      1372.126        1069.189
    792823.297 9    623281.20947  22315002.698    22315004.3434   22315010.3894
     -1413.103       -1101.119
   6369761.032 9   4959029.32347  22012440.105    22012441.5384   22012449.4634
     -2399.487       -1869.730
  -7015404.141 9  -5451505.88748  19693087.307    19693088.5054   19693095.0464
       815.089         635.134
   -872148.319 9   -673384.18246  23281877.507    23281878.0254   23281885.6734
      -706.244        -550.320
 -18111869.944 9 -14095311.47147  21873950.253    21873951.4934   21873958.1454
      3967.788        3091.783
 96 10 16 16 34 29.9960000  0  9 21 17  1 28 26  6 23 22  3         -0.003132595
 -14784705.883 9 -11501585.89348  20871524.951    20871526.1064   20871533.2634
      2911.364        2268.595
  -5162578.569 9  -4014043.25548  19710706.646    19710707.7204   19710714.2774
       584.785         455.677
  -7735828.177 9  -6009319.44546  23274879.805    23274880.9474   23274889.1474
      4821.120        3756.717
 -10979458.284 9  -8261336.528 9  19488932.981    19488934.263    19488940.241
      1351.186        1052.872
    835436.441 9    656486.22647  22323111.626    22323113.3214   22323119.4104
     -1426.773       -1111.771
   6441884.712 9   5015229.53347  22026164.884    22026166.2404   22026174.2304
     -2407.601       -1876.053
  -7039658.544 9  -5470405.42848  19688471.905    19688473.0814   19688479.5924
       802.700         625.481
   -850811.127 9   -656757.84146  23285937.950    23285938.3664   23285946.0744
      -715.347        -557.413
 -18230706.679 9 -14187911.51247  21851336.381    21851337.5814   21851344.2514
      3955.612        3082.295
 96 10 16 16 34 59.9960000  0  9 21 17  1 28 26  6 23 22  3         -0.003154022
 -14871853.441 9 -11569493.07348  20854941.283    20854942.4824   20854949.5884
      2899.522        2259.368
  -5179944.787 9  -4027575.38548  19707401.972    19707403.0634   19707409.6014
       573.941         447.227
  -7880382.428 9  -6121959.12446  23247372.081    23247373.1504   23247381.4824
      4816.827        3753.372
 -11019641.456 9  -8292648.104 9  19481286.367    19481287.660    19481293.657
      1328.642        1035.305
    878480.961 9    690027.37747  22331302.782    22331304.4654   22331310.5614
     -1441.981       -1123.621
   6514264.331 9   5071629.16347  22039938.248    22039939.6844   22039947.6604
     -2416.770       -1883.197
  -7063504.364 9  -5488986.59048  19683934.178    19683935.3824   19683941.8864
       787.992         614.020
   -829172.867 9   -639896.91646  23290055.539    23290055.9854   23290063.8124
      -726.383        -566.013
 -18349154.941 9 -14280208.85247  21828796.377    21828797.5934   21828804.2744
      3941.934        3071.637
 96 10 16 16 35 29.9960000  0  9 21 17  1 28 26  6 23 22  3         -0.003175447
 -14958683.410 9 -11637152.78048  20838418.119    20838419.3294   20838426.3984
      2888.654        2250.899
  -5197005.895 9  -4040869.76648  19704155.407    19704156.4784   19704162.9804
       563.010         438.709
  -8024836.627 9  -6234520.84646  23219883.296    23219884.3884   23219892.7914
      4812.934        3750.338
 -11059172.542 9  -8323451.559 9  19473763.861    19473765.156    19473771.156
      1306.272        1017.874
    921964.319 9    723910.48647  22339577.401    22339579.0734   22339585.2224
     -1457.495       -1135.710
   6586887.569 9   5128218.63247  22053758.070    22053759.4904   22053767.4664
     -2425.298       -1889.843
  -7086928.988 9  -5507239.54848  19679476.616    19679477.8304   19679484.3404
       773.224         602.512
   -807223.809 9   -622793.79246  23294232.351    23294232.8194   23294240.5994
      -737.356        -574.563
 -18467228.744 9 -14372214.39547  21806327.604    21806328.8864   21806335.5924
      3929.138        3061.666
 96 10 16 16 35 59.9960000  0  9 21 17  1 28 26  6 23 22  3         -0.003196874
 -15045229.048 9 -11704590.93148  20821949.130    20821950.2974   20821957.3734
      2880.461        2244.515
  -5213779.011 9  -4053939.73948  19700963.628    19700964.6804   19700971.1664
       554.570         432.132
  -8169200.928 9  -6347012.52646  23192411.460    23192412.7534   23192421.1064
      4810.864        3748.725
 -11098067.934 9  -8353759.672 9  19466362.384    19466363.641    19466369.613
      1286.201        1002.235
    965876.220 9    758127.52947  22347933.543    22347935.2054   22347941.3644
     -1470.451       -1145.806
   6659738.534 9   5184985.54347  22067621.190    22067622.5914   22067630.6374
     -2432.154       -1895.185
  -7109958.241 9  -5525184.42148  19675094.284    19675095.5304   19675102.0224
       761.752         593.573
   -784977.978 9   -605459.41646  23298465.861    23298466.1794   23298473.8884
      -746.452        -581.651
 -18584947.247 9 -14463943.07747  21783926.554    21783927.7984   21783934.5324
      3917.984        3052.975
 96 10 16 16 36 29.9960000  0  9 21 17  1 28 26  6 23 22  3         -0.003218291
 -15131502.046 9 -11771816.63548  20805532.012    20805533.1364   20805540.2204
      2870.198        2236.518
  -5230270.810 9  -4066790.50148  19697825.399    19697826.4194   19697832.8854
       543.849         423.778
  -8313487.005 8  -6459443.25946  23164954.703    23164955.9954   23164964.4164
      4807.577        3746.164
 -11136340.266 9  -8383582.282 9  19459079.453    19459080.706    19459086.650
      1264.480         985.309
   1010196.642 9    792662.88747  22356367.480    22356369.1224   22356375.3084
     -1485.180       -1157.283
   6732824.974 9   5241935.94047  22081529.155    22081530.5744   22081538.6054
     -2441.097       -1902.154
  -7132641.447 9  -5542859.64848  19670777.856    19670779.0814   19670785.5644
       749.790         584.252
   -762427.180 9   -587887.41346  23302756.624    23302757.4464   23302765.1994
      -757.736        -590.444
 -18702299.313 9 -14555386.22347  21761595.170    21761596.4114   21761603.1704
      3904.438        3042.419
 96 10 16 16 36 59.9960000  0  9 21 17  1 28 26  6 23 22  3         -0.003239662
 -15217460.246 9 -11838797.04648  20789174.696    20789175.8504   20789182.9264
      2860.266        2228.779
  -5246423.604 9  -4079377.10748  19694751.634    19694752.7004   19694759.1454
       532.975         415.305
  -8457673.453 9  -6571796.36146  23137516.828    23137518.0674   23137526.6334
      4805.067        3744.208
 -11173957.585 9  -8412894.493 9  19451921.166    19451922.400    19451928.331
      1243.309         968.812
   1054971.158 9    827552.09447  22364887.868    22364889.4584   22364895.6974
     -1499.756       -1168.641
   6806188.103 9   5299101.94847  22095489.761    22095491.1514   22095499.2394
     -2449.866       -1908.986
  -7154973.406 9  -5560261.17948  19666528.215    19666529.4254   19666535.9294
       739.039         575.875
   -739543.117 9   -570055.71646  23307111.061    23307112.2164   23307119.9104
      -767.688        -598.198
 -18819232.334 9 -14646502.85047  21739343.512    21739344.8004   21739351.5774
      3891.131        3032.050
 96 10 16 16 37 29.9960000  0  9 21 17  1 28 26  6 23 22  3         -0.003260991
 -15303097.068 9 -11905527.02948  20772878.532    20772879.7124   20772886.7284
      2849.495        2220.386
  -5262226.271 9  -4091690.88248  19691744.470    19691745.5604   19691751.9964
       521.328         406.230
  -8601774.964 9  -6684083.28346  23110095.252    23110096.5054   23110105.0304
      4802.458        3742.175
 -11210923.198 9  -8441698.878 9  19444886.881    19444888.107    19444894.039
      1221.801         952.053
   1100193.317 9    862790.11547  22373493.370    22373494.9464   22373501.2084
     -1514.226       -1179.916
   6879836.043 9   5356489.88247  22109504.435    22109505.8874   22109514.0414
     -2459.239       -1916.290
  -7176968.974 9  -5577400.58448  19662342.638    19662343.8154   19662350.3004
       728.113         567.361
   -716356.824 9   -551988.53046  23311523.085    23311524.3954   23311532.1784
      -777.189        -605.602
 -18935752.817 9 -14737298.00547  21717170.277    21717171.6624   21717178.4714
      3877.547        3021.465
 96 10 16 16 37 59.9960000  0 10 21 17  1 28 26  6 23 22  3  9      -0.003282291
 -15388409.625 9 -11972004.33748  20756644.171    20756645.2844   20756652.2344
      2838.201        2211.585
  -5277685.585 9  -4103737.11148  19688802.678    19688803.7704   19688810.2224
       509.413         396.945
  -8745804.421 9  -6796314.05446  23082687.472    23082688.5714   23082697.2694
      4799.744        3740.060
 -11247250.283 9  -8470005.706 9  19437974.086    19437975.319    19437981.262
      1200.224         935.239
   1145833.167 9    898353.60747  22382178.413    22382179.9444   22382186.1944
     -1528.183       -1190.792
   6953759.385 9   5414092.40247  22123571.507    22123573.0564   22123581.2404
     -2468.666       -1923.636
  -7198651.918 9  -5594296.38948  19658216.562    19658217.7174   19658224.1874
       717.567         559.143
   -692904.020 9   -533713.66446  23315986.502    23315987.3954   23315995.0344
      -786.182        -612.609
 -19051873.864 9 -14827781.92347  21695073.226    21695074.5104   21695081.3744
      3864.152        3011.028
  -2290634.88318  -1769946.92056  24108990.013    24108991.4185   24108999.9575
      3293.085        2566.040
 96 10 16 16 38 29.9960000  0 10 21 17  1 28 26  6 23 22  3  9      -0.003303577
 -15473391.460 9 -12038223.93948  20740472.690    20740473.7664   20740480.7274
      2828.071        2203.692
  -5292791.707 9  -4115508.12748  19685928.072    19685929.1784   19685935.6264
       498.354         388.328
  -8889766.955 9  -6908492.67746  23055292.468    23055293.3984   23055302.0644
      4798.221        3738.874
 -11282940.576 9  -8497816.334 9  19431182.462    19431183.688    19431189.654
      1179.751         919.286
   1191881.174 9    934235.14047  22390941.072    22390942.6364   22390948.8414
     -1541.127       -1200.878
   7027948.349 9   5471901.91546  22137689.127    22137690.7864   22137698.9544
     -2476.682       -1929.882
  -7220022.990 9  -5610949.17548  19654149.726    19654150.9314   19654157.4214
       707.653         551.418
   -669202.733 9   -515245.17946  23320496.315    23320497.6504   23320505.2984
      -793.172        -618.056
 -19167612.607 9 -14917967.94347  21673048.815    21673050.1124   21673056.9804
      3852.309        3001.799
  -2389362.230 8  -1846877.26746  24090202.883    24090204.2264   24090212.6154
      3289.373        2563.148
 96 10 16 16 38 59.9960000  0 10 21 17  1 28 26  6 23 22  3  9      -0.003324858
 -15558060.954 9 -12104200.15848  20724360.565    20724361.6594   20724368.7294
      2817.466        2195.428
  -5307545.895 9  -4127004.90848  19683120.486    19683121.5594   19683128.0224
       486.325         378.954
  -9033663.530 9  -7020619.89946  23027909.954    23027910.8664   23027919.5454
      4795.563        3736.802
 -11317994.117 9  -8525130.791 9  19424511.987    19424513.223    19424519.223
      1157.992         902.331
   1238338.982 9    970436.00047  22399781.766    22399783.3054   22399789.5534
     -1555.215       -1211.856
   7102402.398 9   5529917.97647  22151857.321    22151858.9254   22151867.1394
     -2486.083       -1937.207
  -7241062.869 9  -5627343.88748  19650145.942    19650147.1794   19650153.6684
       695.862         542.230
   -645277.990 9   -496602.56546  23325049.228    23325050.3624   23325058.0904
      -801.130        -624.257
 -19282977.123 9 -15007862.36047  21651095.663    21651096.9754   21651103.8164
      3839.568        2991.871
  -2487957.383 9  -1923704.61746  24071440.706    24071442.1594   24071450.4754
      3284.399        2559.272
 96 10 16 16 39 29.9960000  0 10 21 17  1 28 26  6 23 22  3  9      -0.003346135
 -15642442.602 9 -12169952.08848  20708303.185    20708304.3444   20708311.4604
      2808.588        2188.510
  -5321966.491 9  -4138241.74948  19680376.331    19680377.4364   19680383.8964
       475.711         370.684
  -9177490.083 9  -7132692.55846  23000540.627    23000541.6424   23000550.2464
      4793.347        3735.076
 -11352412.429 9  -8551950.268 9  19417962.379    19417963.624    19417969.651
      1137.136         886.080
   1285207.194 9   1006956.65447  22408700.436    22408702.0894   22408708.3764
     -1568.740       -1222.395
   7177117.884 9   5588137.76346  22166075.366    22166076.8774   22166085.1164
     -2494.205       -1943.536
  -7261768.217 9  -5643477.92748  19646205.840    19646207.0764   19646213.5854
       685.120         533.860
   -621121.592 9   -477779.44346  23329646.606    23329647.2834   23329655.0094
      -808.907        -630.317
 -19397977.497 9 -15097473.03247  21629211.792    21629213.1364   21629219.9824
      3827.446        2982.425
  -2586414.184 9  -2000424.17446  24052705.049    24052706.5444   24052714.7704
      3279.946        2555.802
 96 10 16 16 39 59.9960000  0 10 21 17  1 28 26  6 23 22  3  9      -0.003367385
 -15726540.228 9 -12235482.69648  20692299.925    20692301.0964   20692308.1844
      2798.997        2181.037
  -5336050.798 9  -4149216.54348  19677696.195    19677697.2964   19677703.7554
       464.382         361.856
  -9321215.340 9  -7244686.28746  22973190.825    22973191.6844   22973200.3064
      4789.441        3732.032
 -11386181.458 9  -8578263.809 9  19411536.357    19411537.616    19411543.624
      1115.243         869.021
   1332511.217 9   1043816.91647  22417702.071    22417703.7284   22417710.0824
     -1583.736       -1234.080
   7252094.002 9   5646560.63546  22180342.772    22180344.3734   22180352.6314
     -2503.051       -1950.429
  -7282131.042 9  -5659345.06348  19642330.914    19642332.1684   19642338.6674
       673.386         524.716
   -596691.617 9   -458743.14646  23334295.546    23334296.2164   23334303.9274
      -818.800        -638.026
 -19512578.207 9 -15186772.27647  21607403.972    21607405.3444   21607412.1824
      3813.705        2971.718
  -2684710.098 8  -2077018.37746  24033999.936    24034001.4214   24034009.6434
      3274.330        2551.426
 96 10 16 16 40 29.9960000  0 10 21 17  1 28 26  6 23 22  3  9      -0.003388603
 -15810368.886 9 -12300803.71648  20676347.850    20676349.0404   20676356.0494
      2789.036        2173.275
  -5349813.442 9  -4159940.68948  19675077.269    19675078.3514   19675084.8204
       452.766         352.805
  -9464823.813 9  -7356589.00346  22945863.128    22945863.9804   22945872.5964
      4784.029        3727.815
 -11419305.029 9  -8604074.396 9  19405233.154    19405234.420    19405240.394
      1092.453         851.262
   1380252.256 9   1081017.70147  22426786.903    22426788.5754   22426794.9214
     -1599.472       -1246.342
   7327315.574 9   5705174.76446  22194656.964    22194658.6054   22194666.9234
     -2512.305       -1957.640
  -7302143.790 9  -5674939.41848  19638522.619    19638523.8484   19638530.3714
       660.327         514.541
   -571971.517 9   -439480.78446  23338999.142    23339000.3054   23339008.0644
      -829.739        -646.550
 -19626772.822 9 -15275755.08547  21585673.555    21585674.8414   21585681.6894
      3798.613        2959.958
  -2782846.371 8  -2153488.15446  24015325.187    24015326.6844   24015334.8984
      3267.472        2546.082
 96 10 16 16 40 59.9960000  0 10 21 17  1 28 26  6 23 22  3  9      -0.003409792
 -15893946.238 9 -12365928.91448  20660443.705    20660444.8384   20660451.7414
      2781.730        2167.582
  -5363289.125 9  -4170441.23148  19672512.911    19672514.0284   19672520.5064
       444.761         346.567
  -9608317.988 9  -7468402.65846  22918557.103    22918557.9174   22918566.5864
      4781.374        3725.746
 -11451796.038 9  -8629392.077 9  19399050.387    19399051.612    19399057.546
      1072.721         835.886
   1428412.289 9   1118544.96347  22435951.489    22435953.1864   22435959.4604
     -1611.988       -1256.095
   7402756.360 9   5763959.71246  22209012.894    22209014.5454   22209022.9064
     -2517.772       -1961.900
  -7321820.120 9  -5690271.62548  19634778.353    19634779.5964   19634786.1384
       650.711         507.048
   -546964.831 9   -419995.10346  23343758.186    23343758.9194   23343766.7434
      -838.117        -653.078
 -19740556.650 9 -15364417.80747  21564021.169    21564022.5354   21564029.3324
      3786.073        2950.187
  -2880820.640 8  -2229831.68346  23996681.352    23996682.7504   23996690.9494
      3263.300        2542.831
 96 10 16 16 41 29.9960000  0 10 21 17  1 28 26  6 23 22  3  9      -0.003430953
 -15977250.315 9 -12430841.17148  20644591.476    20644592.5874   20644599.4944
      2771.623        2159.706
  -5376485.588 9  -4180724.19848  19670001.718    19670002.8604   19670009.3424
       434.792         338.799
  -9751685.393 9  -7580117.51646  22891275.069    22891275.9254   22891284.7164
      4776.346        3721.828
 -11483656.537 9  -8654218.449 9  19392987.500    19392988.788    19392994.687
      1051.167         819.091
   1476981.070 9   1156390.73547  22445193.817    22445195.5474   22445201.8424
     -1625.909       -1266.942
   7478392.497 9   5822896.87846  22223406.060    22223407.6734   22223416.0714
     -2524.688       -1967.289
  -7341174.611 9  -5705353.04848  19631095.315    19631096.5384   19631103.1104
       639.330         498.179
   -521674.423 9   -400288.34946  23348570.943    23348571.5794   23348579.4574
      -847.855        -660.666
 -19853921.301 9 -15452753.88847  21542448.466    21542449.9924   21542456.7654
      3771.358        2938.721
  -2978632.484 8  -2306048.63846  23978068.406    23978069.6614   23978077.9974
      3257.378        2538.217
 96 10 16 16 41 59.9960000  0 10 21 17  1 28 26  6 23 22  3  9      -0.003452087
 -16060248.535 9 -12495515.10248  20628797.387    20628798.5414   20628805.5024
      2761.115        2151.518
  -5389391.260 9  -4190780.57448  19667545.881    19667546.9854   19667553.4964
       425.016         331.181
  -9894906.514 9  -7691718.38446  22864020.747    22864021.8974   22864030.6084
      4771.336        3717.924
 -11514880.925 9  -8678549.150 9  19387045.695    19387046.984    19387052.875
      1029.987         802.587
   1525944.626 9   1194544.12947  22454511.309    22454513.0444   22454519.3454
     -1638.804       -1276.990
   7554222.505 9   5881985.11446  22237836.079    22237837.7424   22237846.1154
     -2531.326       -1972.462
  -7360195.380 9  -5720174.43048  19627475.773    19627476.9984   19627483.5584
       628.247         489.543
   -496110.899 9   -380368.76046  23353435.559    23353436.2074   23353444.0824
      -856.698        -667.557
 -19966853.198 9 -15540752.76447  21520958.319    21520959.7664   21520966.5404
      3757.079        2927.594
  -3076280.878 8  -2382138.21446  23959486.462    23959487.6674   23959496.1504
      3252.031        2534.050
 96 10 16 16 42 29.9960000  0 10 21 17  1 28 26  6 23 22  3  9      -0.003473199
 -16142930.035 9 -12559942.24048  20613063.592    20613064.7764   20613071.7624
      2750.861        2143.528
  -5401995.074 9  -4200601.74448  19665147.448    19665148.5434   19665155.0774
       414.973         323.356
 -10037986.660 9  -7803209.40946  22836793.447    22836794.6294   22836803.3954
      4767.285        3714.768
 -11545467.992 9  -8702383.240 9  19381225.153    19381226.451    19381232.363
      1009.019         786.249
   1575296.427 9   1233000.04047  22463902.730    22463904.4144   22463910.7204
     -1651.464       -1286.855
   7630257.777 9   5941233.28846  22252305.162    22252306.8554   22252315.2434
     -2537.885       -1977.573
  -7378885.774 9  -5734738.37948  19623919.086    19623920.3494   19623926.8844
       617.746         481.361
   -470295.972 9   -360253.28946  23358347.775    23358348.7164   23358356.4844
      -864.414        -673.569
 -20079352.696 9 -15628414.70747  21499550.330    21499551.8404   21499558.5744
      3742.760        2916.436
  -3173769.805 8  -2458103.52946  23940934.677    23940936.0134   23940944.5624
      3247.008        2530.136
 96 10 16 16 42 59.9960000  0 10 21 17  1 28 26  6 23 22  3  9      -0.003494288
 -16225293.428 9 -12624121.50048  20597390.412    20597391.5674   20597398.5034
      2740.750        2135.649
  -5414282.039 9  -4210176.02048  19662809.313    19662810.4084   19662816.9754
       404.597         315.270
 -10180944.804 9  -7914605.34646  22809589.547    22809590.5584   22809599.3124
      4763.813        3712.062
 -11575421.914 9  -8725723.972 9  19375525.079    19375526.406    19375532.343
       988.522         770.277
   1625036.164 9   1271758.24547  22473367.832    22473369.6044   22473375.8994
     -1663.868       -1296.521
   7706496.161 9   6000639.74446  22266813.009    22266814.6094   22266822.9734
     -2544.100       -1982.416
  -7397260.962 9  -5749056.71648  19620422.408    19620423.6674   19620430.1844
       607.952         473.729
   -444248.938 9   -339956.95646  23363304.639    23363305.3374   23363313.0924
      -871.380        -678.997
 -20191414.622 9 -15715735.68947  21478225.679    21478227.1644   21478233.9124
      3728.753        2905.522
  -3271109.311 8  -2533952.41146  23922411.601    23922412.8374   23922421.4214
      3243.026        2527.033
 96 10 16 16 43 29.9960000  0 10 21 17  1 28 26  6 23 22  3  9      -0.003515357
 -16307343.620 9 -12688056.70548  20581776.763    20581777.9234   20581784.8334
      2730.334        2127.533
  -5426223.478 9  -4219481.04348  19660536.934    19660538.0464   19660544.6174
       392.466         305.818
 -10323784.810 9  -8025909.24146  22782407.927    22782409.0094   22782417.7754
      4759.908        3709.019
 -11604741.856 9  -8748570.689 9  19369945.698    19369946.988    19369952.987
       967.113         753.595
   1675163.363 9   1310818.37347  22482906.705    22482908.5194   22482914.8434
     -1676.999       -1306.752
   7782946.816 9   6060211.60546  22281361.127    22281362.7904   22281371.1084
     -2551.643       -1988.293
  -7415322.934 9  -5763130.98748  19616985.342    19616986.5844   19616993.1294
       597.138         465.302
   -417975.148 9   -319483.90346  23368304.284    23368305.1414   23368312.8294
      -879.342        -685.202
 -20303046.402 9 -15802721.48247  21456982.817    21456984.3474   21456991.1114
      3714.296        2894.257
  -3368313.606 8  -2609695.96546  23903914.133    23903915.3904   23903923.9884
      3238.183        2523.259
 96 10 16 16 43 59.9960000  0 10 21 17  1 28 26  6 23 22  3  9      -0.003536397
 -16389091.614 9 -12751756.43548  20566220.558    20566221.7774   20566228.6944
      2720.691        2120.019
  -5437799.256 9  -4228501.14548  19658334.182    19658335.2774   19658341.8564
       380.450         296.454
 -10466519.941 9  -8137131.40846  22755246.167    22755247.4924   22755256.1514
      4756.877        3706.657
 -11633416.610 9  -8770914.667 9  19364489.090    19364490.379    19364496.392
       945.673         736.888
   1725692.252 9   1350191.49847  22492522.129    22492523.8574   22492530.1894
     -1690.499       -1317.272
   7859636.024 9   6119969.33146  22295954.665    22295956.3814   22295964.6574
     -2559.786       -1994.638
  -7433061.267 9  -5776953.07348  19613609.874    19613611.0694   19613617.6494
       586.719         457.184
   -391457.995 9   -298821.24046  23373350.426    23373351.2874   23373358.9624
      -887.291        -691.396
 -20414238.341 9 -15889364.54847  21435823.619    21435825.2214   21435832.0264
      3699.674        2882.863
  -3465368.894 8  -2685323.42446  23885445.043    23885446.2894   23885454.9464
      3233.223        2519.395
 96 10 16 16 44 29.9960000  0 10 21 17  1 28 26  6 23 22  3  9      -0.003557417
 -16470566.436 9 -12815243.30448  20550716.398    20550717.6484   20550724.5654
      2711.506        2112.862
  -5449031.638 9  -4237253.66148  19656196.746    19656197.8504   19656204.4324
       369.046         287.568
 -10609182.685 9  -8248297.17246  22728098.303    22728099.6994   22728108.3544
      4754.401        3704.728
 -11661462.610 9  -8792768.705 9  19359152.152    19359153.407    19359159.451
       924.624         720.486
   1776614.344 9   1389871.02247  22502212.288    22502214.0204   22502220.4114
     -1703.641       -1327.512
   7936550.423 9   6179902.54746  22310591.160    22310592.8154   22310601.0694
     -2567.159       -2000.384
  -7450506.657 9  -5790546.88948  19610290.101    19610291.3524   19610297.8684
       576.845         449.490
   -364726.150 9   -277991.28946  23378437.673    23378438.2524   23378445.9594
      -894.267        -696.831
 -20525007.043 9 -15975677.81447  21414745.084    21414746.6314   21414753.4544
      3685.552        2871.859
  -3562280.277 8  -2760838.74246  23867003.336    23867004.5174   23867013.2184
      3228.063        2515.374
 96 10 16 16 44 59.9960000  0 10 21 17  1 28 26  6 23 22  3  9      -0.003578435
 -16551779.314 9 -12878526.06148  20535262.154    20535263.3564   20535270.3074
      2701.910        2105.384
  -5459947.019 9  -4245759.16848  19654119.654    19654120.7354   19654127.3204
       357.958         278.928
 -10751783.893 9  -8359414.98746  22700962.379    22700963.6214   22700972.2184
      4751.608        3702.552
 -11688896.226 9  -8814145.561 9  19353931.769    19353932.982    19353939.003
       903.517         704.039
   1827902.551 9   1429835.82047  22511972.074    22511973.9054   22511980.2784
     -1716.240       -1337.330
   8013663.251 9   6239990.37846  22325265.382    22325266.9864   22325275.2484
     -2574.420       -2006.042
  -7467676.705 9  -5803926.15248  19607022.793    19607023.9704   19607030.4894
       567.058         441.863
   -337801.105 9   -257010.77746  23383560.862    23383561.8414   23383569.6684
      -901.370        -702.366
 -20635375.742 9 -16061679.39547  21393742.525    21393744.1564   21393750.9914
      3671.680        2861.049
  -3659051.593 8  -2836244.88746  23848588.103    23848589.5204   23848598.1644
      3222.586        2511.106
 96 10 16 16 45 29.9960000  0 10 21 17  1 28 26  6 23 22  3  9      -0.003599431
 -16632689.675 9 -12941573.09148  20519865.408    20519866.6014   20519873.5804
      2692.729        2098.230
  -5470521.315 9  -4253998.89248  19652107.437    19652108.5024   19652115.1254
       347.944         271.125
 -10894276.757 9  -8470448.38046  22673847.049    22673848.1824   22673856.7444
      4748.705        3700.290
 -11715679.473 9  -8835015.638 9  19348835.060    19348836.325    19348842.317
       882.793         687.891
   1879585.617 9   1470108.29847  22521807.134    22521808.8784   22521815.2824
     -1728.525       -1346.903
   8091013.410 9   6300263.15046  22339984.802    22339986.3354   22339994.5334
     -2581.473       -2011.537
  -7484533.076 9  -5817061.00348  19603815.048    19603816.2954   19603822.8504
       557.399         434.337
   -310656.045 9   -235858.83846  23388726.775    23388727.3464   23388735.2844
      -907.528        -707.165
 -20745316.812 9 -16147347.75147  21372821.453    21372823.0334   21372829.9004
      3658.362        2850.672
  -3755633.923 8  -2911503.79146  23830208.810    23830210.3674   23830219.1384
      3217.011        2506.762
 96 10 16 16 45 59.9960000  0 10 21 17  1 28 26  6 23 22  3  9      -0.003620420
 -16713314.496 9 -13004397.61848  20504522.999    20504524.1944   20504531.1814
      2682.274        2090.084
  -5480805.917 9  -4262012.88748  19650150.267    19650151.4024   19650158.0404
       337.757         263.187
 -11036673.831 9  -8581407.13546  22646749.686    22646750.9094   22646759.4604
      4744.277        3696.839
 -11741837.937 9  -8855398.870 9  19343857.222    19343858.522    19343864.504
       861.173         671.044
   1931645.840 9   1510674.66747  22531713.801    22531715.5544   22531722.0284
     -1741.973       -1357.381
   8168576.026 9   6360701.47446  22354744.662    22354746.0354   22354754.2664
     -2589.134       -2017.507
  -7501096.722 9  -5829967.75348  19600663.076    19600664.3724   19600670.9264
       546.923         426.174
   -283330.920 9   -214566.58146  23393926.157    23393927.0924   23393935.1154
      -914.048        -712.245
 -20854847.363 9 -16232696.22547  21351978.521    21351980.0024   21351986.9244
      3643.781        2839.310
  -3852040.459 8  -2986625.69846  23811863.111    23811864.6894   23811873.4854
      3210.184        2501.442
 96 10 16 16 46 29.9960000  0 10 21 17  1 28 26  6 23 22  3  9      -0.003641392
 -16793621.660 9 -13066974.62148  20489241.073    20489242.2304   20489249.1884
      2671.198        2081.453
  -5490786.303 9  -4269789.82448  19648251.040    19648252.1754   19648258.8494
       327.134         254.910
 -11178925.795 9  -8692252.82646  22619679.957    22619681.2624   22619689.8354
      4738.794        3692.567
 -11767354.433 9  -8875281.867 9  19339001.575    19339002.876    19339008.851
       839.545         654.191
   1984098.627 9   1551546.92647  22541695.156    22541696.9454   22541703.4354
     -1755.067       -1367.585
   8246343.344 9   6421299.29346  22369543.240    22369544.7244   22369552.9844
     -2595.668       -2022.598
  -7517346.365 9  -5842629.81548  19597570.913    19597572.1614   19597578.7304
       535.840         417.538
   -255811.199 9   -193122.69346  23399163.103    23399163.8874   23399171.9484
      -921.140        -717.771
 -20963951.028 9 -16317712.06147  21331216.794    21331218.2184   21331225.1234
      3629.311        2828.035
  -3948248.873 8  -3061593.23746  23793555.245    23793556.8534   23793565.5674
      3203.366        2496.129
 96 10 16 16 46 59.9960000  0 10 21 17  1 28 26  6 23 22  3  9      -0.003662333
 -16873589.891 9 -13129287.52148  20474023.603    20474024.7744   20474031.7094
      2660.970        2073.483
  -5500431.316 9  -4277305.43548  19646415.676    19646416.8024   19646423.4784
       316.805         246.861
 -11321000.173 9  -8802960.13546  22592644.164    22592645.4514   22592654.0694
      4733.835        3688.703
 -11792211.872 9  -8894651.314 9  19334271.323    19334272.654    19334278.624
       818.558         637.837
   2036953.900 9   1592732.81047  22551753.254    22551754.9904   22551761.4744
     -1767.664       -1377.400
   8324316.331 9   6482057.37146  22384380.900    22384382.5044   22384390.8044
     -2601.565       -2027.194
  -7533248.212 9  -5855020.87048  19594544.894    19594546.1414   19594552.7454
       525.274         409.304
   -228052.448 9   -171492.55946  23404445.249    23404446.1994   23404454.2784
      -928.527        -723.528
 -21072605.370 9 -16402377.77447  21310540.639    21310541.9684   21310548.8204
      3615.146        2816.997
  -4044251.527 8  -3136400.44546  23775286.722    23775288.0954   23775296.7874
      3197.712        2491.724
 96 10 16 16 47 29.9960000  0 10 21 17  1 28 26  6 23 22  3  9      -0.003683257
 -16953264.133 9 -13191371.33848  20458862.085    20458863.2784   20458870.2244
      2651.691        2066.253
  -5509776.444 9  -4284587.36748  19644637.356    19644638.5034   19644645.1524
       307.191         239.370
 -11462930.766 9  -8913555.41146  22565635.785    22565636.9674   22565645.6144
      4729.267        3685.143
 -11816444.839 9  -8913534.162 9  19329659.911    19329661.254    19329667.232
       798.008         621.824
   2090185.504 9   1634211.93047  22561882.896    22561884.6204   22561891.1684
     -1780.049       -1387.051
   8402457.102 9   6542946.18546  22399250.710    22399252.1804   22399260.5874
     -2606.723       -2031.213
  -7548839.121 9  -5867169.63248  19591578.076    19591579.3064   19591585.9044
       515.214         401.465
   -200075.818 9   -149692.65046  23409769.874    23409770.0594   23409778.2014
      -935.623        -729.057
 -21180834.823 9 -16486712.41247  21289945.229    21289946.5874   21289953.4284
      3601.109        2806.059
  -4140087.609 8  -3211077.85446  23757049.722    23757051.2024   23757059.7024
      3192.475        2487.643
 96 10 16 16 47 59.9960000  0 10 21 17  1 28 26  6 23 22  3  9      -0.003704158
 -17032639.813 9 -13253222.51148  20443757.397    20443758.5814   20443765.5374
      2640.034        2057.169
  -5518805.027 9  -4291622.64348  19642919.309    19642920.4464   19642927.1144
       294.619         229.573
 -11604710.113 9  -9024032.81746  22538656.048    22538657.2084   22538665.9764
      4722.580        3679.932
 -11840041.118 9  -8931920.887 9  19325169.700    19325171.048    19325177.026
       775.039         603.926
   2143798.067 9   1675987.90747  22572084.904    22572086.7244   22572093.3174
     -1794.113       -1398.010
   8480760.888 9   6603962.01246  22414151.353    22414152.9034   22414161.3644
     -2613.453       -2036.457
  -7564119.419 9  -5879076.36048  19588670.366    19588671.5844   19588678.1764
       503.484         392.325
   -171856.223 9   -127703.40446  23415139.447    23415140.1684   23415148.2584
      -945.803        -736.989
 -21288616.459 9 -16570698.10347  21269435.193    21269436.4304   21269443.2484
      3584.318        2792.975
  -4235746.317 8  -3285617.05846  23738846.589    23738847.9444   23738856.4114
      3184.739        2481.615
 96 10 16 16 48 29.9960000  0 10 21 17  1 28 26  6 23 22  3  9      -0.003725024
 -17111698.593 9 -13314826.74548  20428713.008    20428714.1844   20428721.1394
      2631.220        2050.301
  -5527486.890 9  -4298387.73948  19641267.234    19641268.3734   19641275.0144
       284.750         221.883
 -11746331.307 9  -9134386.99146  22511706.421    22511707.5464   22511716.3774
      4719.493        3677.527
 -11862986.376 9  -8949800.323 9  19320803.415    19320804.734    19320810.732
       755.216         588.480
   2197783.757 9   1718054.62747  22582358.120    22582359.8544   22582366.4944
     -1804.310       -1405.956
   8559228.794 9   6665105.73646  22429083.333    22429084.9054   22429093.4204
     -2617.313       -2039.465
  -7579085.991 9  -5890738.62448  19585822.377    19585823.5774   19585830.1344
       494.906         385.641
   -143360.488 9   -105499.00446  23420562.227    23420562.7664   23420570.8414
      -953.251        -742.793
 -21395928.270 9 -16654317.69047  21249014.424    21249015.6744   21249022.4624
      3570.428        2782.152
  -4331210.947 8  -3360005.04646  23720680.378    23720681.6904   23720690.1184
      3180.057        2477.966
 96 10 16 16 48 59.9960000  0 10 21 17  1 28 26  6 23 22  3  9      -0.003745887
 -17190493.098 9 -13376225.05548  20413718.857    20413720.0714   20413727.0444
      2620.746        2042.140
  -5535867.812 9  -4304918.33848  19639672.466    19639673.5784   19639680.1954
       273.006         212.732
 -11887854.043 9  -9244664.43646  22484775.569    22484776.7094   22484785.5404
      4714.232        3673.428
 -11885324.416 9  -8967206.604 9  19316552.647    19316553.973    19316559.997
       732.888         571.082
   2252091.089 9   1760371.97847  22592692.432    22592694.2014   22592700.8584
     -1817.229       -1416.023
   8637835.271 9   6726357.43546  22444041.751    22444043.3744   22444051.8614
     -2624.245       -2044.866
  -7593796.904 9  -5902201.67648  19583022.970    19583024.1814   19583030.7254
       484.864         377.816
   -114638.690 9    -83118.42446  23426027.845    23426028.4934   23426036.4464
      -962.400        -749.922
 -21502815.521 9 -16737606.45747  21228674.452    21228675.7334   21228682.4884
      3554.387        2769.652
  -4426520.751 9  -3434272.41046  23702543.628    23702544.9354   23702553.2014
      3172.752        2472.274
 96 10 16 16 49 29.9960000  0 10 21 17  1 28 26  6 23 22  3  9      -0.003766711
 -17268981.457 9 -13437384.80748  20398783.021    20398784.2114   20398791.2084
      2611.658        2035.058
  -5543905.460 9  -4311181.45448  19638142.996    19638144.0914   19638150.6994
       262.607         204.629
 -12029217.784 9  -9354817.99146  22457874.930    22457876.0504   22457884.9694
      4709.846        3670.010
 -11906992.938 9  -8984091.184 9  19312429.276    19312430.615    19312436.663
       711.607         554.499
   2306779.002 9   1802985.88747  22603099.074    22603100.9304   22603107.6954
     -1828.582       -1424.869
   8716649.229 9   6787770.81546  22459039.541    22459041.2564   22459049.7694
     -2630.118       -2049.443
  -7608205.324 9  -5913429.01848  19580281.188    19580282.3994   19580288.8794
       475.469         370.495
    -85655.057 9    -60533.84546  23431543.000    23431543.8124   23431551.8914
      -969.836        -755.716
 -21609226.519 9 -16820524.11747  21208425.160    21208426.4294   21208433.1284
      3539.585        2758.118
  -4521611.656 8  -3508369.20046  23684448.455    23684449.7774   23684458.0304
      3166.571        2467.458
 96 10 16 16 49 59.9960000  0 10 21 17  1 28 26  6 23 22  3  9      -0.003787528
 -17347201.181 9 -13498335.23548  20383898.290    20383899.4764   20383906.4854
      2602.719        2028.093
  -5551627.135 9  -4317198.35848  19636673.644    19636674.7484   19636681.3634
       252.046         196.399
 -12170455.398 9  -9464873.25846  22430998.292    22430999.4544   22431008.3464
      4705.681        3666.764
 -11928031.776 9  -9000485.099 9  19308425.716    19308427.062    19308433.152
       690.776         538.267
   2361789.934 9   1845851.50347  22613567.423    22613569.1784   22613575.9434
     -1839.025       -1433.006
   8795635.191 9   6849318.24346  22474070.119    22474071.8134   22474080.4354
     -2635.967       -2054.000
  -7622331.074 9  -5924436.09948  19577593.167    19577594.3754   19577600.8154
       465.985         363.105
    -56461.685 9    -37785.83146  23437098.312    23437099.2354   23437107.2244
      -976.491        -760.902
 -21715196.220 9 -16903097.91147  21188259.782    21188261.1044   21188267.8014
      3524.818        2746.611
  -4616518.116 9  -3582322.28346  23666388.324    23666389.6774   23666397.9654
      3160.342        2462.604
 96 10 16 16 50 29.9960000  0 10 21 17  1 28 26  6 23 22  3  9      -0.003808353
 -17425170.543 9 -13559090.57948  20369061.196    20369062.4134   20369069.4414
      2595.331        2022.336
  -5559053.143 9  -4322984.87448  19635260.514    19635261.6504   19635268.2484
       243.032         189.376
 -12311571.238 9  -9574833.62246  22404144.784    22404146.0084   22404154.8784
      4701.988        3663.887
 -11948460.761 9  -9016403.804 9  19304538.190    19304539.562    19304545.675
       671.152         522.976
   2417097.516 9   1888948.27747  22624092.158    22624093.9034   22624100.6734
     -1848.151       -1440.118
   8874791.183 9   6910998.12746  22489133.172    22489134.8084   22489143.3164
     -2641.222       -2058.095
  -7636175.415 9  -5935223.89648  19574958.636    19574959.8894   19574966.3304
       457.021         356.120
    -27092.218 9    -14900.59246  23442687.291    23442688.1474   23442696.1024
      -981.386        -764.716
 -21820745.615 9 -16985344.18547  21168174.446    21168175.7394   21168182.4204
      3511.802        2736.469
  -4711260.940 9  -3656147.85346  23648359.304    23648360.6874   23648368.8454
      3155.713        2458.997
 96 10 16 16 50 59.9960000  0 10 21 17  1 28 26  6 23 22  3  9      -0.003829199
 -17502928.009 9 -13619680.80248  20354264.458    20354265.6674   20354272.7094
      2587.825        2016.487
  -5566201.533 9  -4328555.06448  19633900.237    19633901.3604   19633907.9674
       232.941         181.512
 -12452562.892 9  -9684697.22246  22377314.902    22377316.1534   22377325.0134
      4696.810        3659.852
 -11968295.489 9  -9031859.449 9  19300763.746    19300765.137    19300771.247
       650.590         506.953
   2472689.606 9   1932266.74247  22634671.047    22634672.7844   22634679.5374
     -1858.486       -1448.171
   8954113.678 9   6972807.75946  22504227.773    22504229.4724   22504238.0044
     -2647.380       -2062.894
  -7649740.929 9  -5945794.43348  19572377.184    19572378.4064   19572384.8914
       446.786         348.145
      2415.418 9      8092.30246  23448302.881    23448303.3724   23448311.2594
      -986.448        -768.661
 -21925901.499 9 -17067283.83447  21148163.904    21148165.2284   21148171.9454
      3497.821        2725.575
  -4805855.346 9  -3729857.77546  23630358.685    23630359.9064   23630368.0964
      3150.029        2454.568
 96 10 16 16 51 29.9960000  0 10 21 17  1 28 26  6 23 22  3  9      -0.003850048
 -17580441.141 9 -13680080.64148  20339514.146    20339515.3854   20339522.4654
      2578.947        2009.569
  -5573031.088 9  -4333876.80948  19632600.563    19632601.7174   19632608.3414
       221.531         172.621
 -12593390.930 9  -9794433.32546  22350516.182    22350517.4594   22350526.3284
      4691.024        3655.343
 -11987508.132 9  -9046830.354 9  19297107.673    19297109.100    19297115.195
       629.572         490.576
   2528590.399 9   1975825.76347  22645308.569    22645310.3694   22645317.1574
     -1868.935       -1456.313
   9033620.926 9   7034761.36246  22519357.428    22519359.1884   22519367.7794
     -2653.769       -2067.872
  -7662980.808 9  -5956111.22848  19569857.682    19569858.9484   19569865.4114
       435.285         339.183
     32085.957 9     31212.13546  23453949.121    23453949.6004   23453957.4964
      -992.244        -773.177
 -22030619.572 9 -17148882.33447  21128236.667    21128238.0564   21128244.7444
      3482.593        2713.709
  -4900271.466 9  -3803428.78446  23612391.669    23612393.0534   23612401.2504
      3143.592        2449.552
 96 10 16 16 51 59.9960000  0 10 21 17  1 28 26  6 23 22  3  9      -0.003870892
 -17657689.698 9 -13740274.31148  20324814.166    20324815.4544   20324822.5504
      2570.685        2003.131
  -5579519.003 9  -4338932.34248  19631365.926    19631367.1124   19631373.7564
       210.901         164.338
 -12734051.045 9  -9904038.55546  22323749.453    22323750.7474   22323759.5674
      4686.191        3651.577
 -12006098.495 9  -9061316.363 9  19293570.046    19293571.495    19293577.531
       609.523         474.953
   2584800.542 9   2019625.83747  22656005.120    22656006.8114   22656013.6734
     -1878.889       -1464.069
   9113313.680 8   7096859.52246  22534522.394    22534524.2854   22534532.9674
     -2659.247       -2072.140
  -7675897.984 9  -5966176.56048  19567399.666    19567400.9084   19567407.3624
       425.825         331.812
     61922.675 9     54461.46346  23459626.679    23459627.3524   23459635.3424
      -997.131        -776.985
 -22134884.200 9 -17230127.49047  21108395.755    21108397.1374   21108403.8234
      3468.236        2702.522
  -4994493.167 9  -3876848.30746  23594461.839    23594463.2424   23594471.4174
      3137.537        2444.834
 96 10 16 16 52 29.9960000  0 10 21 17  1 28 26  6 23 22  3  9      -0.003891720
 -17734662.096 9 -13800252.80048  20310166.786    20310168.1184   20310175.1864
      2561.610        1996.060
  -5585667.957 9  -4343723.75348  19630195.853    19630197.0304   19630203.6604
       199.757         155.655
 -12874543.202 9 -10013512.91446  22297014.665    22297016.0014   22297024.7384
      4680.890        3647.447
 -12024058.365 9  -9075311.087 9  19290152.490    19290153.889    19290159.864
       588.652         458.690
   2641350.618 9   2063690.79247  22666766.222    22666767.9534   22666774.8574
     -1890.331       -1472.985
   9193190.273 9   7159100.91846  22549722.442    22549724.3104   22549733.0254
     -2665.012       -2076.633
  -7688511.065 9  -5976004.95048  19564999.404    19565000.7144   19565007.1874
       415.990         324.148
     91935.839 9     77848.28246  23465338.005    23465338.6954   23465346.8264
     -1002.919        -781.495
 -22238696.942 9 -17311020.53847  21088640.836    21088642.2404   21088648.9134
      3453.450        2691.000
  -5088498.816 9  -3950099.46846  23576573.129    23576574.4854   23576582.6754
      3130.157        2439.083
 96 10 16 16 52 59.9960000  0 10 21 17  1 28 26  6 23 22  3  9      -0.003912526
 -17811346.093 9 -13860006.55448  20295574.435    20295575.6544   20295582.7184
      2550.925        1987.734
  -5591466.285 9  -4348241.94248  19629092.491    19629093.6704   19629100.2794
       187.277         145.930
 -13014881.413 9 -10122867.30146  22270309.234    22270310.5174   22270319.2284
      4675.532        3643.272
 -12041385.483 9  -9088812.750 9  19286855.262    19286856.691    19286862.594
       566.946         441.776
   2698255.348 9   2108032.09547  22677594.930    22677596.6264   22677603.5104
     -1902.854       -1482.743
   9273235.877 9   7221474.01446  22564954.646    22564956.5164   22564965.3424
     -2670.833       -2081.169
  -7700832.300 9  -5985605.92148  19562654.689    19562656.0364   19562662.5584
       405.937         316.315
    122133.679 9    101379.00946  23471084.532    23471085.1714   23471093.4784
     -1009.876        -786.916
 -22342048.389 9 -17391554.12447  21068973.745    21068975.1324   21068981.7954
      3436.957        2678.148
  -5182262.958 9  -4023162.45046  23558730.283    23558731.7784   23558739.9264
      3121.279        2432.165
 96 10 16 16 53 29.9960000  0 10 21 17  1 28 26  6 23 22  3  9      -0.003933332
 -17887743.242 9 -13919536.79548  20281036.467    20281037.7494   20281044.8144
      2542.372        1981.069
  -5596951.230 9  -4352515.94048  19628048.793    19628049.9714   19628056.5604
       178.480         139.075
 -13155122.218 9 -10232145.79047  22243622.178    22243623.5734   22243632.2434
      4673.743        3641.878
 -12058117.331 9  -9101850.567 9  19283671.322    19283672.750    19283678.621
       548.495         427.399
   2755479.641 9   2152622.41147  22688484.373    22688486.1004   22688492.9514
     -1912.075       -1489.928
   9353392.704 9   7283933.79246  22580207.945    22580209.8304   22580218.7614
     -2672.961       -2082.827
  -7712915.014 9  -5995021.02648  19560355.477    19560356.7724   19560363.3014
       399.664         311.426
    152485.840 9    125029.96646  23476860.309    23476861.0494   23476869.4624
     -1013.587        -789.808
 -22444957.999 9 -17471743.42948  21049390.692    21049392.0884   21049398.7464
      3423.731        2667.842
  -5275819.428 9  -4096063.59846  23540927.076    23540928.4814   23540936.7784
      3115.770        2427.873
 96 10 16 16 53 59.9960000  0 10 21 17  1 28 26  6 23 22  3  9      -0.003954110
 -17963810.122 9 -13978809.68548  20266561.391    20266562.7004   20266569.7834
      2529.694        1971.190
  -5602101.682 9  -4356529.29548  19627068.758    19627069.9214   19627076.4804
       165.972         129.329
 -13295221.994 9 -10341314.38647  22216961.992    22216963.4564   22216972.0904
      4667.362        3636.905
 -12074213.194 9  -9114392.811 9  19280608.403    19280609.810    19280615.690
       525.599         409.558
   2813066.118 9   2197494.95247  22699442.766    22699444.5374   22699451.3274
     -1925.949       -1500.739
   9433697.221 9   7346508.64046  22595489.370    22595491.2984   22595500.3014
     -2679.387       -2087.834
  -7724738.105 9  -6004233.82948  19558105.617    19558106.9284   19558113.4594
       389.369         303.404
    183027.489 9    148828.59846  23482672.525    23482672.9194   23482681.5144
     -1021.564        -796.024
 -22547392.882 9 -17551562.81548  21029897.995    21029899.4044   21029906.0654
      3406.289        2654.251
  -5369119.140 9  -4168764.66046  23523172.735    23523174.1394   23523182.4484
      3105.355        2419.757
 96 10 16 16 54 29.9960000  0 10 21 17  1 28 26  6 23 22  3  9      -0.003974866
 -18039536.538 9 -14037817.27948  20252151.144    20252152.4734   20252159.5154
      2518.386        1962.379
  -5606929.793 9  -4360291.47648  19626149.995    19626151.2034   19626157.7484
       155.332         121.038
 -13435175.893 9 -10450369.30747  22190329.655    22190331.0964   22190339.6854
      4662.287        3632.951
 -12089671.305 9  -9126438.105 9  19277666.811    19277668.225    19277674.140
       504.504         393.120
   2871013.144 9   2242648.43847  22710469.756    22710471.5804   22710478.2624
     -1937.390       -1509.655
   9514135.149 9   7409187.46446  22610796.219    22610798.1604   22610807.2054
     -2683.656       -2091.160
  -7736290.870 9  -6013235.99248  19555907.180    19555908.5184   19555915.0404
       380.385         296.404
    213761.171 9    172776.85646  23488520.790    23488521.3504   23488529.9564
     -1027.763        -800.854
 -22649351.619 9 -17631011.17748  21010495.883    21010497.3264   21010504.0024
      3390.340        2641.823
  -5462164.227 9  -4241267.30246  23505466.717    23505468.1834   23505476.5304
      3097.298        2413.479
 96 10 16 16 54 59.9960000  0 10 21 17  1 28 26  6 23 22  3  9      -0.003995593
 -18114913.734 9 -14096552.74848  20237807.404    20237808.6904   20237815.6824
      2508.638        1954.783
  -5611421.496 9  -4363791.51948  19625295.311    19625296.5094   19625303.0294
       145.937         113.717
 -13574950.487 9 -10559284.52147  22163731.581    22163732.9054   22163741.4054
      4657.562        3629.269
 -12104479.719 9  -9137977.144 9  19274848.822    19274850.252    19274856.234
       484.427         377.476
   2929304.473 9   2288070.20047  22721562.343    22721564.1104   22721570.7974
     -1946.959       -1517.111
   9594720.785 9   7471981.37046  22626131.304    22626133.2254   22626142.2744
     -2686.961       -2093.736
  -7747560.363 9  -6022017.42748  19553762.728    19553764.0204   19553770.5634
       372.528         290.281
    244686.522 9    196874.46246  23494405.221    23494406.2514   23494415.0214
     -1032.320        -804.405
 -22750803.942 9 -17710064.93948  20991190.183    20991191.6084   20991198.3044
      3374.815        2629.726
  -5554962.165 9  -4313577.34546  23487807.839    23487809.3844   23487817.6794
      3091.094        2408.645
 96 10 16 16 55 29.9960000  0 10 21 17  1 28 26  6 23 22  3  9      -0.004016321
 -18190017.179 9 -14155074.90548  20223515.763    20223516.9634   20223523.9804
      2499.606        1947.745
  -5615641.770 9  -4367080.05748  19624492.287    19624493.4374   19624499.9684
       136.465         106.336
 -13714571.960 9 -10668080.41847  22137162.579    22137163.8194   22137172.2794
      4651.572        3624.602
 -12118686.901 9  -9149047.683 9  19272145.215    19272146.689    19272152.731
       463.825         361.422
   2987883.438 9   2333716.10247  22732709.576    22732711.3404   22732718.0154
     -1957.075       -1524.994
   9675408.189 9   7534854.57646  22641485.817    22641487.5894   22641496.5634
     -2691.071       -2096.938
  -7758591.408 9  -6030613.05448  19551663.585    19551664.8844   19551671.4324
       363.916         283.571
    275750.869 9    221080.38746  23500316.771    23500317.7494   23500326.4954
     -1037.431        -808.388
 -22851798.049 9 -17788761.64548  20971971.599    20971973.0664   20971979.7544
      3359.296        2617.633
  -5647590.769 9  -4385755.42946  23470181.256    23470182.7844   23470191.0324
      3085.033        2403.922
 96 10 16 16 55 59.9950000  0 10 21 17  1 28 26  6 23 22  3  9      -0.004037034
 -18264857.670 9 -14213392.16948  20209273.998    20209275.2624   20209282.3024
      2490.257        1940.460
  -5619570.724 9  -4370141.59048  19623744.639    19623745.7724   19623752.3454
       125.776          98.007
 -13853997.750 9 -10776723.84347  22110630.814    22110631.9424   22110640.3844
      4644.318        3618.949
 -12132270.446 9  -9159632.273 9  19269560.352    19269561.824    19269567.913
       442.202         344.573
   3046766.543 9   2379598.99447  22743914.614    22743916.4664   22743923.1714
     -1968.089       -1533.576
   9756225.966 9   7597829.37646  22656865.017    22656866.7994   22656875.7584
     -2696.568       -2101.222
  -7769359.088 9  -6039003.46948  19549614.542    19549615.8384   19549622.3704
       354.237         276.029
    306974.292 9    245410.25546  23506258.575    23506259.5224   23506268.3344
     -1043.740        -813.304
 -22952314.431 9 -17867086.09148  20952843.887    20952845.4244   20952852.1254
      3342.416        2604.480
  -5740018.215 9  -4457776.76246  23452592.819    23452594.4024   23452602.6244
      3077.577        2398.112
 96 10 16 16 56 29.9950000  0 10 21 17  1 28 26  6 23 22  3  9      -0.004057731
 -18339444.927 9 -14271512.09948  20195080.466    20195081.7844   20195088.8524
      2482.733        1934.597
  -5623191.019 9  -4372962.60948  19623055.701    19623056.8524   19623063.4404
       115.793          90.228
 -13993229.551 9 -10885216.11147  22084135.828    22084136.9624   22084145.3824
      4638.131        3614.128
 -12145227.447 9  -9169728.648 9  19267094.789    19267096.211    19267102.305
       421.878         328.736
   3105952.187 9   2425717.62647  22755177.346    22755179.1954   22755185.8334
     -1977.341       -1540.785
   9837192.429 9   7660920.02946  22672272.666    22672274.2824   22672283.2464
     -2701.144       -2104.787
  -7779850.428 9  -6047178.54748  19547618.113    19547619.4184   19547625.9204
       345.583         269.285
    338359.067 9    269865.86646  23512230.998    23512231.9674   23512240.6314
     -1048.234        -816.806
 -23052350.422 9 -17945036.20748  20933807.672    20933809.2054   20933815.8904
      3326.863        2592.361
  -5832254.979 9  -4529649.51246  23435040.801    23435042.3224   23435050.5334
      3071.741        2393.564
 96 10 16 16 56 59.9950000  0 10 21 17  1 28 26  6 23 22  3  9      -0.004078419
 -18413816.889 9 -14329464.26448  20180928.045    20180929.3144   20180936.3504
      2475.157        1928.694
  -5626504.357 9  -4375544.44648  19622425.201    19622426.3614   19622432.9304
       105.074          81.876
 -14132279.926 9 -10993567.00047  22057675.398    22057676.5124   22057684.9494
      4631.944        3609.307
 -12157572.348 9  -9179348.066 9  19264745.723    19264747.116    19264753.161
       401.091         312.538
   3165423.651 9   2472058.98447  22766494.373    22766496.3104   22766502.9194
     -1987.475       -1548.682
   9918308.989 9   7724127.63746  22687708.725    22687710.2944   22687719.2734
     -2706.526       -2108.981
  -7790081.344 9  -6055150.70248  19545671.286    19545672.5744   19545679.0504
       336.401         262.131
    369880.421 9    294427.89546  23518229.878    23518230.4134   23518238.9854
     -1053.362        -820.802
 -23151916.153 9 -18022619.90048  20914860.968    20914862.4744   20914869.1594
      3310.928        2579.944
  -5924306.609 9  -4601377.99946  23417524.054    23417525.4604   23417533.6574
      3064.817        2388.169
 96 10 16 16 57 29.9950000  0 10 21 17  1 28 26  6 23 22  3  9      -0.004099103
 -18487963.139 9 -14387240.55348  20166818.513    20166819.7254   20166826.8004
      2467.683        1922.870
  -5629502.157 9  -4377880.40648  19621854.725    19621855.8994   19621862.4974
        94.709          73.799
 -14271162.695 9 -11101787.29947  22031246.792    22031247.9874   22031256.4244
      4626.814        3605.310
 -12169310.868 9  -9188494.980 9  19262512.088    19262513.414    19262519.384
       381.388         297.185
   3225184.393 9   2518625.74447  22777866.525    22777868.4774   22777875.0634
     -1996.498       -1555.713
   9999569.782 9   7787447.61146  22703172.135    22703173.8244   22703182.7934
     -2710.861       -2112.359
  -7800049.067 9  -6062917.76848  19543774.502    19543775.7704   19543782.2504
       328.127         255.683
    401536.704 9    319095.04846  23524253.622    23524254.4414   23524262.9484
     -1057.028        -823.658
 -23251030.734 9 -18099852.03848  20896000.153    20896001.6234   20896008.2964
      3296.674        2568.837
  -6016152.553 9  -4672946.21646  23400046.367    23400047.7634   23400055.9424
      3057.968        2382.832
 96 10 16 16 57 59.9950000  0 10 21 17  1 28 26  6 23 22  3  9      -0.004119780
 -18561847.051 9 -14444812.42448  20152758.766    20152760.0424   20152767.1524
      2458.298        1915.557
  -5632160.273 9  -4379951.67948  19621348.909    19621350.0654   19621356.6754
        82.958          64.642
 -14409865.006 9 -11209866.97947  22004852.525    22004853.8134   22004862.2144
      4620.538        3600.419
 -12180431.232 9  -9197160.216 9  19260396.023    19260397.334    19260403.230
       360.454         280.873
   3285235.786 9   2565418.98747  22789294.076    22789295.9814   22789302.5074
     -2006.505       -1563.510
  10080991.500 8   7850893.00246  22718666.205    22718667.9514   22718677.0234
     -2716.684       -2116.897
  -7809744.588 9  -6070472.73248  19541929.492    19541930.7864   19541937.2744
       318.554         248.224
    433327.644 9    343867.14346  23530303.338    23530304.1984   23530312.5594
     -1061.737        -827.327
 -23349684.510 9 -18176725.10848  20877226.976    20877228.4324   20877235.0934
      3280.767        2556.442
  -6107756.747 9  -4744326.06246  23382614.654    23382616.0794   23382624.2624
      3049.577        2376.294
 96 10 16 16 58 29.9950000  0 10 21 17  1 28 26  6 23 22  3  9      -0.004140469
 -18635471.155 9 -14502181.84348  20138748.503    20138749.8254   20138756.9414
      2448.851        1908.196
  -5634490.993 9  -4381767.83848  19620905.374    19620906.5454   19620913.1374
        71.436          55.664
 -14548410.816 9 -11317824.71347  21978488.040    21978489.4044   21978497.7564
      4614.791        3595.941
 -12190954.256 9  -9205359.991 9  19258393.580    19258394.873    19258400.765
       339.948         264.894
   3345556.667 9   2612422.22247  22800772.749    22800774.6374   22800781.2284
     -2016.159       -1571.033
  10162550.718 9   7914445.50946  22734186.277    22734188.2644   22734197.3674
     -2721.494       -2120.645
  -7819172.673 9  -6077819.30548  19540135.451    19540136.6894   19540143.1834
       308.999         240.778
    465225.273 9    368722.37646  23536373.554    23536374.2254   23536382.4574
     -1065.997        -830.647
 -23447899.469 9 -18253256.23848  20858537.276    20858538.7304   20858545.4174
      3265.643        2544.657
  -6199135.154 9  -4815529.97646  23365225.792    23365227.2924   23365235.4634
      3041.099        2369.688
 96 10 16 16 58 59.9950000  0 10 21 17  1 28 26  6 23 22  3  9      -0.004161146
 -18708790.898 9 -14559314.09948  20124796.350    20124797.5594   20124804.6484
      2438.321        1899.990
  -5636469.774 9  -4383309.76048  19620528.799    19620529.9984   19620536.5774
        59.880          46.660
 -14686774.340 9 -11425640.41047  21952158.331    21952159.6554   21952167.9684
      4608.672        3591.173
 -12200849.681 9  -9213070.728 9  19256510.470    19256511.800    19256517.729
       319.015         248.583
   3406187.922 9   2659667.30047  22812310.508    22812312.3584   22812319.0074
     -2026.507       -1579.096
  10244258.544 9   7978113.84046  22749735.102    22749736.7914   22749745.9394
     -2726.093       -2124.228
  -7828305.661 9  -6084935.92948  19538397.411    19538398.7264   19538405.2524
       299.127         233.086
    497270.909 9    393692.93446  23542471.842    23542472.3674   23542480.5414
     -1071.090        -834.615
 -23545642.937 9 -18329419.97648  20839937.317    20839938.7864   20839945.4674
      3249.838        2532.341
  -6290243.156 9  -4886523.18146  23347888.610    23347890.0484   23347898.1294
      3032.016        2362.610
 96 10 16 16 59 29.9950000  0 10 21 17  1 28 26  6 23 22  3  9      -0.004181815
 -18781793.815 9 -14616199.47848  20110904.333    20110905.5494   20110912.6234
      2429.018        1892.741
  -5638107.144 9  -4384585.64948  19620217.238    19620218.4354   19620225.0244
        49.663          38.698
 -14824947.871 9 -11533308.04247  21925864.742    21925866.1194   21925874.4184
      4603.120        3586.847
 -12210116.693 9  -9220291.795 9  19254746.877    19254748.300    19254754.301
       299.084         233.052
   3467131.218 9   2707155.52747  22823907.652    22823909.5254   22823916.2254
     -2036.097       -1586.569
  10326101.586 9   8041887.54046  22765309.403    22765311.0954   22765320.2724
     -2729.756       -2127.082
  -7837141.381 9  -6091820.91448  19536716.090    19536717.3714   19536723.8784
       290.252         226.170
    529461.721 9    418776.59846  23548596.510    23548598.1274   23548606.2134
     -1074.710        -837.436
 -23642909.659 9 -18405212.22348  20821428.004    20821429.5354   20821436.2084
      3234.826        2520.644
  -6381078.150 9  -4957303.64946  23330603.374    23330604.6844   23330612.7424
      3023.977        2356.346
 96 10 16 16 59 59.9950000  0 10 21 17  1 28 26  6 23 22  3  9      -0.004202468
 -18854507.102 9 -14672859.17448  20097067.333    20097068.6354   20097075.7154
      2419.797        1885.556
  -5639425.440 9  -4385612.90848  19619966.414    19619967.6274   19619974.1904
        39.272          30.602
 -14962932.883 9 -11640828.78947  21899607.070    21899608.4314   21899616.6784
      4597.148        3582.193
 -12218763.428 9  -9227029.526 9  19253101.340    19253102.831    19253108.928
       278.553         217.054
   3528395.507 9   2754893.88247  22835565.831    22835567.7204   22835574.5004
     -2047.005       -1595.069
  10408068.802 9   8105757.97846  22780907.164    22780908.8694   22780918.2614
     -2733.444       -2129.956
  -7845689.763 9  -6098481.99748  19535089.407    19535090.6894   19535097.1994
       280.747         218.764
    561788.485 9    443966.22946  23554748.306    23554749.6984   23554757.8244
     -1079.287        -841.003
 -23739690.114 9 -18480625.56248  20803011.303    20803012.8094   20803019.4734
      3218.344        2507.801
  -6471650.209 9  -5027879.23846  23313368.094    23313369.3544   23313377.3904
      3015.402        2349.664
 96 10 16 17  0 29.9950000  0 10 21 17  1 28 26  6 23 22  3  9      -0.004223114
 -18926959.326 9 -14729315.44548  20083280.060    20083281.4264   20083288.4954
      2410.040        1877.953
  -5640445.824 9  -4386408.02648  19619772.260    19619773.4804   19619780.0514
        28.383          22.117
 -15100756.539 9 -11748223.79347  21873380.195    21873381.4634   21873389.6524
      4590.623        3577.109
 -12226809.871 9  -9233299.499 9  19251570.136    19251571.645    19251577.796
       257.511         200.658
   3589968.613 9   2802872.87147  22847282.847    22847284.7274   22847291.5204
     -2058.269       -1603.846
  10490119.657 9   8169693.58246  22796521.281    22796522.7624   22796532.0604
     -2737.153       -2132.846
  -7853970.370 9  -6104934.42948  19533513.683    19533514.9444   19533521.4754
       271.202         211.326
    594239.522 9    469252.68346  23560923.482    23560924.9344   23560933.1494
     -1084.574        -845.123
 -23835991.863 9 -18555665.88348  20784685.722    20784687.1914   20784693.8654
      3201.223        2494.459
  -6561982.221 9  -5098267.77446  23296178.354    23296179.7344   23296187.7394
      3006.464        2342.699
 96 10 16 17  0 59.9950000  0 10 21 17  1 28 26  6 23 22  3  9      -0.004243700
 -18999106.127 9 -14785533.72348  20069551.096    20069552.3454   20069559.3674
      2400.364        1870.414
  -5641123.870 9  -4386936.38848  19619643.335    19619644.4834   19619651.0694
        17.375          13.539
 -15238361.495 9 -11855448.37547  21847195.005    21847196.0624   21847204.2584
      4583.525        3571.578
 -12234209.912 9  -9239065.784 9  19250162.058    19250163.484    19250169.668
       236.438         184.237
   3651894.482 9   2851126.73547  22859067.067    22859068.8624   22859075.6644
     -2069.348       -1612.479
  10572302.478 9   8233732.01246  22812160.374    22812161.7674   22812171.1044
     -2741.053       -2135.885
  -7861958.633 9  -6111159.05648  19531993.582    19531994.7954   19532001.3414
       261.954         204.120
    626863.679 9    494674.02846  23567131.474    23567133.1084   23567141.4134
     -1089.750        -849.156
 -23931755.396 9 -18630286.81948  20766462.600    20766463.9994   20766470.6864
      3183.641        2480.759
  -6652031.839 9  -5168436.24846  23279042.550    23279043.8604   23279051.8314
      2997.505        2335.718
 96 10 16 17  1 29.9950000  0 10 21 17  1 28 26  6 23 22  3  9      -0.004264311
 -19070960.973 9 -14841524.50048  20055877.653    20055878.8454   20055885.8474
      2391.109        1863.202
  -5641456.588 9  -4387195.66848  19619580.108    19619581.1964   19619587.7794
         5.937           4.626
 -15375733.390 9 -11962491.35547  21821054.078    21821055.0094   21821063.2144
      4575.767        3565.533
 -12240967.701 9  -9244331.614 9  19248876.200    19248877.574    19248883.741
       215.292         167.760
   3714155.870 9   2899642.04447  22870915.119    22870916.8924   22870923.6714
     -2080.008       -1620.785
  10654619.740 8   8297875.19646  22827824.674    22827826.3344   22827835.5904
     -2745.434       -2139.299
  -7869663.805 9  -6117163.08948  19530527.430    19530528.5934   19530535.0834
       253.000         197.143
    659650.463 9    520222.09446  23573370.251    23573372.2214   23573380.6034
     -1094.771        -853.068
 -24026978.232 9 -18704486.42948  20748342.255    20748343.6894   20748350.3674
      3165.784        2466.845
  -6741807.226 9  -5238391.05246  23261958.865    23261960.1884   23261968.1134
      2988.680        2328.841
 96 10 16 17  1 59.9950000  0 10 21 17  1 28 26  6 23 22  3  9      -0.004284849
 -19142562.608 9 -14897317.97448  20042252.285    20042253.4744   20042260.5004
      2381.699        1855.869
  -5641472.796 9  -4387208.31748  19619577.044    19619578.1424   19619584.7144
        -5.585          -4.352
 -15512901.848 9 -12069375.80947  21794951.619    21794952.6844   21794960.8864
      4568.253        3559.678
 -12247121.704 9  -9249126.959 9  19247705.217    19247706.563    19247712.709
       194.374         151.460
   3776692.881 9   2948372.11847  22882815.586    22882817.3614   22882824.1284
     -2089.375       -1628.084
  10737024.928 9   8362086.90846  22843505.993    22843507.6654   22843517.0324
     -2748.669       -2141.820
  -7877135.951 9  -6122985.54348  19529105.555    19529106.6994   19529113.1644
       244.442         190.474
    692561.831 8    545867.25446  23579633.598    23579635.1644   23579643.4664
     -1099.825        -857.006
 -24121690.173 9 -18778287.93748  20730319.096    20730320.6204   20730327.2694
      3147.922        2452.926
  -6831346.809 9  -5308162.09846  23244920.045    23244921.3984   23244929.2584
      2980.036        2322.106
 96 10 16 17  2 29.9950000  0 10 21 17  1 28 26  6 23 22  3  9      -0.004305379
 -19213895.760 9 -14952902.23948  20028678.036    20028679.2404   20028686.2694
      2374.365        1850.155
  -5641151.298 9  -4386957.81848  19619638.249    19619639.3234   19619645.9094
       -15.108         -11.772
 -15649853.911 9 -12176091.65347  21768890.426    21768891.5474   21768899.7664
      4562.436        3555.145
 -12252662.854 9  -9253444.758 9  19246650.817    19246652.162    19246658.278
       175.662         136.879
   3839476.251 9   2997294.15547  22894762.937    22894764.6874   22894771.4624
     -2095.685       -1633.001
  10819519.205 8   8426368.03146  22859204.485    22859205.9574   22859215.2144
     -2750.333       -2143.117
  -7884369.700 9  -6128622.23848  19527728.971    19527730.1584   19527736.6044
       238.496         185.841
    725600.367 9    571611.48646  23585920.193    23585922.2454   23585930.6064
     -1102.120        -858.795
 -24215891.560 9 -18851691.61548  20712393.178    20712394.7214   20712401.3684
      3132.779        2441.126
  -6920643.925 9  -5377744.21247  23227927.377    23227928.7034   23227936.5164
      2973.652        2317.131
 96 10 16 17  2 59.9950000  0 10 21 17  1 28 26  6 23 22  3  9      -0.004325911
 -19284977.654 9 -15008290.71848  20015151.631    20015152.8334   20015159.8524
      2364.299        1842.311
  -5640514.925 9  -4386461.95748  19619759.398    19619760.4474   19619767.0494
       -27.486         -21.418
 -15786600.441 9 -12282647.33647  21742868.370    21742869.4834   21742877.7314
      4553.977        3548.553
 -12257613.140 9  -9257302.143 9  19245708.800    19245710.161    19245716.250
       154.184         120.143
   3902481.973 9   3046389.46647  22906752.647    22906754.3624   22906761.1264
     -2104.779       -1640.088
  10902090.773 8   8490709.39746  22874917.510    22874918.9674   22874928.1014
     -2754.532       -2146.389
  -7891395.661 9  -6134097.01648  19526391.928    19526393.1354   19526399.6114
       229.689         178.978
    758735.866 9    597431.27246  23592226.527    23592227.7754   23592236.1254
     -1107.110        -862.683
 -24309611.957 9 -18924720.49248  20694558.838    20694560.3564   20694566.9504
      3115.021        2427.289
  -7009709.899 9  -5447146.20347  23210978.735    23210979.9914   23210987.7404
      2963.998        2309.609
 96 10 16 17  3 29.9950000  0 10 21 17  1 28 26  6 23 22  3  9      -0.004346449
 -19355808.023 9 -15063483.21148  20001673.042    20001674.2414   20001681.2424
      2356.663        1836.361
  -5639548.893 9  -4385709.22748  19619943.212    19619944.2894   19619950.8904
       -37.800         -29.455
 -15923147.578 9 -12389047.65847  21716884.275    21716885.3674   21716893.6564
      4548.272        3544.108
 -12261962.874 9  -9260691.567 9  19244881.039    19244882.426    19244888.503
       134.837         105.068
   3965711.589 9   3095659.22547  22918784.899    22918786.5864   22918793.4014
     -2111.520       -1645.340
  10984738.677 9   8555110.24046  22890644.812    22890646.5464   22890655.6154
     -2756.296       -2147.763
  -7898208.196 9  -6139405.48948  19525095.577    19525096.7604   19525103.2134
       223.443         174.111
    791967.169 9    623325.72346  23598550.123    23598551.5414   23598559.9834
     -1109.339        -864.420
 -24402838.490 9 -18997364.54048  20676818.417    20676819.9384   20676826.5294
      3099.222        2414.978
  -7098534.104 9  -5516359.82247  23194075.990    23194077.2774   23194085.0714
      2956.584        2303.832
 96 10 16 17  3 59.9950000  0 10 21 17  1 28 26  6 23 22  3  9      -0.004367004
 -19426393.755 9 -15118485.07248  19988241.013    19988242.2014   19988249.1934
      2349.010        1830.397
  -5638265.225 9  -4384708.98648  19620187.552    19620188.6034   19620195.1894
       -47.946         -37.361
 -16059523.659 9 -12495314.69547  21690932.819    21690933.8554   21690942.1334
      4543.411        3540.320
 -12265724.046 9  -9263622.370 9  19244165.215    19244166.683    19244172.757
       115.753          90.197
   4029157.870 9   3145097.82347  22930858.326    22930860.0984   22930866.8694
     -2118.447       -1650.738
  11067445.945 8   8619557.33846  22906383.557    22906385.3044   22906394.5234
     -2757.729       -2148.880
  -7904820.009 9  -6144557.55448  19523837.459    19523838.5994   19523845.0324
       217.053         169.132
    825281.056 9    649284.52746  23604890.113    23604891.0094   23604899.5344
     -1111.671        -866.237
 -24495592.424 9 -19069640.33448  20659167.975    20659169.4514   20659176.0274
      3084.244        2403.307
  -7187123.815 9  -5585390.72347  23177217.856    23177219.1504   23177226.9574
      2949.221        2298.094
 96 10 16 17  4 29.9950000  0 10 21 17  1 28 26  6 23 22  3  9      -0.004387588
 -19496748.359 9 -15173306.83848  19974852.972    19974854.1204   19974861.1254
      2341.010        1824.164
  -5636675.470 9  -4383470.24148  19620490.037    19620491.1024   19620497.7104
       -58.111         -45.281
 -16195752.504 9 -12601467.00747  21665009.184    21665010.3624   21665018.5804
      4538.298        3536.336
 -12268908.811 9  -9266104.025 9  19243559.152    19243560.645    19243566.722
        96.378          75.100
   4092826.990 9   3194710.06247  22942974.198    22942975.9824   22942982.7834
     -2126.531       -1657.037
  11150208.107 8   8684047.20546  22922132.985    22922134.5464   22922143.7114
     -2759.997       -2150.647
  -7911229.572 9  -6149552.02448  19522617.738    19522618.9134   19522625.3314
       210.045         163.671
    858671.501 9    675302.98046  23611244.525    23611245.0944   23611253.6974
     -1114.462        -868.412
 -24587894.889 9 -19141564.32748  20641603.412    20641604.8604   20641611.4534
      3068.843        2391.306
  -7275482.871 9  -5654241.89547  23160403.603    23160404.9504   23160412.8004
      2941.091        2291.759
 96 10 16 17  4 59.9950000  0 10 21 17  1 28 26  6 23 22  3  9      -0.004408184
 -19566855.278 9 -15227935.59648  19961512.023    19961513.2084   19961520.2114
      2333.630        1818.413
  -5634775.388 9  -4381989.67948  19620851.569    19620852.6754   19620859.3004
       -67.796         -52.828
 -16331829.288 9 -12707500.82347  21639114.666    21639115.7764   21639123.9764
      4534.158        3533.110
 -12271507.396 9  -9268128.918 9  19243064.663    19243066.161    19243072.255
        77.684          60.533
   4156750.885 9   3244520.82647  22955138.518    22955140.3384   22955147.0824
     -2134.120       -1662.951
  11233042.319 9   8748593.21846  22937896.030    22937897.5874   22937906.7014
     -2761.421       -2151.757
  -7917422.368 9  -6154377.58548  19521439.268    19521440.4744   19521446.9084
       203.469         158.547
    892146.331 9    701387.18946  23617614.664    23617615.2074   23617623.8004
     -1116.376        -869.903
 -24679724.806 9 -19213120.10948  20624128.684    20624130.1784   20624136.7824
      3053.873        2379.641
  -7363590.969 9  -5722897.52147  23143637.073    23143638.5124   23143646.2944
      2933.684        2285.988
 96 10 16 17  5 29.9950000  0 10 21 17  1 28 26  6 23 22  3  9      -0.004428784
 -19636706.595 9 -15282365.18548  19948219.781    19948220.9444   19948227.9644
      2323.903        1810.834
  -5632553.222 9  -4380258.14048  19621274.390    19621275.5344   19621282.1724
       -79.531         -61.972
 -16467735.504 9 -12813401.73447  21613252.606    21613253.6254   21613261.8514
      4526.751        3527.338
 -12273514.026 9  -9269692.544 9  19242682.812    19242684.323    19242690.430
        56.873          44.317
   4220933.553 9   3294533.23247  22967352.075    22967353.9684   22967360.7044
     -2144.035       -1670.677
  11315957.847 8   8813202.59446  22953674.416    22953676.0694   22953685.0564
     -2765.381       -2154.842
  -7923376.614 9  -6159017.26148  19520306.254    19520307.4624   19520313.8754
       194.159         151.293
    925705.446 9    727537.05446  23624000.320    23624001.2604   23624009.8954
     -1120.220        -872.899
 -24771064.609 9 -19284293.97648  20606747.284    20606748.7694   20606755.3884
      3036.400        2366.026
  -7451439.105 9  -5791350.56047  23126920.005    23126921.5164   23126929.3554
      2923.530        2278.075
 96 10 16 17  5 59.9950000  0 10 21 17  1 28 26  6 23 22  3  9      -0.004449386
 -19706302.295 9 -15336595.59548  19934976.102    19934977.2954   19934984.3444
      2315.148        1804.011
  -5630016.336 9  -4378281.37048  19621757.162    19621758.3064   19621764.9784
       -90.332         -70.389
 -16603441.806 9 -12919146.86547  21587428.509    21587429.5384   21587437.7454
      4519.567        3521.741
 -12274934.983 9  -9270799.802 9  19242412.438    19242413.932    19242420.059
        37.061          28.879
   4285378.285 9   3344749.84847  22979615.596    22979617.4584   22979624.1704
     -2152.930       -1677.608
  11398953.983 8   8877874.78945  22969468.263    22969469.8194   22969478.6684
     -2768.514       -2157.284
  -7929079.054 9  -6163460.72348  19519221.150    19519222.3404   19519228.7514
       185.326         144.410
    959345.392 8    753749.94246  23630401.804    23630402.7354   23630411.3954
     -1123.097        -875.141
 -24861926.144 9 -19355095.16848  20589456.937    20589458.3674   20589464.9964
      3019.966        2353.220
  -7539010.151 9  -5859587.71447  23110255.821    23110257.2494   23110265.1564
      2913.832        2270.518
 96 10 16 17  6 29.9950000  0 10 21 17  1 28 26  6 23 22  3  9      -0.004469958
 -19775619.176 9 -15390608.75148  19921785.498    19921786.7164   19921793.7764
      2306.316        1797.129
  -5627142.581 9  -4376042.10348  19622304.020    19622305.2154   19622311.8754
      -100.625         -78.409
 -16738902.372 9 -13024700.51947  21561651.156    21561652.2244   21561660.3934
      4511.717        3515.624
 -12275741.394 9  -9271428.196 9  19242259.019    19242260.492    19242266.621
        17.298          13.479
   4350106.629 9   3395187.45547  22991932.997    22991934.8824   22991941.6224
     -2161.687       -1684.431
  11482070.432 8   8942640.73545  22985284.972    22985286.3494   22985295.2494
     -2771.933       -2159.948
  -7934507.016 9  -6167690.31148  19518188.195    19518189.4274   19518195.8354
       177.175         138.058
    993080.859 9    780037.21846  23636821.845    23636822.3604   23636831.0734
     -1125.302        -876.859
 -24952261.055 9 -19425486.01048  20572266.773    20572268.1964   20572274.8064
      3002.834        2339.871
  -7626264.639 9  -5927578.20247  23093651.820    23093653.2664   23093661.1394
      2903.706        2262.628
 96 10 16 17  6 59.9950000  0 10 21 17  1 28 26  6 23 22  3  9      -0.004490508
 -19844675.308 9 -15444418.71948  19908644.543    19908645.7764   19908652.7974
      2297.841        1790.525
  -5623964.974 9  -4373566.06448  19622908.717    19622909.9054   19622916.5554
      -110.968         -86.469
 -16874130.205 9 -13130072.81447  21535918.007    21535919.2184   21535927.3554
      4503.744        3509.411
 -12275962.842 9  -9271600.774 9  19242216.932    19242218.351    19242224.475
        -2.201          -1.715
   4415083.837 9   3445818.98447  23004297.760    23004299.6114   23004306.4214
     -2169.660       -1690.644
  11565281.664 8   9007480.55645  23001119.548    23001120.9714   23001129.8084
     -2774.942       -2162.292
  -7939709.151 9  -6171743.92948  19517198.274    19517199.5084   19517205.9264
       169.872         132.368
   1026876.488 8    806371.40546  23643252.703    23643253.4374   23643262.2974
     -1127.369        -878.469
 -25042089.153 9 -19495481.93248  20555173.062    20555174.5034   20555181.0754
      2986.027        2326.774
  -7713231.635 9  -5995344.67347  23077102.463    23077103.9224   23077111.8494
      2894.357        2255.343
 96 10 16 17  7 29.9950000  0 10 21 17  1 28 26  6 23 22  3  9      -0.004511033
 -19913475.168 9 -15498028.99648  19895552.415    19895553.6094   19895560.6264
      2288.827        1783.502
  -5620473.435 9  -4370845.40748  19623573.154    19623574.3354   19623580.9984
      -121.807         -94.915
 -17009102.640 9 -13235246.10747  21510233.602    21510234.8024   21510242.9144
      4494.681        3502.349
 -12275593.077 9  -9271312.665 9  19242287.319    19242288.743    19242294.842
       -22.402         -17.456
   4480307.042 9   3496642.21547  23016709.392    23016711.1784   23016718.0474
     -2178.443       -1697.488
  11648584.275 8   9072391.57045  23016971.588    23016972.9214   23016981.9874
     -2778.424       -2165.006
  -7944679.823 9  -6175617.18648  19516252.410    19516253.6424   19516260.0624
       161.593         125.917
   1060746.747 9    832763.72846  23649698.358    23649698.6914   23649707.5954
     -1130.645        -881.022
 -25131399.473 9 -19565074.38748  20538177.833    20538179.3424   20538185.8844
      2968.218        2312.897
  -7799911.057 9  -6062887.06146  23060608.008    23060609.3294   23060617.2784
      2884.223        2247.446
 96 10 16 17  7 59.9950000  0 11 21 17  1 28 26  6 23 22  3 31  9   -0.004531552
 -19982036.742 9 -15551453.59548  19882505.571    19882506.7744   19882513.8174
      2282.650        1778.688
  -5616687.348 9  -4367895.23348  19624293.661    19624294.8364   19624301.4844
      -129.686        -101.054
 -17143851.171 9 -13340244.92047  21484591.818    21484592.9824   21484601.0924
      4489.555        3498.355
 -12274646.670 9  -9270575.223 9  19242467.438    19242468.843    19242474.920
       -39.793         -31.008
   4545756.062 9   3547641.39947  23029163.946    23029165.6794   23029172.6264
     -2183.692       -1701.578
  11731951.834 8   9137353.18845  23032835.798    23032837.2644   23032846.4464
     -2778.653       -2165.184
  -7949440.021 9  -6179326.43548  19515346.562    19515347.8164   19515354.2354
       156.670         122.081
   1094693.681 9    859215.79645  23656157.530    23656158.5824   23656167.5084
     -1131.308        -881.539
 -25220213.869 9 -19634280.40648  20521277.065    20521278.5024   20521285.0784
      2953.384        2301.338
   -373274.82218   -274769.39855  23704302.951           0.0005   23704308.2805
      4386.647        3418.166
  -7886325.735 9  -6130223.16346  23044163.855    23044165.1194   23044173.0674
      2877.668        2242.339
 96 10 16 17  8 29.9950000  0 11 21 17  1 28 26  6 23 22  3 31  9   -0.004552077
 -20050353.579 9 -15604687.48948  19869505.281    19869506.5104   19869513.5554
      2273.907        1771.876
  -5612618.144 9  -4364724.44748  19625068.062    19625069.1964   19625075.8634
      -139.555        -108.744
 -17278399.609 9 -13445087.82047  21458988.100    21458989.2764   21458997.3404
      4482.610        3492.943
 -12273131.005 9  -9269394.205 9  19242755.898    19242757.290    19242763.326
       -59.027         -45.995
   4611404.588 9   3598796.03847  23041656.427    23041658.1934   23041665.1554
     -2190.703       -1707.041
  11815367.910 8   9202352.62245  23048709.223    23048710.9114   23048720.0544
     -2780.101       -2166.312
  -7954004.219 9  -6182882.96748  19514477.999    19514479.2404   19514485.6914
       149.630         116.595
   1128705.839 8    885718.70845  23662629.426    23662630.9784   23662639.8314
     -1134.005        -883.640
 -25308529.525 9 -19703097.80248  20504471.124    20504472.6224   20504479.1934
      2936.574        2288.239
   -504746.594 8   -377214.94245  23679285.350    23679283.8755   23679291.5994
      4380.275        3413.201
  -7972495.771 9  -6197368.65046  23027766.353    23027767.5044   23027775.4034
      2869.098        2235.661
 96 10 16 17  8 59.9950000  0 11 21 17  1 28 26  6 23 22  3 31  9   -0.004572604
 -20118391.371 9 -15657703.95048  19856558.095    19856559.3864   19856566.3764
      2265.347        1765.205
  -5608223.884 9  -4361300.36948  19625904.287    19625905.4074   19625912.0844
      -150.323        -117.135
 -17412726.265 9 -13549757.90247  21433426.638    21433427.7114   21433435.7944
      4475.642        3487.513
 -12271019.514 9  -9267748.906 9  19243157.734    19243159.100    19243165.122
       -78.576         -61.228
   4677278.445 9   3650126.25147  23054191.834    23054193.6084   23054200.5404
     -2197.555       -1712.380
  11898832.739 8   9267390.04345  23064592.091    23064593.6984   23064602.9774
     -2780.944       -2166.969
  -7958327.958 9  -6186252.12348  19513655.239    19513656.4584   19513662.8994
       141.709         110.422
   1162818.091 8    912299.61345  23669120.736    23669122.3604   23669131.2104
     -1136.869        -885.872
 -25396325.759 9 -19771510.44948  20487764.067    20487765.5454   20487772.1344
      2919.643        2275.046
   -635999.506 8   -479489.95855  23654307.229    23654308.2304   23654313.5795
      4373.091        3407.603
  -8058391.144 9  -6264300.10046  23011420.971    23011422.1544   23011430.0174
      2860.408        2228.889
 96 10 16 17  9 29.9950000  0 11 21 17  1 28 26  6 23 22  3 31  9   -0.004593153
 -20186171.177 9 -15710519.38548  19843660.099    19843661.3604   19843668.2884
      2254.187        1756.509
  -5603503.080 9  -4357621.84048  19626802.605    19626803.7554   19626810.4484
      -163.475        -127.383
 -17546841.515 9 -13654263.25247  21407905.327    21407906.4394   21407914.5284
      4466.289        3480.225
 -12268313.903 9  -9265640.656 9  19243672.637    19243673.974    19243680.006
      -100.835         -78.573
   4743363.044 9   3701620.67547  23066767.298    23066769.1584   23066776.0704
     -2207.098       -1719.817
  11982322.656 8   9332446.98545  23080479.903    23080481.5174   23080490.6794
     -2784.117       -2169.442
  -7962396.033 9  -6189422.05848  19512881.108    19512882.3304   19512888.7794
       130.591         101.759
   1197018.104 8    938948.89945  23675629.109    23675630.5364   23675639.4654
     -1142.234        -890.052
 -25483613.052 9 -19839526.51748  20471153.743    20471155.2864   20471161.9114
      2900.343        2260.008
   -767037.981 8   -581597.86645  23629371.229    23629371.9195   23629378.2964
      4363.644        3400.242
  -8144010.770 9  -6331016.67546  22995127.964    22995129.1974   22995137.1164
      2848.456        2219.576
 96 10 16 17  9 59.9950000  0 11 21 17  1 28 26  6 23 22  3 31  9   -0.004613722
 -20253682.180 9 -15763125.36248  19830813.219    19830814.4194   19830821.3604
      2246.019        1750.145
  -5598456.799 9  -4353689.69548  19627762.939    19627764.0384   19627770.7644
      -173.449        -135.155
 -17680745.230 9 -13758603.77347  21382424.222    21382425.4124   21382433.4804
      4459.901        3475.247
 -12265010.130 9  -9263066.304 9  19244301.216    19244302.650    19244308.712
      -119.976         -93.488
   4809651.549 9   3753273.99447  23079381.666    23079383.4824   23079390.4094
     -2212.775       -1724.240
  12065839.792 8   9397525.15045  23096373.104    23096374.2544   23096383.6354
     -2784.383       -2169.649
  -7966209.933 9  -6192393.93548  19512155.352    19512156.5574   19512163.0694
       123.156          95.966
   1231296.019 8    965658.87546  23682152.439    23682153.5384   23682162.3984
     -1143.433        -890.987
 -25570388.022 9 -19907143.38248  20454641.053    20454642.5544   20454649.1874
      2883.793        2247.111
   -897852.917 8   -683531.58745  23604478.097    23604478.8034   23604485.2524
      4356.602        3394.755
  -8229340.395 9  -6397507.28046  22978890.027    22978891.4234   22978899.3304
      2839.531        2212.622
 96 10 16 17 10 29.9950000  0 11 21 17  1 28 26  6 23 22  3 31  9   -0.004634310
 -20320939.383 9 -15815533.57248  19818014.622    19818015.8144   19818022.7634
      2237.720        1743.678
  -5593098.957 9  -4349514.77648  19628782.506    19628783.6354   19628790.3764
      -183.901        -143.299
 -17814441.687 9 -13862782.78447  21356982.543    21356983.7814   21356991.8654
      4453.103        3469.950
 -12261122.310 9  -9260036.853 9  19245041.011    19245042.459    19245048.572
      -139.330        -108.569
   4876129.470 9   3805074.90547  23092032.078    23092033.8554   23092040.7704
     -2219.405       -1729.406
  12149377.984 8   9462619.71245  23112270.023    23112271.1864   23112280.6934
     -2784.921       -2170.068
  -7969784.380 9  -6195179.23248  19511475.117    19511476.3514   19511482.9064
       115.061          89.658
   1265622.275 8    992406.52645  23688684.324    23688685.6444   23688694.6394
     -1145.101        -892.286
 -25656646.653 9 -19974357.90548  20438226.539    20438228.0734   20438234.7434
      2866.714        2233.803
  -1028440.301 8   -785288.00845  23579628.101    23579628.7364   23579635.3404
      4349.021        3388.848
  -8314381.110 9  -6463772.75546  22962707.244    22962708.6174   22962716.6014
      2829.876        2205.098
 96 10 16 17 10 59.9950000  0 11 21 17  1 28 26  6 23 22  3 31  9   -0.004654900
 -20387962.413 9 -15867759.29848  19805260.615    19805261.7734   19805268.7094
      2231.280        1738.660
  -5587433.489 9  -4345100.14748  19629860.604    19629861.7604   19629868.5124
      -193.046        -150.425
 -17947936.776 9 -13966804.89547  21331579.263    21331580.4564   21331588.5414
      4447.232        3465.376
 -12256656.591 9  -9256557.090 9  19245890.817    19245892.237    19245898.415
      -157.619        -122.820
   4942806.258 9   3857030.78346  23104720.428    23104722.0394   23104728.9924
     -2224.944       -1733.723
  12232937.913 8   9527731.21945  23128171.016    23128172.2784   23128181.8844
     -2784.886       -2170.041
  -7973122.346 9  -6197780.25848  19510839.907    19510841.1624   19510847.6944
       108.316          84.402
   1299996.335 9   1019191.44045  23695225.939    23695226.8704   23695235.8464
     -1145.762        -892.802
 -25742398.049 9 -20041177.17748  20421908.496    20421910.1054   20421916.8014
      2850.702        2221.326
  -1158799.102 8   -886866.29545  23554821.730    23554822.4124   23554828.8634
      4342.209        3383.539
  -8399143.095 9  -6529821.03846  22946577.436    22946578.9364   22946586.9224
      2821.728        2198.749
 96 10 16 17 11 29.9950000  0 11 21 17  1 28 26  6 23 22  3 31  9   -0.004675519
 -20454745.706 9 -15919798.22148  19792552.217    19792553.3344   19792560.2454
      2221.929        1731.373
  -5581454.379 9  -4340441.11648  19630998.435    19630999.5664   19631006.3134
      -204.474        -159.330
 -18081206.891 9 -14070651.69847  21306218.734    21306219.9934   21306228.0294
      4438.465        3458.544
 -12251601.554 9  -9252618.117 9  19246852.774    19246854.193    19246860.395
      -178.252        -138.898
   5009696.398 9   3909152.89346  23117449.183    23117450.8354   23117457.8114
     -2233.284       -1740.221
  12316551.652 8   9592884.63645  23144082.400    23144083.5424   23144092.9604
     -2788.116       -2172.558
  -7976220.846 9  -6200194.68148  19510250.263    19510251.5264   19510258.0444
        99.466          77.506
   1334429.474 9   1046022.35245  23701779.067    23701779.4514   23701788.4034
     -1148.809        -895.176
 -25827621.968 9 -20107585.42448  20405690.904    20405692.5164   20405699.2134
      2831.786        2206.586
  -1288914.471 8   -988254.89245  23530061.271    23530062.2514   23530068.8254
      4333.106        3376.446
  -8483617.709 9  -6595645.38746  22930502.408    22930503.8924   22930511.9374
      2810.984        2190.377
 96 10 16 17 11 59.9950000  0 11 21 17  1 28 26  6 23 22  3 31  9   -0.004696126
 -20521272.203 9 -15971637.04348  19779892.563    19779893.7394   19779900.6534
      2212.241        1723.824
  -5575156.806 9  -4335533.93548  19632196.862    19632197.9844   19632204.7024
      -216.212        -168.477
 -18214235.981 9 -14174310.68447  21280904.079    21280905.3874   21280913.4044
      4429.312        3451.412
 -12245962.875 9  -9248224.362 9  19247925.814    19247927.214    19247933.433
      -198.532        -154.700
   5076805.550 9   3961445.68046  23130219.584    23130221.3354   23130228.3324
     -2241.666       -1746.753
  12400228.105 8   9658086.94645  23160005.550    23160006.6974   23160016.2864
     -2791.335       -2175.066
  -7979095.064 9  -6202434.34048  19509703.333    19509704.5824   19509711.1264
        91.223          71.083
   1368925.059 9   1072901.96545  23708343.616    23708343.9204   23708352.7764
     -1151.780        -897.491
 -25912295.540 9 -20173564.83248  20389578.036    20389579.6604   20389586.3374
      2812.312        2191.412
  -1418783.968 9  -1089451.89546  23505347.628    23505348.8704   23505355.5924
      4323.924        3369.291
  -8567805.198 9  -6661245.98946  22914482.239    22914483.5304   22914491.6164
      2800.552        2182.248
 96 10 16 17 12 29.9950000  0 11 21 17  1 28 26  6 23 22  3 31  9   -0.004716708
 -20587516.146 9 -16023255.69848  19767286.737    19767287.9034   19767294.8624
      2204.172        1717.537
  -5568516.994 9  -4330360.07648  19633460.431    19633461.5074   19633468.2444
      -226.357        -176.382
 -18347008.397 9 -14277769.67347  21255638.295    21255639.5964   21255647.5584
      4422.321        3445.964
 -12239730.871 9  -9243368.274 9  19249111.766    19249113.175    19249119.370
      -216.700        -168.857
   5144161.075 9   4013930.43046  23143036.881    23143038.7244   23143045.7094
     -2248.529       -1752.101
  12483987.565 8   9723353.93845  23175944.722    23175945.7294   23175955.2644
     -2792.367       -2175.870
  -7981737.356 9  -6204493.28448  19509200.575    19509201.7814   19509208.3354
        85.159          66.358
   1403496.727 9   1099840.83245  23714922.860    23714922.7864   23714931.5384
     -1152.741        -898.240
 -25996408.179 9 -20239107.15548  20373572.017    20373573.5504   20373580.2354
      2795.454        2178.276
  -1548403.801 9  -1190454.36146  23480681.626    23480683.0714   23480689.7824
      4317.529        3364.308
  -8651687.375 9  -6726608.70146  22898520.118    22898521.2924   22898529.3314
      2791.705        2175.354
 96 10 16 17 12 59.9950000  0 11 21 17  1 28 26  6 23 22  3 31  9   -0.004737270
 -20653480.419 9 -16074656.42848  19754734.105    19754735.3184   19754742.2774
      2194.521        1710.016
  -5561530.139 9  -4324915.79748  19634789.960    19634791.0604   19634797.8004
      -238.413        -185.776
 -18479520.875 9 -14381026.10747  21230422.039    21230423.2804   21230431.1984
      4412.927        3438.644
 -12232917.493 9  -9238059.171 9  19250408.379    19250409.768    19250415.932
      -236.457        -184.252
   5211755.221 9   4066601.12846  23155899.682    23155901.5024   23155908.5324
     -2256.593       -1758.384
  12567811.499 8   9788671.16545  23191895.920    23191897.0094   23191906.4904
     -2794.848       -2177.804
  -7984167.480 9  -6206386.89648  19508738.154    19508739.3644   19508745.8994
        77.983          60.766
   1438133.598 8   1126830.51945  23721514.194    23721514.0844   23721522.7734
     -1155.274        -900.214
 -26079979.104 9 -20304227.35648  20357669.124    20357670.5754   20357677.2314
      2776.988        2163.887
  -1677792.945 9  -1291277.05846  23456059.662    23456061.0304   23456067.8664
      4309.401        3357.975
  -8735270.384 9  -6791738.27546  22882614.766    22882615.9434   22882624.0034
      2781.277        2167.229
 96 10 16 17 13 29.9950000  0 11 21 17  1 28 26  6 23 22  3 31  9   -0.004757815
 -20719176.234 9 -16125847.97048  19742232.666    19742233.7914   19742240.7874
      2185.231        1702.777
  -5554207.747 9  -4319210.05048  19636183.429    19636184.4934   19636191.2194
      -249.653        -194.535
 -18611778.237 9 -14484083.74947  21205254.337    21205255.5144   21205263.3934
      4404.265        3431.895
 -12225541.876 9  -9232311.961 9  19251811.966    19251813.336    19251819.471
      -255.225        -198.877
   5279563.480 9   4119438.66446  23168803.280    23168805.0124   23168812.0974
     -2263.791       -1763.993
  12651679.743 8   9854022.90845  23207855.808    23207856.7614   23207866.1354
     -2796.177       -2178.839
  -7986419.984 9  -6208142.10548  19508309.549    19508310.7564   19508317.2684
        72.141          56.214
   1472811.147 8   1153851.91145  23728112.718    23728113.1074   23728121.8484
     -1156.635        -901.274
 -26163022.339 9 -20368936.37448  20341866.602    20341867.9904   20341874.6724
      2759.272        2150.082
  -1806973.215 9  -1391937.01146  23431477.519    23431478.7484   23431485.8194
      4302.519        3352.612
  -8818558.830 9  -6856638.32646  22866765.228    22866766.6054   22866774.7404
      2771.206        2159.381
 96 10 16 17 13 59.9950000  0 11 21 17  1 28 26  6 23 22  3 31  9   -0.004778327
 -20784570.484 9 -16176804.52348  19729788.489    19729789.6644   19729796.6674
      2174.674        1694.551
  -5546527.705 9  -4313225.61648  19637644.788    19637645.9604   19637652.7004
      -262.088        -204.224
 -18743754.590 9 -14586922.42347  21180140.047    21180141.2194   21180149.0574
      4394.488        3424.276
 -12217579.491 9  -9226107.522 9  19253327.174    19253328.533    19253334.661
      -275.423        -214.615
   5347602.951 9   4172456.36046  23181750.988    23181752.4974   23181759.5714
     -2272.071       -1770.445
  12735604.497 8   9919418.70145  23223826.329    23223827.3174   23223836.6564
     -2798.629       -2180.750
  -7988471.802 9  -6209740.92948  19507919.132    19507920.3244   19507926.8274
        64.655          50.381
   1507550.492 8   1180921.44845  23734723.790    23734723.8594   23734732.4224
     -1159.272        -903.329
 -26245514.945 9 -20433216.32448  20326168.754    20326170.1644   20326176.8894
      2740.598        2135.531
  -1935920.266 9  -1492415.22246  23406939.701    23406940.9634   23406947.9924
      4294.060        3346.021
  -8901516.178 9  -6921280.37346  22850978.946    22850980.2864   22850988.4324
      2759.305        2150.108
 96 10 16 17 14 29.9950000  0 11 21 17  1 28 26  6 23 22  3 31  9   -0.004798813
 -20849668.731 9 -16227530.42448  19717400.681    19717401.8644   19717408.8744
      2165.249        1687.207
  -5538482.134 9  -4306956.35948  19639175.719    19639176.9964   19639183.7294
      -274.388        -213.809
 -18875451.454 9 -14689543.31947  21155078.956    21155080.0874   21155087.9704
      4385.059        3416.929
 -12209014.886 9  -9219433.827 9  19254956.936    19254958.320    19254964.457
      -295.693        -230.410
   5415888.578 9   4225665.87246  23194745.330    23194746.9334   23194753.9844
     -2280.343       -1776.891
  12819592.981 8   9984864.13445  23239809.115    23239810.1044   23239819.2524
     -2800.555       -2182.251
  -7990293.423 9  -6211160.38748  19507572.504    19507573.6784   19507580.1894
        56.547          44.062
   1542357.823 8   1208043.96845  23741346.732    23741347.5644   23741355.9554
     -1161.461        -905.035
 -26327458.139 9 -20497068.16848  20310575.493    20310576.8754   20310583.6284
      2722.041        2121.071
  -2064623.207 9  -1592703.21546  23382448.377    23382449.5274   23382456.6484
      4285.815        3339.596
  -8984118.967 9  -6985646.14446  22835260.208    22835261.4354   22835269.5904
      2747.487        2140.899
 96 10 16 17 14 59.9950000  0 11 21 17  1 28 26  6 23 22  3 31  9   -0.004819306
 -20914537.021 9 -16278077.13648  19705056.660    19705057.8634   19705064.8414
      2158.425        1681.890
  -5530111.079 9  -4300433.47448  19640768.772    19640769.9704   19640776.7114
      -284.422        -221.627
 -19006903.656 9 -14791973.56847  21130064.462    21130065.5374   21130073.4184
      4377.597        3411.115
 -12199884.179 9  -9212319.012 9  19256694.419    19256695.839    19256701.977
      -313.925        -244.617
   5484371.330 9   4279028.98646  23207777.078    23207778.8594   23207785.8684
     -2286.098       -1781.375
  12903589.390 8  10050315.75245  23255793.143    23255794.2994   23255803.3774
     -2800.025       -2181.838
  -7991907.317 9  -6212417.97648  19507265.375    19507266.5754   19507273.1054
        50.164          39.089
   1577195.360 8   1235190.02245  23747976.587    23747976.9574   23747985.4294
     -1161.876        -905.358
 -26408881.977 9 -20560515.31248  20295080.949    20295082.3884   20295089.1784
      2705.277        2108.008
  -2193113.916 9  -1692825.84146  23357997.287    23357998.5284   23358005.7914
      4279.147        3334.400
  -9066411.191 9  -7049769.92346  22819600.524    22819601.6774   22819609.8084
      2737.662        2133.243
 96 10 16 17 15 29.9950000  0 11 21 17  1 28 26  6 23 22  3 31  9   -0.004839794
 -20979165.005 9 -16328436.59848  19692758.358    19692759.5734   19692766.5624
      2150.506        1675.719
  -5521411.599 9  -4293654.67748  19642424.258    19642425.4284   19642432.1814
      -295.108        -229.954
 -19138098.081 9 -14894202.95247  21105098.976    21105100.0274   21105107.9484
      4369.135        3404.521
 -12190169.434 9  -9204749.106 9  19258543.058    19258544.496    19258550.644
      -333.293        -259.709
   5553061.821 9   4332553.96746  23220848.487    23220850.3024   23220857.2884
     -2292.745       -1786.555
  12987601.271 8  10115779.42345  23271780.295    23271781.4164   23271790.3684
     -2800.264       -2182.024
  -7993285.100 9  -6213491.58148  19507003.240    19507004.4064   19507010.9314
        42.042          32.760
   1612069.810 8   1262364.84445  23754612.863    23754613.2574   23754621.9204
     -1162.691        -905.993
 -26489761.583 9 -20623538.38348  20279689.935    20279691.4974   20279698.2924
      2687.086        2093.833
  -2321368.248 9  -1792764.28046  23333591.262    23333592.5304   23333599.8414
      4271.394        3328.359
  -9148356.866 9  -7113623.65646  22804006.778    22804007.9354   22804016.0064
      2725.777        2123.982
 96 10 16 17 15 59.9950000  0 11 21 17  1 28 26  6 23 22  3 31  9   -0.004860284
 -21043559.240 9 -16378613.92548  19680504.509    19680505.7264   19680512.7364
      2142.659        1669.604
  -5512389.605 9  -4286624.56648  19644141.076    19644142.2884   19644149.0454
      -306.178        -238.580
 -19269044.383 9 -14996238.99947  21080180.626    21080181.7454   21080189.6654
      4360.810        3398.034
 -12179875.826 9  -9196728.135 9  19260501.905    19260503.302    19260509.479
      -352.724        -274.850
   5621949.230 9   4386232.40746  23233957.396    23233959.1424   23233966.2474
     -2299.661       -1791.944
  13071617.105 8  10181246.18445  23287767.938    23287769.1384   23287778.0304
     -2800.676       -2182.345
  -7994413.613 9  -6214370.95148  19506788.473    19506789.6464   19506796.1714
        33.409          26.033
   1646965.952 8   1289556.55845  23761252.180    23761253.9354   23761262.5094
     -1163.490        -906.615
 -26570097.999 9 -20686138.19048  20264402.409    20264403.9884   20264410.7934
      2668.904        2079.665
  -2449384.706 9  -1892517.36246  23309230.521    23309231.7814   23309239.1654
      4263.050        3321.857
  -9229943.206 9  -7177197.39746  22788481.222    22788482.5484   22788490.6084
      2713.535        2114.443
 96 10 16 17 16 29.9950000  0 11 21 17  1 28 26  6 23 22  3 31  9   -0.004880780
 -21107731.968 9 -16428618.64548  19668292.882    19668294.0614   19668301.0544
      2135.119        1663.729
  -5503048.015 9  -4279345.42648  19645918.754    19645919.9554   19645926.7224
      -316.906        -246.940
 -19399744.175 9 -15098082.95747  21055309.206    21055310.3294   21055318.3184
      4352.130        3391.270
 -12169011.618 9  -9188262.544 9  19262569.351    19262570.719    19262576.895
      -371.834        -289.741
   5691030.778 9   4440062.11046  23247103.367    23247104.9864   23247112.0894
     -2305.996       -1796.880
  13155637.931 8  10246716.83545  23303756.608    23303757.6974   23303766.7324
     -2801.025       -2182.617
  -7995301.038 9  -6215062.45848  19506619.567    19506620.7764   19506627.2844
        25.713          20.036
   1681878.231 8   1316760.87145  23767895.540    23767897.4164   23767906.0874
     -1164.395        -907.321
 -26649896.728 9 -20748319.01748  20249217.172    20249218.8004   20249225.5874
      2650.666        2065.454
  -2577158.810 9  -1992081.60246  23284916.031    23284917.2254   23284924.5504
      4254.740        3315.382
  -9311183.842 9  -7240501.75746  22773021.558    22773022.9554   22773030.9714
      2702.275        2105.669
 96 10 16 17 16 59.9950000  0 11 21 17  1 28 26  6 23 22  3 31  9   -0.004901274
 -21171675.413 9 -16478444.70448  19656124.856    19656126.0644   19656133.0154
      2126.917        1657.338
  -5493391.566 9  -4271820.94248  19647756.343    19647757.5374   19647764.3074
      -327.589        -255.264
 -19530187.076 9 -15199726.73947  21030486.724    21030487.8384   21030495.8204
      4343.339        3384.420
 -12157584.013 9  -9179357.943 9  19264743.958    19264745.349    19264751.526
      -390.761        -304.489
   5760282.819 9   4494024.67146  23260281.465    23260283.2364   23260290.3804
     -2311.626       -1801.267
  13239661.057 8  10312189.27145  23319745.750    23319746.9354   23319755.9504
     -2801.379       -2182.893
  -7995980.991 9  -6215592.29548  19506490.227    19506491.4024   19506497.9074
        18.911          14.736
   1716811.438 8   1343981.47545  23774543.177    23774545.0714   23774553.7074
     -1165.189        -907.939
 -26729153.926 9 -20810077.87448  20234135.094    20234136.6754   20234143.4604
      2632.380        2051.205
  -2704681.890 9  -2091450.23746  23260649.171    23260650.5214   23260657.7584
      4245.914        3308.504
  -9392080.464 9  -7303538.04946  22757627.348    22757628.8564   22757636.8184
      2690.124        2096.200
 96 10 16 17 17 29.9950000  0 11 21 17  1 28 26  6 23 22  3 31  9   -0.004921748
 -21235359.247 9 -16528068.47448  19644006.221    19644007.4144   19644014.3844
      2117.645        1650.113
  -5483403.109 9  -4264037.75448  19649657.146    19649658.2874   19649665.0604
      -339.466        -264.519
 -19660354.519 9 -15301155.88447  21005716.617    21005717.7674   21005725.7174
      4333.376        3376.657
 -12145576.910 9  -9170001.784 9  19267028.825    19267030.227    19267036.437
      -410.739        -320.056
   5829717.556 9   4548129.58746  23273494.324    23273496.3334   23273503.4854
     -2318.388       -1806.536
  13323724.039 8  10377692.76845  23335742.547    23335743.6984   23335752.8674
     -2803.874       -2184.837
  -7996444.702 9  -6215953.63348  19506401.940    19506403.1294   19506409.7024
        11.008           8.578
   1751783.212 8   1371232.14245  23781197.794    23781199.9104   23781208.5694
     -1167.338        -909.614
 -26807849.620 9 -20871399.20248  20219159.919    20219161.4184   20219168.1534
      2612.934        2036.052
  -2831922.856 9  -2190599.04446  23236436.053    23236437.3694   23236444.5104
      4235.721        3300.562
  -9472599.984 9  -7366280.49246  22742305.068    22742306.4204   22742314.4474
      2677.190        2086.122
 96 10 16 17 17 59.9950000  0 11 21 17  1 28 26  6 23 22  3 31  9   -0.004942213
 -21298790.059 9 -16577495.08348  19631935.725    19631936.9174   19631943.9214
      2109.820        1644.015
  -5473074.178 9  -4255989.25748  19651622.701    19651623.8354   19651630.6224
      -350.310        -272.969
 -19790242.641 9 -15402367.37247  20980999.659    20981000.8024   20981008.7394
      4324.460        3369.709
 -12132994.798 9  -9160197.565 9  19269423.082    19269424.540    19269430.758
      -429.325        -334.539
   5899333.468 9   4602375.67946  23286741.999    23286743.8114   23286751.0234
     -2323.977       -1810.891
  13407833.263 8  10443232.31045  23351748.024    23351749.2964   23351758.3834
     -2804.843       -2185.592
  -7996704.261 9  -6216155.89648  19506352.536    19506353.7234   19506360.3594
         5.084           3.962
   1786805.293 8   1398522.00345  23787862.477    23787864.4204   23787873.1584
     -1168.798        -910.752
 -26885988.534 9 -20932286.66648  20204290.602    20204292.1004   20204298.8194
      2595.002        2022.079
  -2958873.421 9  -2289521.56446  23212278.267    23212279.4684   23212286.6594
      4226.335        3293.248
  -9552781.073 9  -7428759.22946  22727046.983    22727048.4814   22727056.5424
      2667.003        2078.184
 96 10 16 17 18 29.9950000  0 11 21 17  1 28 26  6 23 22  3 31  9   -0.004962672
 -21361982.433 9 -16626735.89648  19619910.659    19619911.8294   19619918.8024
      2102.915        1638.635
  -5462420.340 9  -4247687.59248  19653650.104    19653651.2264   19653658.0264
      -360.121        -280.614
 -19919853.095 9 -15503362.50047  20956335.534    20956336.7214   20956344.6544
      4316.228        3363.294
 -12119851.909 9  -9149956.380 9  19271924.124    19271925.567    19271931.780
      -446.995        -348.308
   5969116.634 9   4656752.10146  23300021.381    23300023.1504   23300030.3714
     -2328.286       -1814.249
  13491972.698 8  10508795.37145  23367759.099    23367760.5364   23367769.7514
     -2804.553       -2185.366
  -7996793.862 9  -6216225.72948  19506335.469    19506336.6464   19506343.2924
         0.771           0.601
   1821875.793 8   1425849.61445  23794536.526    23794538.0834   23794546.8514
     -1169.353        -911.184
 -26963581.288 9 -20992748.55748  20189525.073    20189526.6974   20189533.3984
      2577.685        2008.586
  -3085537.490 9  -2388220.82646  23188174.798    23188176.0654   23188183.2474
      4217.773        3286.576
  -9632658.038 9  -7491000.99646  22711846.916    22711848.3804   22711856.3644
      2657.890        2071.083
 96 10 16 17 18 59.9950000  0 11 21 17  1 28 26  6 23 22  3 31  9   -0.004983124
 -21424934.027 9 -16675789.08448  19607931.375    19607932.5314   19607939.4854
      2093.177        1631.047
  -5451431.370 9  -4239124.78148  19655741.257    19655742.3984   19655749.1884
      -373.104        -290.730
 -20049191.567 9 -15604145.68847  20931723.129    20931724.4034   20931732.3134
      4305.518        3354.949
 -12106146.160 9  -9139276.600 9  19274532.260    19274533.695    19274539.899
      -467.417        -364.221
   6039068.212 9   4711259.74746  23313332.762    23313334.6204   23313341.7394
     -2335.889       -1820.173
  13576133.668 8  10574375.22045  23383774.596    23383775.8874   23383785.0074
     -2806.667       -2187.013
  -7996712.192 9  -6216162.09648  19506351.010    19506352.2174   19506358.8464
        -7.073          -5.511
   1856980.572 8   1453203.92745  23801216.252    23801218.3934   23801227.2474
     -1171.586        -912.924
 -27040619.876 9 -21052778.62848  20174865.086    20174866.7424   20174873.4294
      2557.434        1992.806
  -3211911.306 9  -2486693.92846  23164126.690    23164127.9744   23164135.0634
      4206.443        3277.748
  -9712216.127 9  -7552994.28646  22696707.393    22696708.9644   22696716.9154
      2645.328        2061.294
 96 10 16 17 19 29.9950000  0 11 21 17  1 28 26  6 23 22  3 31  9   -0.005003561
 -21487627.098 9 -16724640.82648  19596001.251    19596002.4364   19596009.3704
      2086.154        1625.575
  -5440091.215 9  -4230288.31948  19657899.198    19657900.3484   19657907.1614
      -383.027        -298.463
 -20178235.069 9 -15704699.03347  20907166.949    20907168.2054   20907176.1504
      4297.313        3348.555
 -12091861.665 9  -9128145.850 9  19277250.520    19277251.958    19277258.139
      -484.966        -377.896
   6109221.538 9   4765924.59446  23326682.601    23326684.3684   23326691.5394
     -2341.092       -1824.228
  13660317.846 8  10639973.13745  23399794.570    23399795.6954   23399804.8004
     -2805.498       -2186.102
  -7996425.041 9  -6215938.35348  19506405.649    19506406.8634   19506413.5044
       -12.169          -9.482
   1892116.203 8   1480582.29645  23807902.626    23807904.4454   23807913.2234
     -1171.035        -912.495
 -27117084.902 9 -21112361.76748  20160314.245    20160315.8954   20160322.6054
      2540.097        1979.296
  -3337984.654 9  -2584932.88546  23140135.693    23140136.9514   23140144.1014
      4198.251        3271.364
  -9791447.220 9  -7614732.78146  22681630.236    22681631.7674   22681639.6964
      2636.455        2054.381
 96 10 16 17 19 59.9940000  0 11 21 17  1 28 26  6 23 22  3 31  9   -0.005024004
 -21550080.278 9 -16773305.64048  19584116.794    19584117.9604   19584124.9524
      2077.573        1618.888
  -5428434.185 9  -4221204.94548  19660117.472    19660118.6044   19660125.4594
      -393.907        -306.941
 -20307013.195 9 -15805045.58947  20882661.244    20882662.5204   20882670.4544
      4288.357        3341.577
 -12077032.548 9  -9116590.720 9  19280072.411    19280073.863    19280080.045
      -503.578        -392.398
   6179544.607 9   4820721.70646  23340064.596    23340066.4124   23340073.6404
     -2347.071       -1828.886
  13744478.157 8  10705552.47345  23415809.615    23415810.9164   23415820.0714
     -2805.357       -2185.992
  -7995971.049 9  -6215584.60848  19506492.025    19506493.2454   19506499.9294
       -18.140         -14.135
   1927244.945 8   1507955.27545  23814588.165    23814589.3914   23814598.3314
     -1170.976        -912.449
 -27193007.867 9 -21171522.52548  20145866.632    20145868.2134   20145874.9484
      2521.677        1964.943
  -3463790.028 9  -2682963.03646  23116195.794    23116197.0114   23116204.1524
      4189.115        3264.245
  -9870386.049 9  -7676243.54346  22666608.662    22666610.2174   22666618.1514
      2626.027        2046.255
 96 10 16 17 20 29.9940000  0 11 21 17  1 28 26  6 23 22  3 31  9   -0.005044429
 -21612246.267 9 -16821746.66648  19572286.967    19572288.1514   19572295.1554
      2067.976        1611.410
  -5416422.197 9  -4211844.97348  19662403.313    19662404.4164   19662411.3044
      -405.776        -316.189
 -20435501.964 9 -15905166.67247  20858210.751    20858211.8964   20858219.8554
      4278.755        3334.095
 -12061617.541 9  -9104579.048 9  19283005.745    19283007.255    19283013.423
      -522.896        -407.451
   6250076.770 9   4875681.75946  23353486.340    23353488.3134   23353495.5504
     -2353.856       -1834.174
  13828663.404 8  10771151.23945  23431829.568    23431830.7954   23431840.2404
     -2805.846       -2186.374
  -7995299.124 9  -6215061.04348  19506619.892    19506621.1244   19506627.8114
       -25.603         -19.950
   1962402.432 9   1535350.65545  23821278.161    23821279.4884   23821288.5924
     -1171.563        -912.906
 -27268351.131 9 -21230231.56048  20131529.302    20131530.8504   20131537.5824
      2502.337        1949.873
  -3589299.262 9  -2780762.42546  23092312.114    23092313.3284   23092320.5644
      4179.271        3256.575
  -9948966.129 9  -7737474.76246  22651655.393    22651656.9054   22651664.7674
      2613.705        2036.653
 96 10 16 17 20 59.9940000  0 11 21 17  1 28 26  6 23 22  3 31  9   -0.005064792
 -21674168.670 9 -16869997.89448  19560503.491    19560504.6884   19560511.6964
      2059.749        1604.999
  -5404100.812 9  -4202243.92348  19664748.027    19664749.1064   19664756.0174
      -415.964        -324.128
 -20563745.204 9 -16005096.44047  20833806.840    20833807.9964   20833815.9524
      4270.137        3327.379
 -12045668.987 9  -9092151.632 9  19286040.708    19286042.169    19286048.361
      -540.737        -421.353
   6320763.659 9   4930762.36446  23366937.656    23366939.6114   23366946.9544
     -2358.921       -1838.120
  13912822.574 8  10836729.66045  23447844.711    23447845.8564   23447855.3664
     -2805.186       -2185.859
  -7994438.178 9  -6214390.19448  19506783.788    19506784.9914   19506791.6314
       -32.145         -25.048
   1997531.627 8   1562724.01545  23827962.793    23827964.4944   23827973.5524
     -1170.888        -912.380
 -27343156.060 9 -21288521.12248  20117294.369    20117295.9244   20117302.6794
      2484.318        1935.832
  -3714562.481 9  -2878370.11446  23068475.204    23068476.4874   23068483.6294
      4171.176        3250.267
 -10027218.413 9  -7798450.57346  22636764.518    22636765.9714   22636773.7474
      2602.677        2028.060
 96 10 16 17 21 29.9940000  0 11 21 17  1 28 26  6 23 22  3 31  9   -0.005085327
 -21735818.436 9 -16918036.66748  19548771.942    19548773.1054   19548780.1034
      2049.636        1597.119
  -5391454.408 9  -4192389.60148  19667154.529    19667155.6434   19667162.5724
      -427.833        -333.376
 -20691694.602 9 -16104797.23447  20809458.843    20809460.0334   20809467.9844
      4259.231        3318.881
 -12029158.893 9  -9079286.643 9  19289182.468    19289183.940    19289190.145
      -560.509        -436.760
   6391623.786 8   4985977.96246  23380422.018    23380423.8724   23380431.2424
     -2365.538       -1843.276
  13996986.295 8  10902311.64345  23463860.514    23463861.8124   23463871.4644
     -2806.485       -2186.871
  -7993359.388 9  -6213549.58648  19506989.133    19506990.3154   19506996.9084
       -40.394         -31.476
   2032681.408 9   1590113.36545  23834651.685    23834653.2464   23834662.5594
     -1172.931        -913.972
 -27417400.285 9 -21346373.76748  20103166.157    20103167.7034   20103174.4554
      2464.761        1920.593
  -3839550.469 9  -2975763.33346  23044690.775    23044692.0674   23044699.2754
      4160.508        3241.954
 -10105106.755 9  -7859142.76846  22621942.886    22621944.3244   22621952.0654
      2589.235        2017.586
 96 10 16 17 21 59.9940000  0 11 21 17  1 28 26  6 23 22  3 31  9   -0.005105757
 -21797173.284 9 -16965845.63948  19537096.482    19537097.6874   19537104.6844
      2041.683        1590.922
  -5378450.988 9  -4182257.09248  19669629.006    19669630.1244   19669637.0694
      -438.117        -341.390
 -20819317.849 9 -16204243.89347  20785172.882    20785174.1204   20785182.0494
      4249.887        3311.600
 -12012062.059 9  -9065964.461 9  19292435.852    19292437.376    19292443.592
      -578.342        -450.656
   6462671.656 9   5041339.85346  23393941.969    23393943.8914   23393951.2364
     -2370.075       -1846.812
  14081186.318 8  10967921.89845  23479883.230    23479884.7324   23479894.3144
     -2805.870       -2186.392
  -7992032.798 9  -6212515.89548  19507241.596    19507242.8094   19507249.3574
       -47.059         -36.669
   2067890.166 8   1617548.73945  23841351.773    23841353.3014   23841362.5124
     -1173.197        -914.179
 -27491062.962 9 -21403773.26448  20089148.592    20089150.1624   20089156.9274
      2446.989        1906.745
  -3964217.662 9  -3072906.58946  23020967.480    23020968.6834   23020975.9294
      4151.524        3234.954
 -10182591.046 9  -7919520.13046  22607198.210    22607199.5444   22607207.3314
      2577.242        2008.241
 96 10 16 17 22 29.9940000  0 10 21 17  1 28 26  6 23  3 31  9      -0.005126178
 -21858280.475 9 -17013461.63348  19525468.163    19525469.3734   19525476.3974
      2032.390        1583.681
  -5365121.426 9  -4171870.44248  19672165.567    19672166.6594   19672173.6004
      -450.360        -350.930
 -20946638.573 9 -16303454.81147  20760944.539    20760945.7974   20760953.6874
      4238.262        3302.542
 -11994417.178 9  -9052215.226 9  19295793.549    19295795.100    19295801.316
      -597.804        -465.821
   6533871.886 8   5096820.47446  23407490.966    23407492.8904   23407500.1784
     -2376.488       -1851.809
  14165376.024 8  11033524.11145  23495904.148    23495905.6804   23495915.3944
     -2806.502       -2186.885
  -7990494.983 9  -6211317.61148  19507534.258    19507535.4664   19507542.0274
       -55.144         -42.969
 -27564175.687 9 -21460744.22048  20075235.679    20075237.2764   20075244.0734
      2427.232        1891.350
  -4088598.842 9  -3169826.97846  22997298.448    22997299.7324   22997307.0134
      4140.651        3226.481
 -10259695.153 9  -7979601.24846  22592525.855    22592527.1374   22592534.8864
      2563.270        1997.353
 96 10 16 17 22 59.9940000  0 10 21 17  1 28 26  6 23  3 31  9      -0.005146571
 -21919130.703 9 -17060877.39848  19513888.740    19513889.9534   19513896.9844
      2023.542        1576.786
  -5351447.454 9  -4161215.42248  19674767.636    19674768.7624   19674775.7104
      -462.078        -360.061
 -21073625.190 9 -16402405.38648  20736779.816    20736781.0624   20736788.9024
      4226.753        3293.574
 -11976206.185 9  -9038024.868 9  19299258.987    19299260.546    19299266.790
      -617.042        -480.812
   6605242.719 9   5152434.02646  23421072.624    23421074.4394   23421081.6364
     -2382.344       -1856.372
  14249568.444 8  11099128.43345  23511925.602    23511927.0324   23511936.8624
     -2807.143       -2187.384
  -7988738.448 9  -6209948.89748  19507868.548    19507869.7594   19507876.3304
       -62.744         -48.891
 -27636712.900 9 -21517266.73248  20061432.330    20061433.9204   20061440.7224
      2407.879        1876.269
  -4212670.763 9  -3266506.36546  22973688.409    22973689.6634   22973696.8624
      4129.912        3218.113
 -10336399.529 9  -8039370.87246  22577929.514    22577930.7674   22577938.5514
      2549.600        1986.701
 96 10 16 17 23 29.9940000  0  9 21 17  1 28 26 23  3 31  9         -0.005166946
 -21979736.683 9 -17108102.83848  19502355.820    19502357.0344   19502364.0114
      2015.583        1570.584
  -5337428.577 9  -4150291.64148  19677435.339    19677436.5044   19677443.4414
      -473.837        -369.224
 -21200289.117 9 -16501104.52648  20712676.483    20712677.7054   20712685.4984
      4216.419        3285.521
 -11957435.772 9  -9023398.601 9  19302830.904    19302832.453    19302838.704
      -635.506        -495.199
   6676774.526 8   5208173.00946  23434684.877    23434686.6264   23434693.8404
     -2387.651       -1860.507
  -7986770.702 9  -6208415.60448  19508243.027    19508244.2304   19508250.8024
       -69.598         -54.232
 -27708695.999 9 -21573357.46848  20047734.418    20047736.0054   20047742.8024
      2389.574        1862.006
  -4336430.342 9  -3362942.37446  22950137.677    22950139.0514   22950146.2224
      4119.493        3209.995
 -10412719.065 9  -8098840.63346  22563406.441    22563407.6024   22563415.4264
      2537.310        1977.125
 96 10 16 17 23 59.9940000  0  9 21 17  1 28 26 23  3 31  9         -0.005187322
 -22040114.333 9 -17155150.35648  19490866.350    19490867.5654   19490874.5134
      2008.950        1565.416
  -5323060.388 9  -4139095.67448  19680169.599    19680170.7354   19680177.6464
      -484.450        -377.494
 -21326659.867 9 -16599575.20948  20688628.927    20688630.1304   20688637.9244
      4207.774        3278.785
 -11938122.665 9  -9008349.452 9  19306506.119    19306507.630    19306513.884
      -652.564        -508.491
   6748454.425 8   5264027.38946  23448325.168    23448326.9794   23448334.1934
     -2391.647       -1863.621
  -7984611.043 9  -6206732.76448  19508653.995    19508655.1954   19508661.7684
       -74.820         -58.301
 -27780123.033 9 -21629014.90248  20034142.334    20034143.9114   20034150.7074
      2371.650        1848.039
  -4459897.659 9  -3459150.64346  22926642.475    22926643.9754   22926651.1834
      4111.208        3203.539
 -10488686.231 9  -8158035.81047  22548950.287    22548951.5424   22548959.3224
      2526.606        1968.784
 96 10 16 17 24 29.9940000  0  9 21 17  1 28 26 23  3 31  9         -0.005207718
 -22100274.666 9 -17202028.53448  19479418.241    19479419.4514   19479426.3884
      2002.414        1560.322
  -5308360.173 9  -4127640.98148  19682966.963    19682968.1404   19682975.0234
      -494.773        -385.537
 -21452759.593 9 -16697834.70148  20664632.974    20664634.1394   20664641.9134
      4199.486        3272.327
 -11918284.215 9  -8992890.945 9  19310281.315    19310282.788    19310289.045
      -669.270        -521.509
   6820269.555 8   5319987.14945  23461991.122    23461992.9274   23462000.2294
     -2395.214       -1866.401
  -7982283.279 9  -6204918.93148  19509096.893    19509098.1414   19509104.7314
       -79.770         -62.158
 -27850995.528 9 -21684240.23148  20020655.671    20020657.3194   20020664.0894
      2353.955        1834.251
  -4583110.321 9  -3555160.47946  22903195.913    22903197.3324   22903204.6804
      4103.518        3197.546
 -10564324.395 9  -8216974.61147  22534556.805    22534558.0704   22534565.8714
      2516.751        1961.105
 96 10 16 17 24 59.9940000  0  9 21 17  1 28 26 23  3 31  9         -0.005228140
 -22160209.904 9 -17248731.30748  19468012.943    19468014.1724   19468021.1004
      1992.584        1552.663
  -5293327.697 9  -4115927.38348  19685827.551    19685828.7444   19685835.6414
      -507.982        -395.830
 -21578579.739 9 -16795876.34048  20640690.144    20640691.3014   20640699.0824
      4187.933        3263.324
 -11897916.436 9  -8977019.971 9  19314157.248    19314158.684    19314164.932
      -689.160        -537.008
   6892218.964 8   5376051.55345  23475682.668    23475684.4234   23475691.9724
     -2401.837       -1871.561
  -7979772.366 9  -6202962.39048  19509574.710    19509575.9554   19509582.5514
       -88.173         -68.706
 -27921316.069 9 -21739035.46048  20007274.123    20007275.7804   20007282.5194
      2333.484        1818.299
  -4706055.547 9  -3650961.93346  22879800.275    22879801.6904   22879809.0134
      4092.163        3188.698
 -10639642.132 9  -8275663.71847  22520224.377    22520225.5714   22520233.3624
      2503.802        1951.014
 96 10 16 17 25 29.9940000  0  9 21 17  1 28 26 23  3 31  9         -0.005248574
 -22219886.387 9 -17295232.45548  19456656.845    19456658.1144   19456665.0644
      1984.546        1546.399
  -5277940.709 9  -4103937.54348  19688755.638    19688756.8104   19688763.7304
      -518.911        -404.346
 -21704091.399 9 -16893677.59748  20616805.966    20616807.1574   20616814.9914
      4178.176        3255.722
 -11876998.374 9  -8960720.205 9  19318137.889    19318139.291    19318145.548
      -706.597        -550.595
   6964321.553 8   5432235.29945  23489403.523    23489405.2174   23489412.8704
     -2406.238       -1874.991
  -7977062.787 9  -6200851.04348  19510090.334    19510091.5794   19510098.1574
       -93.564         -72.907
 -27991054.008 9 -21793376.71848  19994003.485    19994005.0924   19994011.8604
      2314.325        1803.370
  -4828703.212 9  -3746531.53946  22856461.020    22856462.5184   22856469.9504
      4083.039        3181.589
 -10714617.871 9  -8334086.33847  22505957.000    22505958.1304   22505965.9544
      2493.146        1942.711
 96 10 16 17 25 59.9940000  0  9 21 17  1 28 26 23  3 31  9         -0.005269004
 -22279296.109 9 -17341525.74448  19445351.570    19445352.8234   19445359.7744
      1976.508        1540.136
  -5262217.422 9  -4091685.65248  19691747.659    19691748.8374   19691755.7934
      -528.824        -412.071
 -21829282.514 9 -16991229.08148  20592982.793    20592984.0354   20592991.8874
      4168.207        3247.954
 -11855537.194 9  -8943997.236 9  19322221.803    19322223.251    19322229.523
      -723.779        -563.984
   7036574.856 8   5488536.49245  23503152.949    23503154.6484   23503162.2824
     -2410.314       -1878.167
  -7974173.344 9  -6198599.54148  19510640.192    19510641.4514   19510647.9844
       -98.772         -76.965
 -28060191.173 9 -21847249.83748  19980847.182    19980848.7684   19980855.5094
      2295.350        1788.584
  -4951054.062 9  -3841869.85446  22833178.149    22833179.8574   22833187.2194
      4073.898        3174.466
 -10789233.492 9  -8392228.35147  22491757.989    22491759.2174   22491766.9914
      2481.456        1933.602
 96 10 16 17 26 29.9940000  0  9 21 17  1 28 26 23  3 31  9         -0.005289429
 -22338449.592 9 -17387619.35948  19434095.016    19434096.2904   19434103.2414
      1968.083        1533.571
  -5246184.957 9  -4079192.84248  19694798.508    19694799.6924   19694806.6924
      -539.015        -420.012
 -21954155.258 9 -17088532.48548  20569220.209    20569221.5194   20569229.3614
      4157.686        3239.755
 -11833547.092 9  -8926862.114 9  19326406.393    19326407.870    19326414.153
      -741.294        -577.632
   7108963.309 8   5544942.99345  23516928.114    23516929.8084   23516937.4544
     -2414.507       -1881.434
  -7971104.650 9  -6196208.36048  19511224.214    19511225.4394   19511231.9354
      -104.879         -81.724
 -28128752.709 9 -21900674.41148  19967800.396    19967801.9394   19967808.7054
      2276.363        1773.789
  -5073100.129 9  -3936970.68646  22809953.384    22809955.1894   22809962.5744
      4063.083        3166.039
 -10863475.906 9  -8450079.55447  22477630.041    22477631.3734   22477639.1114
      2468.846        1923.776
 96 10 16 17 26 59.9940000  0  9 21 17  1 28 26 23  3 31  9         -0.005309840
 -22397359.076 9 -17433522.84748  19422884.969    19422886.1804   19422893.1554
      1958.740        1526.291
  -5229858.431 9  -4066470.89448  19697905.324    19697906.5204   19697913.5554
      -549.866        -428.467
 -22078725.244 9 -17185599.97248  20545515.289    20545516.5884   20545524.4434
      4146.624        3231.136
 -11811036.634 9  -8909321.521 9  19330690.024    19330691.488    19330697.812
      -759.794        -592.047
   7181461.010 8   5601434.62645  23530724.105    23530725.8454   23530733.4684
     -2419.147       -1885.050
  -7967865.740 9  -6193684.54748  19511840.584    19511841.8084   19511848.2874
      -111.472         -86.861
 -28196745.892 9 -21953656.11848  19954861.645    19954863.2624   19954870.0694
      2255.978        1757.905
  -5194811.893 9  -4031811.05546  22786792.461    22786794.1384   22786801.5134
      4050.743        3156.423
 -10937333.933 9  -8507631.23947  22463575.184    22463576.6504   22463584.3794
      2454.548        1912.635
 96 10 16 17 27 29.9940000  0  9 21 17  1 28 26 23  3 31  9         -0.005330225
 -22456004.876 9 -17479220.87248  19411724.979    19411726.2264   19411733.2374
      1949.831        1519.349
  -5213222.929 9  -4053508.19248  19701070.963    19701072.1374   19701079.2004
      -560.452        -436.716
 -22202984.891 9 -17282425.63948  20521869.367    20521870.7064   20521878.5674
      4136.038        3222.887
 -11787991.283 9  -8891364.127 9  19335075.376    19335076.873    19335083.250
      -777.792        -606.072
   7254079.958 8   5658020.74245  23544543.166    23544544.7404   23544552.5034
     -2423.364       -1888.336
  -7964449.348 9  -6191022.43548  19512490.748    19512491.9214   19512498.4264
      -117.676         -91.696
 -28264137.817 9 -22006169.30648  19942037.416    19942038.9704   19942045.8474
      2235.698        1742.102
  -5316183.905 9  -4126386.59946  22763696.262    22763697.7814   22763705.2094
      4039.564        3147.712
 -11010774.288 9  -8564857.46847  22449600.051    22449601.4204   22449609.1524
      2440.270        1901.509
 96 10 16 17 27 59.9940000  0  9 21 17  1 28 26 23  3 31  9         -0.005350587
 -22514387.867 9 -17524714.11348  19400615.036    19400616.2864   19400623.3174
      1942.382        1513.544
  -5196267.145 9  -4040295.91448  19704297.549    19704298.7304   19704305.8114
      -570.025        -444.175
 -22326924.501 9 -17379001.93148  20498284.438    20498285.7464   20498293.5794
      4126.676        3215.592
 -11764403.568 9  -8872984.114 9  19339563.992    19339565.451    19339571.870
      -794.687        -619.237
   7326830.012 8   5714709.01845  23558387.062    23558388.5394   23558396.2544
     -2426.429       -1890.724
  -7960833.428 9  -6188204.85148  19513178.817    19513180.0144   19513186.5384
      -123.371         -96.133
 -28330931.822 9 -22058216.58748  19929326.911    19929328.5134   19929335.4024
      2217.268        1727.741
  -5437217.836 9  -4220698.74346  22740664.260    22740665.7714   22740673.1454
      4029.578        3139.931
 -11083786.806 9  -8621750.32447  22435706.376    22435707.6664   22435715.3454
      2427.441        1891.512
 96 10 16 17 28 29.9940000  0  9 21 17  1 28 26 23  3 31  9         -0.005370963
 -22572546.554 9 -17570032.56948  19389547.811    19389549.0694   19389556.0674
      1935.211        1507.957
  -5179014.676 9  -4026852.45348  19707580.582    19707581.7924   19707588.8524
      -579.812        -451.802
 -22450577.817 9 -17475355.13148  20474754.031    20474755.2864   20474763.0824
      4117.164        3208.180
 -11740304.443 9  -8854205.597 9  19344149.856    19344151.353    19344157.794
      -811.545        -632.373
   7399674.803 8   5771471.11145  23572248.878    23572250.8104   23572258.2614
     -2429.315       -1892.973
  -7957040.188 9  -6185249.09148  19513900.635    19513901.8564   19513908.3814
      -129.009        -100.526
 -28397160.398 9 -22109823.27048  19916723.970    19916725.6274   19916732.5654
      2198.388        1713.030
  -5557955.243 9  -4314779.84046  22717688.684    22717690.1284   22717697.5804
      4019.899        3132.389
 -11156416.921 9  -8678345.19847  22421885.263    22421886.6024   22421894.2284
      2415.026        1881.838
 96 10 16 17 28 59.9940000  0  9 21 17  1 28 26 23  3 31  9         -0.005391349
 -22630477.212 9 -17615173.33748  19378524.069    19378525.2624   19378532.2304
      1927.466        1501.922
  -5161451.125 9  -4013166.59548  19710922.865    19710924.0534   19710931.0954
      -590.490        -460.122
 -22573922.944 9 -17571468.18148  20451282.176    20451283.4814   20451291.2124
      4106.466        3199.844
 -11715687.348 9  -8835023.468 9  19348834.269    19348835.814    19348842.269
      -828.880        -645.880
   7472615.179 8   5828307.65445  23586129.107    23586130.8354   23586138.4404
     -2432.946       -1895.802
  -7953073.425 9  -6182158.12048  19514655.486    19514656.6894   19514663.2094
      -134.801        -105.040
 -28462811.091 9 -22160979.65948  19904231.097    19904232.7304   19904239.6714
      2179.042        1697.955
  -5678406.060 9  -4408637.59746  22694767.864    22694769.1724   22694776.5774
      4010.945        3125.412
 -11228668.058 9  -8734644.76847  22408136.299    22408137.6774   22408145.2614
      2402.509        1872.085
 96 10 16 17 29 29.9940000  0  9 21 17  1 28 26 23  3 31  9         -0.005411745
 -22688155.731 9 -17660117.63348  19367548.215    19367549.3834   19367556.3804
      1919.030        1495.348
  -5143536.797 9  -3999207.40748  19714331.905    19714333.0844   19714340.1034
      -602.647        -469.595
 -22696917.957 9 -17667308.41348  20427876.967    20427878.2914   20427885.9934
      4094.344        3190.398
 -11690533.256 9  -8815422.902 9  19353620.951    19353622.472    19353628.899
      -846.894        -659.917
   7545696.329 8   5885253.91245  23600036.153    23600037.7974   23600045.1504
     -2437.780       -1899.569
  -7948909.522 9  -6178913.52648  19515447.866    19515449.0334   19515455.5814
      -141.644        -110.372
 -28527869.390 9 -22211674.44048  19891850.970    19891852.5734   19891859.4854
      2159.388        1682.640
  -5798575.487 9  -4502276.09346  22671900.538    22671901.6994   22671909.0764
      4001.117        3117.754
 -11300524.864 9  -8790637.06147  22394462.345    22394463.7234   22394471.3504
      2389.142        1861.669
 96 10 16 17 29 59.9940000  0  9 21 17  1 28 26 23  3 31  9         -0.005432151
 -22745601.480 9 -17704880.55448  19356616.657    19356617.8344   19356624.8124
      1911.042        1489.124
  -5125268.718 9  -3984972.56448  19717808.265    19717809.4174   19717816.4114
      -614.893        -479.137
 -22819565.402 9 -17762877.81548  20404537.948    20404539.2604   20404546.9654
      4082.751        3181.364
 -11664854.341 9  -8795413.379 9  19358507.479    19358509.015    19358515.442
      -864.627        -673.735
   7618909.660 8   5942303.19045  23613968.139    23613969.8544   23613977.2764
     -2442.660       -1903.371
  -7944548.984 9  -6175515.70948  19516277.599    19516278.7864   19516285.3824
      -148.578        -115.775
 -28592352.331 9 -22261920.88548  19879580.293    19879581.8874   19879588.7554
      2139.739        1667.329
  -5918445.943 9  -4595681.61646  22649089.912    22649091.0954   22649098.3934
      3990.510        3109.488
 -11372002.404 9  -8846333.83847  22380860.638    22380861.9934   22380869.6104
      2376.296        1851.659
 96 10 16 17 30 29.9940000  0  9 21 17  1 28 26 23  3 31  9         -0.005452564
 -22802821.942 9 -17749467.92748  19345727.949    19345729.1474   19345736.0884
      1903.669        1483.378
  -5106642.490 9  -3970458.65448  19721352.787    19721353.9384   19721360.9154
      -626.799        -488.415
 -22941884.475 9 -17858191.34748  20381261.381    20381262.6974   20381270.3754
      4071.910        3172.917
 -11638657.996 9  -8775000.671 9  19363492.493    19363494.015    19363500.437
      -881.744        -687.073
   7692255.443 8   5999455.66045  23627925.581    23627927.0684   23627934.7204
     -2447.006       -1906.758
  -7939998.730 9  -6171970.07348  19517143.487    19517144.6744   19517151.2924
      -154.704        -120.549
 -28656253.438 9 -22311713.95948  19867420.339    19867421.9104   19867428.7474
      2120.465        1652.310
  -6038001.875 9  -4688842.06546  22626338.987    22626340.3144   22626347.6294
      3979.677        3101.047
 -11443094.178 9  -8901730.01247  22367332.245    22367333.6684   22367341.2674
      2363.282        1841.518
 96 10 16 17 30 59.9940000  0  9 21 17  1 28 26 23  3 31  9         -0.005472981
 -22859827.523 9 -17793887.85248  19334880.173    19334881.3744   19334888.2714
      1896.651        1477.910
  -5087664.361 9  -3955670.53048  19724964.271    19724965.4024   19724972.3764
      -638.356        -497.420
 -23063888.874 9 -17953259.67948  20358044.682    20358046.0154   20358053.7154
      4061.802        3165.041
 -11611955.965 9  -8754193.919 9  19368573.680    19368575.231    19368581.683
      -898.398        -700.050
   7765732.899 8   6056710.74845  23641907.846    23641909.2414   23641916.9794
     -2451.497       -1910.257
  -7935278.358 9  -6168291.87248  19518041.764    19518042.9614   19518049.5694
      -160.029        -124.698
 -28719592.201 9 -22361068.84548  19855367.468    19855368.9434   19855375.7354
      2101.900        1637.844
  -6157229.738 9  -4781746.88446  22603650.678    22603652.1104   22603659.2104
      3968.656        3092.459
 -11513805.255 9  -8956829.54847  22353876.356    22353877.7514   22353885.3554
      2350.784        1831.780
 96 10 16 17 31 29.9940000  0  9 21 17  1 28 26 23  3 31  9         -0.005493384
 -22916607.861 9 -17838132.27048  19324075.219    19324076.4574   19324083.3644
      1889.374        1472.239
  -5068329.115 9  -3940604.12948  19728643.621    19728644.7814   19728651.7734
      -649.957        -506.460
 -23185575.453 9 -18048080.35948  20334888.431    20334889.7924   20334897.5384
      4051.292        3156.851
 -11584740.532 9  -8732987.114 9  19373752.631    19373754.157    19373760.633
      -915.363        -713.270
   7839351.418 8   6114075.71745  23655916.977    23655918.7454   23655926.5094
     -2455.510       -1913.384
  -7930381.302 9  -6164475.99748  19518973.654    19518974.8374   19518981.4444
      -165.838        -129.224
 -28782348.609 9 -22409969.94648  19843425.281    19843426.7584   19843433.5564
      2082.455        1622.692
  -6276094.044 9  -4874368.39546  22581031.599    22581033.0014   22581040.0514
      3956.120        3082.691
 -11584116.091 9  -9011617.20147  22340496.497    22340497.9824   22340505.6284
      2337.334        1821.299
 96 10 16 17 31 59.9940000  0  9 21 17  1 28 26 23  3 31  9         -0.005513771
 -22973180.097 9 -17882214.53148  19313309.871    19313311.1224   19313318.0184
      1881.880        1466.400
  -5048661.770 9  -3925278.95348  19732386.187    19732387.3724   19732394.3714
      -661.162        -515.191
 -23306955.909 9 -18142662.50348  20311790.453    20311791.8204   20311799.5904
      4040.609        3148.526
 -11557023.583 9  -8711389.515 9  19379026.984    19379028.504    19379035.030
      -932.511        -726.632
   7913075.775 8   6171523.16345  23669946.330    23669948.0034   23669956.0294
     -2459.364       -1916.388
  -7925318.293 9  -6160530.80448  19519937.113    19519938.3234   19519944.9034
      -171.695        -133.788
 -28844524.823 9 -22458418.94648  19831593.519    19831595.0344   19831601.8454
      2062.665        1607.271
  -6394590.896 9  -4966703.58546  22558482.523    22558483.8134   22558490.8934
      3943.874        3073.149
 -11654032.469 9  -9066097.49047  22327191.838    22327193.2624   22327200.9504
      2323.634        1810.624
 96 10 16 17 32 29.9940000  0  9 21 17  1 28 26 23  3 31  9         -0.005534141
 -23029515.348 9 -17926112.13048  19302589.644    19302590.8794   19302597.7604
      1874.364        1460.543
  -5028666.900 9  -3909698.56448  19736191.078    19736192.2774   19736199.2904
      -671.203        -523.015
 -23428003.378 9 -18236985.17448  20288755.899    20288757.2394   20288764.9874
      4029.557        3139.915
 -11528789.511 9  -8689388.963 9  19384399.788    19384401.283    19384407.843
      -949.219        -739.651
   7986905.358 8   6229052.63945  23683995.817    23683997.3784   23684005.5154
     -2461.864       -1918.336
  -7920083.535 9  -6156451.78548  19520933.235    19520934.4894   19520941.0194
      -176.807        -137.772
 -28906106.771 9 -22506404.88348  19819874.848    19819876.3664   19819883.2314
      2043.429        1592.282
  -6512729.522 8  -5058759.64446  22536001.254    22536002.8184   22536009.9414
      3932.546        3064.322
 -11723528.289 9  -9120250.07247  22313967.199    22313968.5814   22313976.2814
      2310.140        1800.109
 96 10 16 17 32 59.9940000  0  9 21 17  1 28 26 23  3 31  9         -0.005554503
 -23085618.690 9 -17969829.01648  19291913.494    19291914.7544   19291921.6454
      1865.165        1453.375
  -5008371.049 9  -3893883.63748  19740053.237    19740054.4334   19740061.4764
      -682.589        -531.888
 -23548706.646 9 -18331039.63548  20265786.822    20265788.1774   20265795.8714
      4016.704        3129.899
 -11500050.959 9  -8666995.311 9  19389868.542    19389870.062    19389876.665
      -967.314        -753.751
   8060808.562 8   6286639.47345  23698059.216    23698060.9274   23698068.9244
     -2465.506       -1921.174
  -7914688.242 9  -6152247.67348  19521959.941    19521961.1884   19521967.7194
      -183.647        -143.102
 -28967106.456 9 -22553937.11148  19808266.965    19808268.5224   19808275.4104
      2022.318        1575.832
  -6630527.621 8  -5150550.35146  22513585.055    22513586.5984   22513593.6734
      3919.990        3054.538
 -11792616.668 9  -9174085.17247  22300820.098    22300821.4634   22300829.1644
      2295.025        1788.331
 96 10 16 17 33 29.9940000  0  9 21 17  1 28 26 23  3 31  9         -0.005574851
 -23141472.163 9 -18013351.19548  19281284.945    19281286.1704   19281293.0774
      1857.653        1447.522
  -4987757.933 9  -3877821.49948  19743975.820    19743976.9544   19743984.0214
      -692.374        -539.512
 -23669049.668 9 -18424813.38348  20242886.424    20242887.6604   20242895.2924
      4005.556        3121.212
 -11470797.891 9  -8644200.737 9  19395435.242    19395436.758    19395443.382
      -983.546        -766.399
   8134788.161 8   6344285.82245  23712137.028    23712139.0814   23712147.0554
     -2467.218       -1922.508
  -7909106.922 9  -6147898.60648  19523022.070    19523023.3014   19523029.8214
      -189.089        -147.342
 -29027496.872 9 -22600994.57648  19796774.990    19796776.6384   19796783.5574
      2003.077        1560.839
  -6747983.672 8  -5242074.53146  22491233.956    22491235.4084   22491242.5594
      3909.746        3046.555
 -11861268.830 9  -9227580.36047  22287755.996    22287757.4074   22287765.1124
      2281.318        1777.650
 96 10 16 17 33 59.9940000  0  9 21 17  1 28 26 23  3 31  9         -0.005595215
 -23197081.819 9 -18056683.40248  19270702.804    19270704.0064   19270710.9434
      1848.751        1440.585
  -4966837.912 9  -3861520.22148  19747956.708    19747957.9274   19747965.0254
      -703.251        -547.988
 -23789050.810 9 -18518320.73148  20220050.940    20220052.1544   20220059.7744
      3993.653        3111.937
 -11441047.052 9  -8621018.293 9  19401096.719    19401098.195    19401104.805
     -1000.715        -779.778
   8208847.900 8   6401994.62145  23726230.130    23726231.9384   23726240.5454
     -2471.054       -1925.497
  -7903355.821 9  -6143417.24348  19524116.465    19524117.6964   19524124.2214
      -195.117        -152.039
 -29087301.102 9 -22647595.28448  19785394.732    19785396.3004   19785403.2274
      1983.060        1545.242
  -6865132.033 8  -5333358.95246  22468941.348    22468942.7754   22468949.9554
      3899.048        3038.219
 -11929508.070 9  -9280753.79547  22274770.487    22274771.9274   22274779.6144
      2267.062        1766.542
 96 10 16 17 34 29.9940000  0  8 21 17  1 28 23  3 31  9            -0.005615592
 -23252435.544 9 -18099816.17048  19260169.369    19260170.5504   19260177.5184
      1840.667        1434.286
  -4945595.046 9  -3844967.36248  19751999.137    19752000.3344   19752007.4514
      -714.027        -556.385
 -23908702.891 9 -18611556.08448  20197281.849    20197283.0744   20197290.6664
      3982.232        3103.038
 -11410794.315 9  -8597444.758 9  19406853.609    19406855.123    19406861.722
     -1017.096        -792.542
  -7897442.368 9  -6138809.36748  19525241.734    19525242.9774   19525249.5394
      -200.022        -155.861
 -29146512.293 9 -22693733.87448  19774127.221    19774128.8034   19774135.7014
      1963.378        1529.905
  -6981955.982 8  -5424390.58746  22446710.241    22446711.7604   22446719.0274
      3887.901        3029.533
 -11997337.157 9  -9333607.61947  22261863.048    22261864.4554   22261872.1904
      2253.964        1756.336
 96 10 16 17 34 59.9940000  0  8 21 17  1 28 23  3 31  9            -0.005635975
 -23307552.817 9 -18142764.69448  19249680.892    19249682.0764   19249689.0434
      1833.244        1428.502
  -4924019.388 9  -3828155.19248  19756104.891    19756106.0644   19756113.2014
      -724.940        -564.888
 -24028022.376 9 -18704532.27548  20174576.040    20174577.3174   20174584.9214
      3971.912        3094.996
 -11380048.977 9  -8573487.380 9  19412704.243    19412705.787    19412712.374
     -1033.094        -805.008
  -7891383.173 9  -6134087.93248  19526394.745    19526396.0214   19526402.5614
      -204.398        -159.271
 -29205134.867 9 -22739413.80848  19762971.661    19762973.3224   19762980.1944
      1944.228        1514.983
  -7098434.548 8  -5515153.08846  22424544.990    22424546.5574   22424553.9844
      3876.680        3020.790
 -12064773.223 9  -9386155.19347  22249030.338    22249031.7724   22249039.5654
      2241.162        1746.360
 96 10 16 17 35 29.9940000  0  8 21 17  1 28 23  3 31  9            -0.005656377
 -23362451.478 9 -18185542.87048  19239233.975    19239235.2054   19239242.1464
      1826.362        1423.139
  -4902119.281 9  -3811090.20348  19760272.323    19760273.5124   19760280.6764
      -735.414        -573.050
 -24147035.866 9 -18797270.02948  20151928.505    20151929.8014   20151937.4034
      3961.837        3087.146
 -11348829.171 9  -8549160.286 9  19418645.175    19418646.720    19418653.297
     -1048.655        -817.134
  -7885202.907 9  -6129272.15848  19527570.862    19527572.0894   19527578.6394
      -207.954        -162.042
 -29263195.240 9 -22784655.66448  19751923.142    19751924.7824   19751931.6244
      1926.143        1500.891
  -7214581.787 8  -5605657.39546  22402442.799    22402444.3944   22402451.8104
      3865.885        3012.378
 -12131829.933 9  -9438407.16247  22236269.816    22236271.2694   22236279.1024
      2228.910        1736.813
 96 10 16 17 35 59.9940000  0  8 21 17  1 28 23  3 31  9            -0.005676776
 -23417121.177 9 -18228142.63048  19228830.702    19228831.9184   19228838.8414
      1818.407        1416.941
  -4879882.395 9  -3793762.79148  19764503.838    19764505.0794   19764512.2344
      -746.972        -582.056
 -24265709.074 9 -18889742.62848  20129345.752    20129347.0644   20129354.6254
      3949.732        3077.713
 -11317111.992 9  -8524445.630 9  19424680.718    19424682.309    19424688.849
     -1065.688        -830.406
  -7878886.895 9  -6124350.60548  19528772.760    19528774.0204   19528780.5624
      -213.094        -166.047
 -29320684.394 9 -22829452.42148  19740983.340    19740984.9534   19740991.7564
      1906.502        1485.586
  -7330363.964 8  -5695877.25046  22380410.129    22380411.7234   22380419.1494
      3852.828        3002.204
 -12198486.420 9  -9490347.27147  22223585.515    22223586.9454   22223594.7874
      2214.911        1725.905
 96 10 16 17 36 29.9940000  0  8 21 17  1 28 23  3 31  9            -0.005697167
 -23471580.745 9 -18270578.65548  19218467.392    19218468.6124   19218475.5464
      1811.936        1411.898
  -4857320.784 9  -3776182.34248  19768797.226    19768798.4374   19768805.6164
      -757.348        -590.141
 -24384038.144 9 -18981947.06548  20106828.475    20106829.7824   20106837.3364
      3938.629        3069.062
 -11284912.376 9  -8499355.044 9  19430808.072    19430809.693    19430816.216
     -1081.194        -842.489
  -7872434.508 9  -6119322.78248  19530000.618    19530001.8804   19530008.4424
      -217.439        -169.433
 -29377604.819 9 -22873806.00448  19730151.754    19730153.3264   19730160.1404
      1887.996        1471.166
  -7445775.741 8  -5785808.47346  22358447.899    22358449.6424   22358457.0404
      3840.959        2992.955
 -12264739.974 9  -9541973.41447  22210977.821    22210979.2784   22210987.1814
      2201.536        1715.483
 96 10 16 17 36 59.9940000  0  8 21 17  1 28 23  3 31  9            -0.005717543
 -23525817.837 9 -18312841.32148  19208146.424    19208147.6294   19208154.5604
      1804.336        1405.976
  -4834421.613 9  -3758338.86348  19773154.888    19773156.0214   19773163.2424
      -768.584        -598.897
 -24502007.460 9 -19073871.17748  20084379.737    20084380.9684   20084388.4964
      3926.494        3059.606
 -11252218.129 9  -8473879.034 9  19437029.645    19437031.222    19437037.739
     -1097.770        -855.405
  -7865808.191 9  -6114159.43148  19531261.548    19531262.8264   19531269.3694
      -223.720        -174.327
 -29433943.817 9 -22917706.53448  19719430.746    19719432.3554   19719439.1984
      1868.469        1455.950
  -7560813.505 9  -5875448.26946  22336556.901    22336558.5314   22336566.1044
      3828.865        2983.531
 -12330552.736 9  -9593256.07847  22198453.961    22198455.5214   22198463.4154
      2186.483        1703.753
 96 10 16 17 37 29.9940000  0  8 21 17  1 28 23  3 31  9            -0.005737901
 -23579810.591 9 -18354913.59848  19197871.899    19197873.1444   19197880.0804
      1795.698        1399.245
  -4811179.103 9  -3740227.85148  19777577.778    19777578.9604   19777586.1874
      -780.347        -608.062
 -24619595.117 9 -19165497.89048  20062003.552    20062004.7604   20062012.2424
      3913.195        3049.243
 -11219020.374 9  -8448010.681 9  19443347.063    19443348.589    19443355.064
     -1114.887        -868.743
  -7858986.807 9  -6108844.07748  19532559.664    19532560.9214   19532567.4494
      -230.570        -179.665
 -29489682.365 9 -22961139.17848  19708824.084    19708825.6744   19708832.5374
      1847.933        1439.948
  -7675476.016 8  -5964795.66046  22314737.569    22314738.9574   22314746.5384
      3815.772        2973.329
 -12395900.774 9  -9644176.60947  22186018.783    22186020.1974   22186028.1164
      2170.628        1691.398
 96 10 16 17 37 59.9940000  0  8 21 17  1 28 23  3 31  9            -0.005758266
 -23633583.890 9 -18396814.86648  19187639.229    19187640.4414   19187647.3214
      1789.843        1394.683
  -4787626.512 9  -3721875.21448  19782059.697    19782060.9184   19782068.1414
      -789.129        -614.906
 -24736821.032 9 -19256842.72748  20039696.201    20039697.3664   20039704.8424
      3902.786        3041.132
 -11185352.965 9  -8421776.365 9  19449753.848    19449755.337    19449761.771
     -1128.866        -879.636
  -7851994.185 9  -6103395.29648  19533890.380    19533891.6084   19533898.1144
      -234.899        -183.038
 -29544833.038 9 -23004113.74248  19698329.243    19698330.8524   19698337.7404
      1829.431        1425.531
  -7789791.488 8  -6053872.63946  22292983.963    22292985.4104   22292992.9464
      3805.763        2965.530
 -12460818.674 9  -9694761.96247  22173665.235    22173666.7574   22173674.6314
      2157.988        1681.549
 96 10 16 17 38 29.9940000  0  8 21 17  1 28 23  3 31  9            -0.005778651
 -23687132.326 9 -18438540.91548  19177449.282    19177450.5024   19177457.3724
      1780.544        1387.437
  -4763763.421 9  -3703280.63448  19786600.705    19786601.9484   19786609.1744
      -801.343        -624.423
 -24853708.622 9 -19347923.93948  20017453.143    20017454.3374   20017461.8404
      3890.098        3031.245
 -11151226.213 9  -8395184.117 9  19456247.961    19456249.475    19456255.912
     -1145.889        -892.901
  -7844833.649 9  -6097815.67048  19535253.016    19535254.2214   19535260.7274
      -241.960        -188.540
 -29599388.650 9 -23046624.61748  19687947.654    19687949.2874   19687956.2074
      1808.087        1408.899
  -7903769.113 9  -6142686.35746  22271294.584    22271296.2114   22271303.6474
      3793.073        2955.641
 -12525317.980 9  -9745021.13047  22161391.448    22161392.9164   22161400.7914
      2142.327        1669.346
 96 10 16 17 38 59.9940000  0  8 21 17  1 28 23  3 31  9            -0.005799044
 -23740419.190 9 -18480063.14648  19167309.080    19167310.3504   19167317.2224
      1772.627        1381.268
  -4739547.791 9  -3684411.34348  19791208.845    19791210.0844   19791217.3054
      -812.199        -632.882
 -24970231.142 9 -19438720.68148  19995279.519    19995280.7884   19995288.3054
      3878.723        3022.381
 -11116601.099 9  -8368203.533 9  19462836.903    19462838.429    19462844.894
     -1161.666        -905.194
  -7837481.304 9  -6092086.58648  19536652.089    19536653.3314   19536659.8484
      -247.304        -192.704
 -29653319.216 9 -23088648.44848  19677685.024    19677686.6584   19677693.5904
      1788.014        1393.258
  -8017380.861 9  -6231214.97446  22249675.005    22249676.7074   22249684.0754
      3781.871        2946.912
 -12589368.811 9  -9794930.84847  22149203.005    22149204.5144   22149212.3434
      2128.559        1658.617
 96 10 16 17 39 29.9940000  0  8 21 17  1 28 23  3 31  9            -0.005819455
 -23793454.419 9 -18521389.29148  19157216.855    19157218.0574   19157224.9164
      1764.257        1374.746
  -4714996.597 9  -3665280.57248  19795880.802    19795882.0094   19795889.2564
      -823.479        -641.672
 -25086394.436 9 -19529237.50348  19973174.282    19973175.6214   19973183.1754
      3866.578        3012.918
 -11081492.698 9  -8340846.357 9  19469517.830    19469519.333    19469525.851
     -1177.783        -917.753
  -7829965.884 9  -6086230.42248  19538082.223    19538083.4714   19538089.9864
      -252.725        -196.929
 -29706633.848 9 -23130192.32548  19667539.583    19667541.2434   19667548.1754
      1767.491        1377.266
  -8130638.574 9  -6319467.72146  22228122.906    22228124.4644   22228131.8354
      3769.740        2937.460
 -12652999.282 9  -9844513.01047  22137094.626    22137096.0804   22137103.7944
      2114.598        1647.739
